[[{"header":{"parameterUnit":"m.s-1","parameterCategory":1,"la1":31.0,"la2":29.5877,"lo1":-88.7671,"lo2":-86.6584,"dy":0.0162,"dx":0.0185,"nx":115,"ny":88,"refTime":"2023-04-10T12:00:00:Z","depth":0,"parameterNumber":2,"parameterNumberName":"U-component_of_WINDS"},"data":[0.0,0.0,0.0,0.0,0.0,0.0,0.0,0.0,0.0,0.0,0.0,0.0,0.0,0.0,0.0,0.0,0.0,0.0,0.0,0.0,0.0,0.0,0.0,0.0,0.0,0.0,0.0,0.0,0.0,0.0,0.0,0.0,0.0,0.0,0.0,0.0,0.0,0.0,0.0,0.0,0.0,0.0,0.0,0.0,0.0,0.0,0.0,0.0,0.0,0.0,0.0,0.0,0.0,0.0,0.0,0.0,0.0,0.0,0.0,0.0,0.0,0.0,0.0,0.0,0.0,0.0,0.0,0.0,0.0,0.0,0.0,0.0,0.0,0.0,0.0,0.0,0.0,0.0,0.0,0.0,0.0,0.0,0.0,0.0,0.0,0.0,0.0,0.0,0.0,0.0,0.0,0.0,0.0,0.0,0.0,0.0,0.0,0.0,0.0,0.0,0.0,0.0,0.0,0.0,0.0,0.0,0.0,0.0,0.0,0.0,0.0,0.0,0.0,0.0,0.0,0.0,0.0,0.0,0.0,0.0,0.0,0.0,0.0,0.0,0.0,0.0,0.0,0.0,0.0,0.0,0.0,0.0,0.0,0.0,0.0,0.0,0.0,0.0,0.0,0.0,0.0,0.0,0.0,0.0,0.0,0.0,0.0,0.0,0.0,0.0,0.0,0.0,0.0,0.0,0.0,0.0,0.0,0.0,0.0,0.0,0.0,0.0,0.0,0.0,0.0,0.0,0.0,0.0,0.0,0.0,0.0,0.0,0.0,0.0,0.0,0.0,0.0,0.0,0.0,0.0,0.0,0.0,0.0,0.0,0.0,0.0,0.0,0.0,0.0,0.0,0.0,0.0,0.0,0.0,0.0,0.0,0.0,0.0,0.0,0.0,0.0,0.0,0.0,0.0,0.0,0.0,0.0,0.0,0.0,0.0,0.0,0.0,0.0,0.0,0.0,0.0,0.0,0.0,0.0,0.0,0.0,0.0,0.0,0.0,0.0,0.0,0.0,0.0,0.0,0.0,0.0,0.0,0.0,0.0,0.0,0.0,0.0,0.0,0.0,0.0,0.0,0.0,0.0,0.0,0.0,0.0,0.0,0.0,0.0,0.0,0.0,0.0,0.0,0.0,0.0,0.0,0.0,0.0,0.0,0.0,0.0,0.0,0.0,0.0,0.0,0.0,0.0,0.0,0.0,0.0,0.0,0.0,0.0,0.0,0.0,0.0,0.0,0.0,0.0,0.0,0.0,0.0,0.0,0.0,0.0,0.0,0.0,0.0,0.0,0.0,0.0,0.0,0.0,0.0,0.0,0.0,0.0,0.0,0.0,0.0,0.0,0.0,0.0,0.0,0.0,0.0,0.0,0.0,0.0,0.0,0.0,0.0,0.0,0.0,0.0,0.0,0.0,0.0,0.0,0.0,0.0,0.0,0.0,0.0,0.0,0.0,0.0,0.0,0.0,0.0,0.0,0.0,0.0,0.0,0.0,0.0,0.0,0.0,0.0,0.0,0.0,0.0,0.0,0.0,0.0,0.0,0.0,0.0,0.0,0.0,0.0,0.0,0.0,0.0,0.0,0.0,0.0,0.0,0.0,0.0,0.0,0.0,0.0,0.0,0.0,0.0,0.0,0.0,0.0,0.0,0.0,0.0,0.0,0.0,0.0,0.0,0.0,0.0,0.0,0.0,0.0,0.0,0.0,0.0,0.0,0.0,0.0,0.0,0.0,0.0,0.0,0.0,0.0,0.0,0.0,0.0,0.0,0.0,0.0,0.0,0.0,0.0,0.0,0.0,0.0,0.0,0.0,0.0,0.0,0.0,0.0,0.0,0.0,0.0,0.0,0.0,0.0,0.0,0.0,0.0,0.0,0.0,0.0,0.0,0.0,0.0,0.0,0.0,0.0,0.0,0.0,0.0,0.0,0.0,0.0,0.0,0.0,0.0,0.0,0.0,0.0,0.0,0.0,0.0,0.0,0.0,0.0,0.0,0.0,0.0,0.0,0.0,0.0,0.0,0.0,0.0,0.0,0.0,0.0,0.0,0.0,0.0,0.0,0.0,0.0,0.0,0.0,0.0,0.0,0.0,0.0,0.0,0.0,0.0,0.0,0.0,0.0,0.0,0.0,0.0,0.0,0.0,0.0,0.0,0.0,0.0,0.0,0.0,0.0,0.0,0.0,0.0,0.0,0.0,0.0,0.0,0.0,0.0,0.0,0.0,0.0,0.0,0.0,0.0,0.0,0.0,0.0,0.0,0.0,0.0,0.0,0.0,0.0,0.0,0.0,0.0,0.0,0.0,0.0,0.0,0.0,0.0,0.0,0.0,0.0,0.0,0.0,0.0,0.0,0.0,0.0,0.0,0.0,0.0,0.0,0.0,0.0,0.0,0.0,0.0,0.0,0.0,0.0,0.0,0.0,0.0,0.0,0.0,0.0,0.0,0.0,0.0,0.0,0.0,0.0,0.0,0.0,0.0,0.0,0.0,0.0,0.0,0.0,0.0,0.0,0.0,0.0,0.0,0.0,0.0,0.0,0.0,0.0,0.0,0.0,0.0,0.0,0.0,0.0,0.0,0.0,0.0,0.0,0.0,0.0,0.0,0.0,0.0,0.0,0.0,0.0,0.0,0.0,0.0,0.0,0.0,0.0,0.0,0.0,0.0,0.0,0.0,0.0,0.0,0.0,0.0,0.0,0.0,0.0,0.0,0.0,0.0,0.0,0.0,0.0,0.0,0.0,0.0,0.0,0.0,0.0,0.0,0.0,0.0,0.0,0.0,0.0,0.0,0.0,0.0,0.0,0.0,0.0,0.0,0.0,0.0,0.0,0.0,0.0,0.0,0.0,0.0,0.0,0.0,0.0,0.0,0.0,0.0,0.0,0.0,0.0,0.0,0.0,0.0,0.0,0.0,0.0,0.0,0.0,0.0,0.0,0.0,0.0,0.0,0.0,0.0,0.0,0.0,0.0,0.0,0.0,0.0,0.0,0.0,0.0,0.0,0.0,0.0,0.0,0.0,0.0,0.0,0.0,0.0,0.0,0.0,0.0,0.0,0.0,0.0,0.0,0.0,0.0,0.0,0.0,0.0,0.0,0.0,0.0,0.0,0.0,0.0,0.0,0.0,0.0,0.0,0.0,0.0,0.0,0.0,0.0,0.0,0.0,0.0,0.0,0.0,0.0,0.0,0.0,0.0,0.0,0.0,0.0,0.0,0.0,0.0,0.0,0.0,0.0,0.0,0.0,0.0,0.0,0.0,0.0,0.0,0.0,0.0,0.0,0.0,0.0,0.0,0.0,0.0,0.0,0.0,0.0,0.0,0.0,0.0,0.0,0.0,0.0,0.0,0.0,0.0,0.0,0.0,0.0,0.0,0.0,0.0,0.0,0.0,0.0,0.0,0.0,0.0,0.0,0.0,0.0,0.0,0.0,0.0,0.0,0.0,0.0,0.0,0.0,0.0,0.0,0.0,0.0,0.0,0.0,0.0,0.0,0.0,0.0,0.0,0.0,0.0,0.0,0.0,0.0,0.0,0.0,0.0,0.0,0.0,0.0,0.0,0.0,0.0,0.0,0.0,0.0,0.0,0.0,0.0,0.0,0.0,0.0,0.0,0.0,0.0,0.0,0.0,0.0,0.0,0.0,0.0,0.0,0.0,0.0,0.0,0.0,0.0,0.0,0.0,0.0,0.0,0.0,0.0,0.0,0.0,0.0,0.0,0.0,0.0,0.0,0.0,0.0,0.0,0.0,0.0,0.0,0.0,0.0,0.0,0.0,0.0,0.0,0.0,0.0,0.0,0.0,0.0,0.0,0.0,0.0,0.0,0.0,0.0,0.0,0.0,0.0,0.0,0.0,0.0,0.0,0.0,0.0,0.0,0.0,0.0,0.0,0.0,0.0,0.0,0.0,0.0,0.0,0.0,0.0,0.0,0.0,0.0,0.0,0.0,0.0,0.0,0.0,0.0,0.0,0.0,0.0,0.0,0.0,0.0,0.0,0.0,0.0,0.0,0.0,0.0,0.0,0.0,0.0,0.0,0.0,0.0,0.0,0.0,0.0,0.0,0.0,0.0,0.0,0.0,0.0,0.0,0.0,0.0,0.0,0.0,0.0,0.0,0.0,0.0,0.0,0.0,0.0,0.0,0.0,0.0,0.0,0.0,0.0,0.0,0.0,0.0,0.0,0.0,0.0,0.0,0.0,0.0,0.0,0.0,0.0,0.0,0.0,0.0,0.0,0.0,0.0,0.0,0.0,0.0,0.0,0.0,0.0,0.0,0.0,0.0,1.5795,0.0,0.0,0.0,0.0,0.0,0.0,0.0,0.0,0.0,0.0,0.0,0.0,0.0,0.0,0.0,0.0,0.0,0.0,0.0,0.0,0.0,0.0,0.0,0.0,0.0,0.0,0.0,0.0,0.0,0.0,0.0,0.0,0.0,0.0,0.0,0.0,0.0,0.0,0.0,0.0,0.0,0.0,0.0,0.0,0.0,0.0,0.0,0.0,0.0,0.0,0.0,0.0,0.0,0.0,0.0,0.0,0.0,0.0,0.0,0.0,0.0,0.0,0.0,0.0,0.0,0.0,0.0,0.0,0.0,0.0,0.0,0.0,0.0,0.0,0.0,0.0,0.0,0.0,0.0,0.0,0.0,0.0,0.0,0.0,0.0,0.0,0.0,0.0,0.0,0.0,0.0,0.0,0.0,0.0,0.0,0.0,0.0,0.0,0.0,0.0,0.0,0.0,0.0,0.0,0.0,0.0,0.0,0.0,0.0,0.0,1.7202,1.7014,1.6759,1.646,1.6142,0.0,0.0,0.0,0.0,0.0,0.0,0.0,0.0,0.0,0.0,0.0,0.0,0.0,0.0,0.0,0.0,0.0,0.0,0.0,0.0,0.0,0.0,0.0,0.0,0.0,0.0,0.0,0.0,0.0,0.0,0.0,0.0,0.0,0.0,0.0,0.0,0.0,0.0,0.0,0.0,0.0,0.0,0.0,0.0,0.0,0.0,0.0,0.0,0.0,0.0,0.0,0.0,0.0,0.0,0.0,0.0,0.0,0.0,0.0,0.0,0.0,0.0,0.0,0.0,0.0,0.0,0.0,0.0,0.0,0.0,0.0,0.0,0.0,0.0,0.0,0.0,0.0,0.0,0.0,0.0,0.0,0.0,0.0,0.0,0.0,0.0,0.0,0.0,0.0,0.0,0.0,0.0,0.0,0.0,0.0,0.0,0.0,0.0,0.0,0.0,0.0,0.0,0.0,0.0,0.0,0.0,0.0,0.0,0.0,0.0,0.0,0.0,1.7257,1.6932,1.6504,0.0,0.0,0.0,0.0,0.0,0.0,0.0,0.0,0.0,0.0,0.0,0.0,0.0,0.0,0.0,0.0,0.0,0.0,0.0,0.0,0.0,0.0,0.0,0.0,0.0,0.0,0.0,0.0,0.0,0.0,0.0,0.0,0.0,0.0,0.0,0.0,0.0,0.0,0.0,0.0,0.0,0.0,0.0,0.0,0.0,0.0,0.0,0.0,0.0,0.0,0.0,0.0,0.0,0.0,0.0,0.0,0.0,0.0,0.0,0.0,0.0,0.0,0.0,0.0,0.0,0.0,0.0,0.0,0.0,0.0,0.0,0.0,0.0,0.0,0.0,0.0,0.0,0.0,0.0,0.0,0.0,0.0,0.0,0.0,0.0,0.0,0.0,0.0,0.0,0.0,0.0,0.0,0.0,0.0,0.0,0.0,0.0,0.0,0.0,0.0,0.0,0.0,0.0,0.0,0.0,0.0,0.0,0.0,0.0,0.0,1.7424,1.7222,1.7116,0.0,1.6779,0.0,0.0,0.0,0.0,0.0,0.0,0.0,0.0,0.0,0.0,0.0,0.0,0.0,0.0,0.0,0.0,0.0,0.0,0.0,0.0,0.0,0.0,0.0,0.0,0.0,0.0,0.0,0.0,0.0,0.0,0.0,0.0,0.0,0.0,0.0,0.0,0.0,0.0,0.0,0.0,0.0,0.0,0.0,0.0,0.0,0.0,0.0,0.0,0.0,0.0,0.0,0.0,0.0,0.0,0.0,0.0,0.0,0.0,0.0,0.0,0.0,0.0,0.0,0.0,0.0,0.0,0.0,0.0,0.0,0.0,0.0,0.0,0.0,0.0,0.0,0.0,0.0,0.0,0.0,0.0,0.0,0.0,0.0,0.0,0.0,0.0,0.0,0.0,0.0,0.0,0.0,0.0,0.0,0.0,0.0,0.0,0.0,0.0,0.0,0.0,0.0,0.0,0.0,0.0,0.0,0.0,0.0,0.0,0.0,0.0,1.8169,1.7973,1.753,1.7394,0.0,0.0,0.0,0.0,0.0,0.0,0.0,0.0,0.0,0.0,0.0,0.0,0.0,0.0,0.0,0.0,0.0,0.0,0.0,0.0,0.0,0.0,0.0,0.0,0.0,0.0,0.0,0.0,0.0,0.0,0.0,0.0,0.0,0.0,0.0,0.0,0.0,0.0,0.0,0.0,0.0,0.0,0.0,0.0,0.0,0.0,0.0,0.0,0.0,0.0,0.0,0.0,0.0,0.0,0.0,0.0,0.0,0.0,0.0,0.0,0.0,0.0,0.0,0.0,0.0,0.0,0.0,0.0,0.0,0.0,0.0,0.0,0.0,0.0,0.0,0.0,0.0,0.0,0.0,0.0,0.0,0.0,0.0,0.0,0.0,0.0,0.0,0.0,0.0,0.0,0.0,0.0,0.0,0.0,0.0,0.0,0.0,0.0,0.0,0.0,0.0,0.0,0.0,0.0,0.0,0.0,0.0,0.0,0.0,0.0,1.8818,1.864,1.8526,1.796,1.78,1.8084,0.0,0.0,0.0,0.0,0.0,0.0,0.0,0.0,0.0,0.0,0.0,0.0,0.0,0.0,0.0,0.0,0.0,0.0,0.0,0.0,0.0,0.0,0.0,0.0,0.0,0.0,0.0,0.0,0.0,0.0,0.0,0.0,0.0,0.0,0.0,0.0,0.0,0.0,0.0,0.0,0.0,0.0,0.0,0.0,0.0,0.0,0.0,0.0,0.0,0.0,0.0,0.0,0.0,0.0,0.0,0.0,0.0,0.0,0.0,0.0,0.0,0.0,0.0,0.0,0.0,0.0,0.0,0.0,0.0,0.0,0.0,0.0,0.0,0.0,0.0,0.0,0.0,0.0,0.0,0.0,0.0,0.0,0.0,0.0,0.0,0.0,0.0,0.0,0.0,0.0,0.0,0.0,0.0,0.0,0.0,0.0,0.0,0.0,0.0,0.0,0.0,0.0,0.0,0.0,0.0,0.0,0.0,0.0,1.8798,1.8617,1.8546,1.8574,1.826,1.8083,0.0,0.0,0.0,0.0,0.0,0.0,0.0,0.0,0.0,0.0,0.0,0.0,0.0,0.0,0.0,0.0,0.0,0.0,0.0,0.0,0.0,0.0,0.0,0.0,0.0,0.0,0.0,0.0,0.0,0.0,0.0,0.0,0.0,0.0,0.0,0.0,0.0,0.0,0.0,0.0,0.0,0.0,0.0,0.0,0.0,0.0,0.0,0.0,0.0,0.0,0.0,0.0,0.0,0.0,0.0,0.0,0.0,0.0,0.0,0.0,0.0,0.0,0.0,0.0,0.0,0.0,0.0,0.0,0.0,0.0,0.0,0.0,0.0,0.0,0.0,0.0,0.0,0.0,0.0,0.0,0.0,0.0,0.0,0.0,0.0,0.0,0.0,0.0,0.0,0.0,0.0,0.0,0.0,0.0,0.0,0.0,0.0,0.0,0.0,0.0,0.0,0.0,0.0,0.0,0.0,0.0,0.0,0.0,0.0,1.86,1.8465,1.8443,1.8578,1.8031,1.7819,0.0,0.0,0.0,0.0,0.0,0.0,0.0,0.0,0.0,0.0,0.0,0.0,0.0,0.0,0.0,0.0,0.0,0.0,0.0,0.0,0.0,0.0,0.0,0.0,0.0,0.0,0.0,0.0,0.0,0.0,0.0,0.0,0.0,0.0,0.0,0.0,0.0,0.0,0.0,0.0,0.0,0.0,0.0,0.0,0.0,0.0,0.0,0.0,0.0,0.0,0.0,0.0,0.0,0.0,0.0,0.0,0.0,0.0,0.0,0.0,0.0,0.0,0.0,0.0,0.0,0.0,0.0,0.0,0.0,0.0,0.0,0.0,0.0,0.0,0.0,0.0,0.0,0.0,0.0,0.0,0.0,0.0,0.0,0.0,0.0,0.0,0.0,0.0,0.0,0.0,0.0,0.0,0.0,0.0,0.0,0.0,0.0,0.0,0.0,0.0,0.0,0.0,0.0,0.0,0.0,0.0,0.0,0.0,0.0,1.8854,0.0,1.8858,1.8897,1.8397,1.8181,0.0,0.0,0.0,0.0,0.0,0.0,0.0,0.0,0.0,0.0,0.0,0.0,0.0,0.0,0.0,0.0,0.0,0.0,0.0,0.0,0.0,0.0,0.0,0.0,0.0,0.0,0.0,0.0,0.0,0.0,0.0,0.0,0.0,0.0,0.0,0.0,0.0,0.0,0.0,0.0,0.0,0.0,0.0,0.0,0.0,0.0,0.0,0.0,0.0,0.0,0.0,0.0,0.0,0.0,0.0,0.0,0.0,0.0,0.0,0.0,0.0,0.0,0.0,0.0,0.0,0.0,0.0,0.0,0.0,0.0,0.0,0.0,0.0,0.0,0.0,0.0,0.0,0.0,0.0,0.0,0.0,0.0,0.0,0.0,0.0,0.0,0.0,0.0,0.0,0.0,0.0,0.0,0.0,0.0,0.0,0.0,0.0,0.0,0.0,0.0,0.0,0.0,0.0,0.0,0.0,0.0,0.0,0.0,1.9753,1.9609,1.9761,1.9731,1.9601,1.9355,1.9165,0.0,0.0,0.0,0.0,0.0,0.0,0.0,0.0,0.0,0.0,0.0,0.0,0.0,0.0,0.0,0.0,0.0,0.0,0.0,0.0,0.0,0.0,0.0,0.0,0.0,0.0,0.0,0.0,0.0,0.0,0.0,0.0,0.0,0.0,0.0,0.0,0.0,0.0,0.0,0.0,0.0,0.0,0.0,0.0,0.0,0.0,0.0,0.0,0.0,0.0,0.0,0.0,0.0,0.0,0.0,0.0,0.0,0.0,0.0,0.0,0.0,0.0,0.0,0.0,0.0,0.0,0.0,0.0,0.0,0.0,0.0,0.0,0.0,0.0,0.0,0.0,0.0,0.0,0.0,0.0,0.0,0.0,0.0,0.0,0.0,0.0,0.0,0.0,0.0,0.0,0.0,0.0,0.0,0.0,0.0,0.0,0.0,0.0,0.0,0.0,0.0,0.0,0.0,0.0,0.0,0.0,0.0,0.0,0.0,1.984,1.9732,1.9677,1.9601,1.9278,1.8938,0.0,0.0,0.0,0.0,0.0,0.0,0.0,0.0,0.0,0.0,0.0,0.0,0.0,0.0,0.0,0.0,0.0,0.0,0.0,0.0,0.0,0.0,0.0,0.0,0.0,0.0,0.0,0.0,0.0,0.0,0.0,0.0,0.0,0.0,0.0,0.0,0.0,0.0,0.0,0.0,0.0,0.0,0.0,0.0,0.0,0.0,0.0,0.0,0.0,0.0,0.0,0.0,0.0,0.0,0.0,0.0,0.0,0.0,0.0,0.0,0.0,0.0,0.0,0.0,0.0,0.0,0.0,0.0,0.0,0.0,0.0,0.0,0.0,0.0,0.0,0.0,0.0,0.0,0.0,0.0,0.0,0.0,0.0,0.0,0.0,0.0,0.0,0.0,0.0,0.0,0.0,0.0,0.0,0.0,0.0,0.0,0.0,0.0,0.0,0.0,0.0,0.0,0.0,0.0,0.0,0.0,0.0,0.0,0.0,2.1672,2.1185,2.0869,2.074,2.0362,1.9766,1.8938,0.0,0.0,0.0,0.0,0.0,0.0,0.0,0.0,0.0,0.0,0.0,0.0,0.0,0.0,0.0,0.0,0.0,0.0,0.0,0.0,0.0,0.0,0.0,0.0,0.0,0.0,0.0,0.0,0.0,0.0,0.0,0.0,0.0,0.0,0.0,0.0,0.0,0.0,0.0,0.0,0.0,0.0,0.0,0.0,0.0,0.0,0.0,0.0,0.0,0.0,0.0,0.0,0.0,0.0,0.0,0.0,0.0,0.0,0.0,0.0,0.0,0.0,0.0,0.0,0.0,0.0,0.0,0.0,0.0,0.0,0.0,0.0,0.0,0.0,0.0,0.0,0.0,0.0,0.0,0.0,0.0,0.0,0.0,0.0,0.0,0.0,0.0,0.0,0.0,0.0,0.0,0.0,0.0,0.0,0.0,0.0,0.0,0.0,0.0,0.0,0.0,0.0,0.0,0.0,0.0,0.0,0.0,0.0,2.466,2.3789,2.3117,2.275,2.2246,2.1346,0.0,0.0,0.0,0.0,0.0,0.0,0.0,0.0,0.0,0.0,0.0,0.0,0.0,0.0,0.0,0.0,0.0,0.0,0.0,0.0,0.0,0.0,0.0,0.0,0.0,0.0,0.0,0.0,0.0,0.0,0.0,0.0,0.0,0.0,0.0,0.0,0.0,0.0,0.0,0.0,0.0,0.0,0.0,0.0,0.0,0.0,0.0,0.0,0.0,0.0,0.0,0.0,0.0,0.0,0.0,0.0,0.0,0.0,0.0,0.0,0.0,0.0,0.0,0.0,0.0,0.0,0.0,0.0,0.0,0.0,0.0,0.0,0.0,0.0,0.0,0.0,0.0,0.0,0.0,0.0,0.0,0.0,0.0,0.0,0.0,0.0,0.0,0.0,0.0,0.0,0.0,0.0,0.0,0.0,0.0,0.0,0.0,0.0,0.0,0.0,0.0,0.0,0.0,0.0,0.0,0.0,0.0,0.0,0.0,2.4215,2.5305,2.5132,2.3545,2.1972,2.0691,0.0,0.0,0.0,0.0,0.0,0.0,0.0,0.0,0.0,0.0,0.0,0.0,0.0,0.0,0.0,0.0,0.0,0.0,0.0,0.0,0.0,0.0,0.0,0.0,0.0,0.0,0.0,0.0,0.0,0.0,0.0,0.0,0.0,0.0,0.0,0.0,0.0,0.0,0.0,0.0,0.0,0.0,0.0,0.0,0.0,0.0,0.0,0.0,0.0,0.0,0.0,0.0,0.0,0.0,0.0,0.0,0.0,0.0,0.0,0.0,0.0,0.0,0.0,0.0,0.0,0.0,0.0,0.0,0.0,0.0,0.0,0.0,0.0,0.0,0.0,0.0,0.0,0.0,0.0,0.0,0.0,0.0,0.0,0.0,0.0,0.0,0.0,0.0,0.0,0.0,0.0,0.0,0.0,0.0,0.0,0.0,0.0,0.0,0.0,0.0,0.0,0.0,0.0,0.0,0.0,0.0,0.0,0.0,2.4648,2.4917,2.5783,2.5613,2.4372,2.2689,2.1192,0.0,0.0,0.0,0.0,0.0,0.0,0.0,0.0,0.0,0.0,0.0,0.0,0.0,0.0,0.0,0.0,0.0,0.0,0.0,0.0,0.0,0.0,0.0,0.0,0.0,0.0,0.0,0.0,0.0,0.0,0.0,0.0,0.0,0.0,0.0,0.0,0.0,0.0,0.0,0.0,0.0,0.0,0.0,0.0,0.0,0.0,0.0,0.0,0.0,0.0,0.0,0.0,0.0,0.0,0.0,0.0,0.0,0.0,0.0,0.0,0.0,0.0,0.0,0.0,0.0,0.0,0.0,0.0,0.0,0.0,0.0,0.0,0.0,0.0,0.0,0.0,0.0,0.0,0.0,0.0,0.0,0.0,0.0,0.0,0.0,0.0,0.0,0.0,0.0,0.0,0.0,0.0,0.0,0.0,0.0,0.0,0.0,0.0,0.0,0.0,0.0,0.0,0.0,0.0,0.0,0.0,0.0,0.0,2.5,2.5927,2.5691,2.5345,2.493,2.3659,2.222,0.0,0.0,0.0,0.0,0.0,0.0,0.0,0.0,0.0,0.0,0.0,0.0,0.0,0.0,0.0,0.0,0.0,0.0,0.0,0.0,0.0,0.0,0.0,0.0,0.0,0.0,0.0,0.0,0.0,0.0,0.0,0.0,0.0,0.0,0.0,0.0,0.0,0.0,0.0,0.0,0.0,0.0,0.0,0.0,0.0,0.0,0.0,0.0,0.0,0.0,0.0,0.0,0.0,0.0,0.0,0.0,0.0,0.0,0.0,0.0,0.0,0.0,0.0,0.0,0.0,0.0,0.0,0.0,0.0,0.0,0.0,0.0,0.0,0.0,0.0,0.0,0.0,0.0,0.0,0.0,0.0,0.0,0.0,0.0,0.0,0.0,0.0,0.0,0.0,0.0,0.0,0.0,0.0,0.0,0.0,0.0,0.0,0.0,0.0,0.0,0.0,0.0,0.0,0.0,0.0,0.0,0.0,0.0,2.5609,2.4588,2.6082,2.5989,2.4106,2.2871,2.1788,0.0,0.0,0.0,0.0,0.0,0.0,0.0,0.0,0.0,0.0,0.0,0.0,0.0,0.0,0.0,0.0,0.0,0.0,0.0,0.0,0.0,0.0,0.0,0.0,0.0,0.0,0.0,0.0,0.0,0.0,0.0,0.0,0.0,0.0,0.0,0.0,0.0,0.0,0.0,0.0,0.0,0.0,0.0,0.0,0.0,0.0,0.0,0.0,2.0014,0.0,0.0,0.0,0.0,0.0,0.0,0.0,0.0,0.0,0.0,0.0,0.0,0.0,0.0,0.0,0.0,0.0,0.0,0.0,0.0,0.0,0.0,0.0,0.0,0.0,0.0,0.0,0.0,0.0,0.0,0.0,0.0,0.0,0.0,0.0,0.0,0.0,0.0,0.0,0.0,0.0,0.0,0.0,0.0,0.0,0.0,0.0,0.0,0.0,0.0,0.0,0.0,0.0,0.0,0.0,0.0,0.0,0.0,0.0,2.5201,2.4847,2.5888,2.5727,2.4227,2.3324,2.2355,0.0,0.0,0.0,0.0,0.0,0.0,0.0,0.0,0.0,0.0,0.0,0.0,0.0,0.0,0.0,0.0,0.0,0.0,0.0,0.0,0.0,0.0,0.0,0.0,0.0,0.0,0.0,0.0,0.0,0.0,0.0,0.0,0.0,0.0,0.0,0.0,0.0,0.0,0.0,0.0,0.0,0.0,0.0,0.0,0.0,0.0,0.0,0.0,0.0,0.0,0.0,0.0,0.0,0.0,0.0,0.0,0.0,0.0,0.0,0.0,0.0,0.0,0.0,0.0,0.0,0.0,0.0,0.0,0.0,0.0,0.0,0.0,0.0,0.0,0.0,0.0,0.0,0.0,0.0,0.0,0.0,0.0,0.0,0.0,0.0,0.0,0.0,0.0,0.0,0.0,0.0,0.0,0.0,0.0,0.0,0.0,0.0,0.0,0.0,0.0,0.0,0.0,0.0,0.0,0.0,0.0,0.0,2.4153,2.4728,2.5542,2.5626,2.5358,2.4746,2.4196,2.3226,2.1846,0.0,0.0,0.0,0.0,0.0,0.0,0.0,0.0,0.0,0.0,0.0,0.0,0.0,0.0,0.0,0.0,0.0,0.0,0.0,0.0,0.0,0.0,0.0,0.0,0.0,0.0,0.0,0.0,0.0,0.0,0.0,0.0,0.0,0.0,0.0,0.0,0.0,0.0,2.0214,2.0393,0.0,0.0,0.0,0.0,0.0,0.0,0.0,0.0,2.1107,0.0,0.0,0.0,0.0,0.0,0.0,0.0,0.0,0.0,0.0,0.0,0.0,0.0,0.0,0.0,0.0,0.0,0.0,0.0,0.0,0.0,0.0,0.0,0.0,0.0,0.0,0.0,0.0,0.0,0.0,0.0,0.0,0.0,0.0,0.0,0.0,0.0,0.0,0.0,0.0,0.0,0.0,0.0,0.0,0.0,0.0,0.0,0.0,0.0,0.0,0.0,0.0,0.0,0.0,0.0,0.0,2.3488,2.4779,2.5462,2.5515,2.5996,2.5959,2.5371,2.4602,2.3624,2.2324,0.0,0.0,0.0,0.0,0.0,0.0,0.0,0.0,0.0,0.0,0.0,0.0,0.0,0.0,0.0,0.0,0.0,0.0,0.0,0.0,0.0,0.0,0.0,0.0,0.0,0.0,0.0,0.0,0.0,0.0,0.0,0.0,0.0,0.0,0.0,0.0,0.0,0.0,0.0,2.1056,2.0903,0.0,0.0,0.0,0.0,0.0,0.0,0.0,0.0,2.1823,0.0,0.0,0.0,0.0,0.0,0.0,0.0,0.0,0.0,0.0,0.0,0.0,0.0,0.0,0.0,0.0,0.0,0.0,0.0,0.0,0.0,0.0,0.0,0.0,0.0,0.0,0.0,0.0,0.0,0.0,0.0,0.0,0.0,0.0,0.0,0.0,0.0,0.0,0.0,0.0,0.0,0.0,0.0,0.0,0.0,0.0,0.0,0.0,0.0,0.0,0.0,0.0,0.0,0.0,0.0,2.4226,2.4994,2.5573,2.5944,2.6239,2.6039,2.5291,2.4616,2.3495,0.0,0.0,0.0,0.0,0.0,0.0,0.0,0.0,0.0,0.0,0.0,0.0,0.0,0.0,0.0,0.0,0.0,0.0,0.0,0.0,0.0,0.0,0.0,0.0,0.0,0.0,0.0,0.0,0.0,0.0,0.0,0.0,0.0,0.0,0.0,0.0,0.0,0.0,0.0,0.0,2.2232,2.2303,2.3171,0.0,0.0,0.0,0.0,0.0,0.0,2.2684,2.2564,0.0,0.0,0.0,0.0,0.0,0.0,0.0,0.0,0.0,0.0,0.0,0.0,0.0,0.0,0.0,0.0,0.0,0.0,0.0,0.0,0.0,0.0,0.0,0.0,0.0,0.0,0.0,0.0,0.0,0.0,0.0,0.0,0.0,0.0,0.0,0.0,0.0,0.0,0.0,0.0,0.0,0.0,0.0,0.0,0.0,0.0,0.0,0.0,0.0,0.0,0.0,0.0,0.0,0.0,0.0,2.4877,2.5115,2.5591,2.6359,2.6333,2.5919,2.5128,2.4462,2.3303,0.0,0.0,0.0,0.0,0.0,0.0,0.0,0.0,0.0,0.0,0.0,0.0,0.0,0.0,0.0,0.0,0.0,0.0,0.0,0.0,0.0,0.0,0.0,0.0,0.0,0.0,0.0,0.0,0.0,0.0,0.0,0.0,0.0,0.0,0.0,0.0,0.0,0.0,0.0,0.0,0.0,2.3804,2.4476,2.4269,0.0,0.0,0.0,0.0,2.3082,2.3136,0.0,0.0,0.0,0.0,0.0,0.0,0.0,0.0,0.0,0.0,0.0,0.0,0.0,0.0,0.0,0.0,0.0,0.0,0.0,0.0,0.0,0.0,0.0,0.0,0.0,0.0,0.0,0.0,0.0,0.0,0.0,0.0,0.0,0.0,0.0,0.0,0.0,0.0,0.0,0.0,0.0,0.0,0.0,0.0,0.0,0.0,0.0,0.0,0.0,0.0,0.0,0.0,0.0,0.0,0.0,0.0,2.4628,2.5257,2.5811,2.6346,2.6185,2.5743,2.5115,2.4282,2.3123,0.0,0.0,0.0,0.0,0.0,0.0,0.0,0.0,0.0,0.0,0.0,0.0,0.0,0.0,0.0,0.0,0.0,0.0,0.0,0.0,0.0,0.0,0.0,0.0,0.0,0.0,0.0,0.0,0.0,0.0,0.0,0.0,0.0,0.0,0.0,0.0,0.0,0.0,0.0,0.0,0.0,2.4443,2.5333,2.4721,2.4134,0.0,0.0,0.0,2.3427,2.3171,0.0,0.0,0.0,0.0,0.0,0.0,0.0,0.0,0.0,0.0,0.0,0.0,0.0,0.0,0.0,0.0,0.0,0.0,0.0,0.0,0.0,0.0,0.0,0.0,0.0,0.0,0.0,0.0,0.0,0.0,0.0,0.0,0.0,0.0,0.0,0.0,0.0,0.0,0.0,0.0,0.0,0.0,0.0,0.0,0.0,0.0,0.0,0.0,0.0,0.0,0.0,0.0,0.0,0.0,0.0,2.4094,2.5183,2.5425,2.5812,2.6386,2.6145,2.5717,2.5128,2.4249,2.3073,0.0,0.0,0.0,0.0,0.0,0.0,0.0,0.0,0.0,0.0,0.0,0.0,0.0,0.0,0.0,0.0,0.0,0.0,0.0,0.0,0.0,0.0,0.0,0.0,0.0,0.0,0.0,0.0,0.0,0.0,0.0,0.0,0.0,0.0,0.0,0.0,0.0,0.0,0.0,0.0,0.0,0.0,2.5034,2.5498,0.0,0.0,0.0,2.3854,2.3634,0.0,0.0,0.0,0.0,0.0,0.0,0.0,0.0,0.0,0.0,0.0,0.0,0.0,0.0,0.0,0.0,0.0,0.0,0.0,0.0,0.0,0.0,0.0,0.0,0.0,0.0,0.0,0.0,0.0,0.0,0.0,0.0,0.0,0.0,0.0,0.0,0.0,0.0,0.0,0.0,0.0,0.0,0.0,0.0,0.0,0.0,0.0,0.0,0.0,0.0,0.0,0.0,0.0,0.0,0.0,0.0,0.0,2.5672,2.5575,2.5838,2.6453,2.6185,2.5717,2.5115,2.4246,0.0,0.0,0.0,0.0,0.0,0.0,0.0,0.0,0.0,0.0,0.0,0.0,0.0,0.0,0.0,0.0,0.0,0.0,0.0,0.0,0.0,0.0,0.0,0.0,0.0,0.0,0.0,1.9487,0.0,0.0,0.0,0.0,0.0,0.0,0.0,0.0,0.0,0.0,0.0,0.0,0.0,0.0,2.572,2.4762,2.5839,2.6213,0.0,0.0,2.3901,2.347,2.3105,2.258,0.0,0.0,0.0,0.0,0.0,0.0,0.0,0.0,0.0,0.0,0.0,0.0,0.0,0.0,0.0,0.0,0.0,0.0,0.0,0.0,0.0,0.0,0.0,0.0,0.0,0.0,0.0,0.0,0.0,0.0,0.0,0.0,0.0,0.0,0.0,0.0,0.0,0.0,0.0,0.0,0.0,0.0,0.0,0.0,0.0,0.0,0.0,0.0,0.0,0.0,0.0,0.0,0.0,0.0,0.0,2.5629,2.5574,2.5893,2.6694,2.6279,2.5717,2.5115,2.4237,2.3335,0.0,0.0,0.0,0.0,0.0,0.0,0.0,0.0,0.0,0.0,0.0,0.0,0.0,0.0,0.0,0.0,0.0,0.0,0.0,0.0,0.0,0.0,0.0,0.0,0.0,0.0,0.0,0.0,0.0,0.0,0.0,0.0,0.0,0.0,0.0,0.0,0.0,0.0,0.0,0.0,0.0,2.4887,2.5032,2.5277,2.5378,0.0,0.0,2.2896,2.2635,2.2339,2.1728,2.0544,0.0,0.0,0.0,0.0,0.0,0.0,0.0,0.0,0.0,0.0,0.0,0.0,0.0,0.0,0.0,0.0,0.0,0.0,0.0,0.0,0.0,0.0,0.0,0.0,0.0,0.0,0.0,0.0,0.0,0.0,0.0,0.0,0.0,0.0,0.0,0.0,0.0,0.0,0.0,0.0,0.0,0.0,0.0,0.0,0.0,0.0,0.0,0.0,0.0,0.0,0.0,0.0,0.0,2.4627,2.5961,2.567,2.5945,2.672,2.6253,2.5797,2.5358,2.4535,2.3667,0.0,0.0,0.0,0.0,0.0,0.0,0.0,0.0,0.0,0.0,0.0,0.0,0.0,0.0,0.0,0.0,0.0,0.0,0.0,0.0,0.0,0.0,0.0,0.0,0.0,0.0,0.0,0.0,2.111,2.087,2.0275,0.0,0.0,0.0,0.0,0.0,0.0,0.0,0.0,0.0,0.0,2.5033,2.4669,2.5247,0.0,0.0,2.3677,2.3053,2.2839,2.2236,2.161,2.108,2.0657,0.0,0.0,0.0,0.0,0.0,0.0,0.0,0.0,0.0,0.0,0.0,0.0,0.0,0.0,0.0,0.0,0.0,0.0,0.0,0.0,0.0,0.0,0.0,0.0,0.0,0.0,0.0,0.0,0.0,0.0,0.0,0.0,0.0,0.0,0.0,0.0,0.0,0.0,0.0,0.0,0.0,0.0,0.0,0.0,0.0,0.0,0.0,0.0,0.0,0.0,0.0,0.0,2.4986,2.6315,2.5913,2.6026,2.6814,2.6346,2.5984,2.5638,2.4935,2.4208,0.0,0.0,0.0,0.0,0.0,0.0,0.0,0.0,0.0,0.0,0.0,0.0,0.0,0.0,0.0,0.0,0.0,0.0,0.0,0.0,0.0,0.0,0.0,0.0,0.0,0.0,0.0,0.0,2.1153,2.0848,2.0327,0.0,0.0,0.0,0.0,0.0,0.0,0.0,0.0,0.0,0.0,2.4705,2.4266,2.4859,2.4937,2.3857,2.3331,2.2976,2.2852,2.2049,2.1434,2.1259,0.0,0.0,0.0,0.0,0.0,0.0,0.0,0.0,0.0,0.0,0.0,0.0,0.0,0.0,0.0,0.0,0.0,0.0,0.0,0.0,0.0,0.0,0.0,0.0,0.0,0.0,0.0,0.0,0.0,0.0,0.0,0.0,0.0,0.0,0.0,0.0,0.0,0.0,0.0,0.0,0.0,0.0,0.0,0.0,0.0,0.0,0.0,0.0,0.0,0.0,0.0,0.0,0.0,0.0,2.6656,2.624,2.6279,2.6814,2.6533,2.6253,2.5984,2.5396,2.4966,2.4711,0.0,0.0,0.0,0.0,0.0,0.0,0.0,0.0,0.0,0.0,0.0,0.0,0.0,0.0,0.0,0.0,0.0,0.0,0.0,0.0,0.0,0.0,0.0,0.0,0.0,0.0,2.0305,1.9617,1.936,0.0,0.0,0.0,0.0,0.0,0.0,0.0,0.0,0.0,0.0,2.3367,2.3507,2.3862,2.3908,2.3761,2.3405,2.2883,2.2495,2.2432,2.1697,2.1016,0.0,0.0,0.0,0.0,0.0,0.0,0.0,0.0,0.0,0.0,0.0,0.0,0.0,0.0,0.0,0.0,0.0,0.0,0.0,0.0,0.0,0.0,0.0,0.0,0.0,0.0,0.0,2.3538,2.3536,0.0,0.0,0.0,0.0,0.0,0.0,0.0,0.0,0.0,0.0,0.0,2.6481,2.5632,0.0,0.0,0.0,0.0,0.0,0.0,0.0,0.0,0.0,0.0,0.0,0.0,2.5879,2.6975,2.6518,2.6653,2.7362,2.7121,2.6774,2.6253,2.5665,2.502,2.4221,0.0,0.0,0.0,0.0,0.0,0.0,0.0,0.0,0.0,0.0,0.0,0.0,0.0,0.0,0.0,0.0,0.0,0.0,0.0,0.0,0.0,0.0,0.0,0.0,0.0,2.1096,0.0,0.0,0.0,0.0,0.0,0.0,0.0,0.0,0.0,0.0,0.0,2.2319,2.3218,2.3139,2.3229,2.3752,2.3625,2.3499,0.0,0.0,0.0,0.0,0.0,0.0,0.0,0.0,0.0,0.0,0.0,0.0,0.0,0.0,2.1605,2.0598,2.0286,2.0203,2.0415,0.0,0.0,0.0,0.0,0.0,0.0,0.0,0.0,0.0,0.0,0.0,0.0,0.0,0.0,0.0,0.0,2.5312,0.0,0.0,0.0,0.0,0.0,0.0,0.0,0.0,2.7126,2.7357,2.7342,2.6504,2.603,0.0,2.6408,2.6512,0.0,0.0,0.0,0.0,0.0,0.0,0.0,0.0,2.642,2.7173,2.6891,2.6974,2.7509,2.7403,2.7068,2.6547,2.5888,2.517,2.4392,2.4121,2.3793,0.0,0.0,0.0,0.0,0.0,0.0,0.0,0.0,0.0,0.0,0.0,0.0,0.0,0.0,0.0,0.0,0.0,0.0,0.0,0.0,0.0,0.0,0.0,2.094,0.0,0.0,0.0,0.0,0.0,0.0,0.0,0.0,0.0,2.1656,2.2137,2.2642,2.3194,2.3419,2.3445,2.3394,0.0,0.0,0.0,0.0,0.0,0.0,0.0,2.1471,2.1628,2.1912,2.2291,2.2812,2.3023,2.3092,2.292,0.0,0.0,2.1477,2.1174,2.1197,2.1358,2.1646,2.2029,2.2619,2.2807,2.3025,0.0,0.0,0.0,0.0,0.0,0.0,0.0,0.0,2.7181,2.7207,0.0,2.7162,0.0,0.0,0.0,0.0,0.0,0.0,0.0,0.0,2.9513,3.0202,2.8123,2.8324,2.8506,2.8506,2.7897,2.7556,2.7428,2.6392,0.0,0.0,0.0,0.0,0.0,0.0,2.6801,2.7221,2.7293,2.7295,2.7376,2.7349,2.7148,2.6774,2.604,2.5493,2.5185,2.4703,2.4386,2.4299,2.3763,0.0,0.0,0.0,0.0,0.0,0.0,0.0,0.0,0.0,0.0,0.0,0.0,0.0,0.0,0.0,0.0,0.0,0.0,0.0,0.0,2.0296,0.0,0.0,0.0,0.0,0.0,0.0,0.0,0.0,0.0,0.0,2.2221,2.283,2.3309,2.3305,0.0,0.0,0.0,0.0,2.3665,2.2836,2.2398,2.2185,2.2246,2.2318,2.2471,2.2732,0.0,0.0,2.3857,2.391,2.395,2.391,2.4178,2.3919,2.2808,2.2815,2.2928,2.2981,2.3174,2.338,2.3447,2.3777,2.4058,3.0752,0.0,0.0,0.0,0.0,2.8652,2.9461,3.0713,3.0732,3.0508,3.0206,3.0206,0.0,0.0,0.0,0.0,0.0,0.0,2.7332,2.7681,2.8334,2.8627,2.8664,2.7997,2.7555,2.7332,2.7932,2.7626,2.6509,2.6881,2.6911,2.6568,0.0,0.0,0.0,0.0,2.7182,2.7675,2.7636,2.7789,2.8217,2.8045,2.759,2.68,2.6372,2.5853,2.523,2.5055,2.4791,2.44,2.4195,0.0,0.0,0.0,0.0,0.0,0.0,0.0,0.0,0.0,0.0,0.0,0.0,0.0,0.0,0.0,0.0,0.0,0.0,0.0,2.0855,2.0853,2.0656,0.0,0.0,0.0,0.0,0.0,0.0,0.0,0.0,0.0,2.4165,2.404,2.408,0.0,0.0,2.4053,2.3663,2.383,2.4048,2.422,0.0,0.0,0.0,2.3953,2.3862,2.4005,2.4865,2.5611,2.5905,2.6119,2.6238,2.5972,2.6225,2.6279,2.5941,2.4898,2.4239,2.4409,2.4676,2.5037,2.5424,2.5745,2.6012,3.3444,3.1596,3.0953,3.1025,3.1522,3.0583,3.1042,3.2397,3.1477,3.0874,3.0623,3.0724,2.9438,2.7142,2.6731,0.0,0.0,0.0,2.7734,2.8103,2.8557,2.8861,2.8943,2.8533,2.8217,2.8085,2.8731,2.8496,2.7389,2.7792,2.7926,2.7801,0.0,0.0,2.6974,2.7395,2.7748,2.8055,2.8161,2.8417,2.8721,2.8406,2.7871,2.7188,2.6667,2.6116,2.5537,2.5306,2.5055,2.4719,2.4521,2.4406,0.0,0.0,0.0,0.0,0.0,0.0,0.0,0.0,0.0,0.0,0.0,1.9358,0.0,0.0,0.0,0.0,2.0701,2.0923,2.143,2.1352,0.0,0.0,0.0,0.0,0.0,0.0,0.0,2.2993,2.4035,2.4943,2.5543,2.5398,2.5255,2.538,2.5238,2.4915,2.439,0.0,2.4893,2.5011,2.4894,2.4843,2.505,2.5101,2.5257,2.5766,2.6228,2.6717,2.7008,2.7083,2.7011,2.677,2.654,2.6301,2.6121,2.4959,2.4554,2.5832,2.6253,2.6507,2.6854,2.7134,2.7428,3.5043,3.459,3.3801,3.3821,3.4202,3.2002,3.1717,3.2652,3.0479,2.9484,2.9501,2.9759,2.9077,2.7671,2.6997,0.0,0.0,2.8373,2.8586,2.7551,2.9818,3.0223,2.9165,2.9668,2.998,2.994,2.9953,2.9806,2.9472,2.8965,2.8735,2.8751,2.7504,2.7007,2.7219,2.8028,2.84,2.8357,2.8789,2.8988,2.8948,2.847,2.8058,2.7669,2.6881,2.6346,2.5998,2.5523,2.5234,2.5198,2.4719,2.4885,2.5734,0.0,0.0,0.0,0.0,0.0,0.0,0.0,0.0,0.0,0.0,0.0,0.0,0.0,0.0,0.0,2.1555,0.0,2.2098,2.193,0.0,0.0,0.0,2.2265,2.334,2.3492,2.3839,2.4613,0.0,0.0,0.0,0.0,2.6438,2.5907,2.6265,2.6187,2.5137,2.5364,2.566,2.5185,2.5042,2.4962,2.4805,2.5169,2.5703,2.6482,2.6829,2.6457,2.663,2.6438,2.6281,2.6085,2.5392,2.4537,2.4124,2.3534,2.3918,2.6512,2.7234,2.7456,2.7649,2.789,2.8101,3.4405,3.4315,3.4086,3.3313,3.2123,3.1549,3.1689,3.2217,3.1688,3.1232,3.0913,3.1251,3.0369,2.8601,2.7813,2.7418,2.7487,2.8782,2.9254,2.9035,3.0019,3.0371,3.0105,3.0408,3.0461,3.0306,3.0261,3.01,2.982,2.9673,2.961,2.9605,2.9289,2.8776,2.8056,2.8428,2.8696,2.884,2.8938,2.8881,2.8724,2.8564,2.8136,2.7429,2.7215,2.6747,2.6024,2.5888,2.5634,2.523,2.5065,2.4911,2.4694,2.3749,0.0,0.0,0.0,0.0,0.0,0.0,0.0,0.0,0.0,1.9762,2.0072,0.0,2.0904,0.0,2.2834,2.3308,2.334,2.3322,0.0,0.0,2.3714,2.4102,2.4609,2.5251,2.5665,2.5677,2.6386,2.7028,2.7348,2.6341,2.5706,2.594,2.5184,2.5034,2.6244,2.414,2.3163,2.458,2.4074,2.3266,2.314,2.2891,2.2934,2.3075,2.3052,2.2986,2.304,2.2962,2.2918,2.2874,2.2696,2.2491,2.2557,2.2282,2.232,2.3344,2.4755,2.6438,2.7806,2.7901,2.7731,3.3809,3.3698,3.2743,3.1741,3.0747,3.1145,3.1771,3.2346,3.1283,3.0766,3.0671,3.0758,3.0299,2.9369,2.8883,2.8751,2.8938,2.961,2.994,3.0087,3.0541,3.0742,3.0755,3.1049,3.1149,3.0988,3.0988,3.0841,3.0515,3.0455,3.0434,3.0314,3.0301,2.999,2.9417,2.9417,2.9518,2.9619,2.9633,2.9486,2.9192,2.8895,2.8377,2.7495,2.7201,2.6653,2.5837,2.5504,2.5203,2.4769,2.4666,2.477,2.5018,2.3907,2.3223,0.0,0.0,0.0,0.0,0.0,0.0,0.0,0.0,0.0,0.0,0.0,2.1937,0.0,2.3915,0.0,2.4529,2.4556,2.4649,2.4954,2.5224,2.5638,2.6186,2.601,2.587,2.5885,2.5632,2.5568,2.5737,2.4933,2.4442,2.483,2.325,2.2815,2.4711,2.3453,2.263,2.3622,2.3128,2.2454,2.2145,2.1888,2.173,2.182,2.1716,2.1621,2.171,2.1559,2.1433,2.1387,2.0879,2.0408,2.0336,1.9824,1.9697,2.0619,2.1647,2.3173,2.5121,2.5494,2.542,3.2998,3.2704,3.097,3.0119,3.0142,3.0852,3.1729,3.2385,3.0223,2.9501,2.9842,2.9716,2.9833,3.014,3.014,3.0301,3.0627,3.0627,3.0788,3.1022,3.1236,3.1296,3.1343,3.1597,3.1778,3.1764,3.1818,3.165,3.1396,3.1356,3.1209,3.0969,3.0915,3.0902,3.0889,3.0734,3.0587,3.052,3.048,3.0306,2.9927,2.9295,2.8561,2.7736,2.7134,2.6387,2.5611,2.4999,2.4559,2.4262,2.4151,2.4589,2.5706,2.4175,2.3738,0.0,2.3293,0.0,0.0,0.0,0.0,0.0,0.0,0.0,0.0,2.2926,2.334,2.4449,2.4997,2.5438,2.5758,2.5825,2.5935,2.6188,2.632,2.6595,2.7009,2.5781,2.4992,2.5295,2.4008,2.3102,2.3306,2.2986,2.2785,2.2701,2.0908,2.0206,2.1891,2.2134,2.1884,2.1979,2.1756,2.0942,2.0717,2.0689,2.0701,2.0943,2.0581,2.0702,2.0667,2.0437,2.027,2.0131,1.9141,1.8267,1.7825,1.7079,1.7032,1.8166,1.8507,1.9439,2.166,2.2561,2.248,3.1286,3.1204,3.0829,3.0761,3.0955,3.1129,3.0908,3.0438,2.9953,3.0101,3.0585,3.056,3.0881,3.133,3.1343,3.1503,3.177,3.177,3.1931,3.226,3.2024,3.1931,3.1944,3.1998,3.2024,3.2038,3.2313,3.2393,3.234,3.2051,3.1904,3.1851,3.1623,3.155,3.1517,0.0,0.0,0.0,3.0835,3.0448,2.9927,2.9295,2.8617,2.7722,2.708,0.0,2.5944,2.5531,2.5104,2.4559,2.475,0.0,0.0,0.0,0.0,0.0,0.0,0.0,0.0,0.0,0.0,0.0,2.4753,2.4446,2.4022,2.4807,2.5571,2.6253,2.6426,2.6707,2.7228,2.755,2.7101,2.5642,2.5866,2.5663,2.4407,2.3551,2.3176,2.3388,2.2779,2.2353,2.2322,2.1223,2.0351,2.0405,1.8836,1.7836,1.8239,1.8157,1.8367,1.961,1.8648,1.7274,1.7041,1.6848,1.6902,1.6474,1.6427,1.6543,1.6673,1.6587,1.6393,1.6494,1.6065,1.5931,1.5791,1.5603,1.5664,1.5877,1.6024,1.7239,2.0981,2.1609,2.1436,3.153,0.0,3.1503,3.169,0.0,3.1944,3.1704,3.141,3.1116,3.1249,3.1698,3.1711,3.1872,3.2152,3.2152,3.2152,3.2118,3.2251,3.2367,3.238,3.2318,3.2367,3.2318,3.2318,3.2318,3.2367,3.2527,3.2594,3.2581,3.2433,3.2367,3.2367,3.2024,3.1877,3.1891,3.2024,3.2024,3.1877,3.1583,3.1089,3.0368,2.9913,2.9125,2.8005,0.0,0.0,0.0,0.0,0.0,0.0,0.0,0.0,0.0,0.0,0.0,2.5088,2.5117,2.5208,2.5302,2.5545,2.6026,2.6747,2.6262,2.5831,2.5483,2.5553,2.5757,2.612,2.5432,2.5141,2.5643,2.5635,2.5178,2.4218,2.4262,2.3994,2.3096,2.201,2.1459,2.1405,2.0436,1.9737,1.9928,1.9098,1.8455,1.8528,1.7591,1.6746,1.6773,1.6781,1.7168,1.7892,1.6872,1.5792,1.5745,1.5595,1.5404,1.5404,1.5404,1.5411,1.5411,1.5411,1.5411,1.5404,1.5411,1.5404,1.5398,1.535,1.5316,1.5384,1.5411,1.599,1.8348,1.8488,1.8257,3.238,3.2581,3.2345,3.2559,3.304,3.2902,3.2995,3.316,0.0,0.0,0.0,3.2674,3.2701,3.2741,3.2701,3.2519,3.2358,3.2581,3.2567,3.2345,3.2581,3.2661,3.2674,3.2674,3.2674,3.2674,3.2728,3.2755,3.2741,3.2701,3.2674,3.2648,3.2332,3.2185,3.2171,3.2185,3.2291,3.2567,3.2251,3.173,3.0969,3.06,2.9771,2.8446,2.8031,2.7322,2.6265,2.5905,2.5478,2.4917,2.5157,2.5369,2.5398,2.5718,2.6052,2.6426,2.6506,2.6573,2.671,2.6889,2.7045,2.7217,2.6343,2.5862,2.6058,2.5307,2.485,2.4963,2.3719,2.3112,2.3532,2.3236,2.281,2.2456,2.231,2.2119,2.1612,2.0425,1.9491,1.9474,1.8099,1.7003,1.7341,1.716,1.6952,1.7033,1.6704,1.6341,1.6382,1.6575,1.6606,1.6421,1.598,1.5622,1.5587,1.5573,1.5587,1.556,1.5573,1.5587,1.5587,1.5587,1.5587,1.556,1.5587,1.5573,1.5573,1.5485,1.5451,1.5566,1.5492,1.5486,1.5546,1.554,1.5595,3.2567,3.2607,3.2822,3.304,3.3374,3.3601,3.3868,3.4042,3.3009,3.2701,3.2919,3.2969,3.3053,3.328,3.3026,3.3026,3.32,3.3062,3.3026,0.0,3.3013,3.2919,3.2919,3.2919,3.2969,3.2933,3.3173,3.3293,3.3267,3.304,3.2969,3.2929,3.2674,3.2527,3.2527,3.2541,3.2554,3.2581,3.2251,3.1917,3.1591,3.0814,3.0079,2.9312,2.8511,2.7817,2.7148,2.676,2.6373,2.585,2.6078,2.6319,2.6573,2.7013,2.7642,2.819,2.847,2.7961,2.6538,2.609,2.5113,2.3582,2.3432,2.3406,2.3215,2.3205,2.315,2.3,2.2671,2.2756,2.3055,2.3094,2.2316,2.0806,2.0664,2.0114,1.8487,1.77,1.7294,1.7449,1.6722,1.6264,1.6278,1.6271,1.6257,1.6195,1.6222,1.615,1.6151,1.5944,1.5801,1.5732,1.5635,1.5587,1.5621,1.5593,1.5614,1.5587,1.5607,1.5627,1.5627,1.5627,1.5627,1.56,1.5621,1.5614,1.5607,1.558,1.558,1.5614,1.5587,1.5622,1.5614,1.5587,1.5506,3.3507,3.3521,3.3654,3.3881,3.4162,3.4295,3.4336,3.4255,3.3587,3.3347,3.344,3.3293,3.3293,3.34,3.3267,3.32,3.3173,3.32,3.32,3.3173,3.32,3.3213,3.3213,3.3213,3.3213,3.3227,3.3347,3.3414,3.34,3.3267,3.3213,3.3187,3.2969,3.2755,3.2559,3.1408,3.0844,3.0893,3.1864,3.2179,3.1677,3.023,2.9061,2.8274,2.6819,2.5734,2.5138,2.4996,2.4705,2.4286,2.4533,2.4764,2.4894,2.5291,2.5713,2.6136,2.6267,2.5934,2.5076,2.4597,2.3484,2.148,2.1635,2.1141,1.9488,2.0597,2.1367,2.1288,2.0458,1.9875,2.0064,1.9964,1.9436,1.8493,1.8221,1.7727,1.6905,1.6524,1.6432,1.6521,1.6355,1.6178,1.611,1.6164,1.6144,1.6015,1.6049,1.6133,1.6133,1.5974,1.5872,1.5879,1.5879,1.5879,1.5872,1.5879,1.5879,1.5879,1.5879,1.5879,1.5879,1.5879,1.5872,1.5879,1.5879,1.5879,1.5872,1.5805,1.5798,1.5866,1.5805,1.5784,1.5839,1.5818,1.5703,3.4322,3.4322,3.4389,3.4589,3.4857,3.4909,3.4723,3.4496,3.4202,3.4042,3.3935,3.3587,3.3414,3.3414,3.3414,3.3293,3.3133,3.3307,3.3293,3.312,3.3307,3.3414,3.3314,3.2949,3.2939,3.3256,3.2538,3.2223,3.2639,3.2223,3.1983,3.1919,3.1715,3.1472,3.1204,2.9563,2.8708,2.8798,3.0342,3.0923,3.0373,2.874,2.7522,2.6678,2.5111,2.4013,2.3528,2.355,2.3398,2.3033,2.3332,2.349,2.3546,2.3846,2.4147,2.4407,2.4398,2.3924,2.3075,2.2374,2.1238,1.9465,1.9742,1.8986,1.7069,1.8231,1.9288,1.92,1.8105,1.7294,1.749,1.7178,1.6821,1.6778,1.6478,1.6335,1.6235,1.6185,1.6218,1.6334,1.6361,1.6354,1.6354,1.6361,1.6293,1.6171,1.6137,1.6123,1.6146,1.6103,1.6123,1.6139,1.6133,1.6112,1.6133,1.6119,1.6062,1.6133,1.6119,1.6098,1.6105,1.6119,1.6126,1.6105,1.6119,1.6056,1.6062,1.6037,1.601,1.6022,1.5967,1.5996,1.6029,1.5974,1.5908,3.4322,3.4362,3.4616,3.4897,3.5032,3.5098,3.5018,3.4899,3.4803,3.4523,3.3972,3.3617,3.3314,3.3414,3.3414,3.3337,3.326,3.335,3.3287,3.321,3.34,3.3364,3.3013,3.1391,3.1668,3.2976,2.9786,2.9055,3.0657,2.8849,2.7708,2.7509,2.7454,2.7446,2.7096,2.6967,2.6815,2.6609,2.675,2.671,2.6446,2.6009,2.5624,2.5198,2.4756,2.4369,2.3826,2.4211,2.408,2.3709,2.3836,2.4104,2.4229,2.4647,2.5045,2.5267,2.5124,2.3869,2.0979,1.892,1.7698,1.6944,1.7015,1.6942,1.6544,1.6734,1.6786,1.6797,1.6568,1.6515,1.6615,1.6564,1.6602,1.6588,1.65,1.6432,1.6463,1.6476,1.649,1.6497,1.6497,1.6497,1.649,1.6476,1.6422,1.6259,1.6232,1.6198,1.6117,1.6171,1.6198,1.616,1.6133,1.6133,1.6133,1.6133,1.6133,1.6133,1.6133,1.6133,1.6133,1.6133,1.6133,1.6133,1.6133,1.6133,1.6133,1.6112,1.6105,1.6112,1.6105,1.6105,1.6126,1.6105,1.603,3.4843,3.4857,3.4977,3.4281,3.3235,3.3142,3.2398,3.1124,3.0834,3.0657,3.0439,2.9943,3.1009,3.3364,3.3414,3.2749,3.1529,3.1479,3.076,2.9623,2.9584,2.9604,2.9542,2.8837,2.9026,2.993,2.8112,2.7747,2.8372,2.7695,2.7276,2.7191,2.718,2.7126,2.6896,2.5797,2.506,2.4852,2.3611,2.2809,2.2729,2.3624,2.4068,2.3799,2.2722,2.2013,2.1881,2.1854,2.1596,2.1098,2.1084,2.0954,2.069,2.0846,2.1018,2.1147,2.0763,1.9954,1.8643,1.7487,1.6728,1.6517,1.6554,1.6567,1.6537,1.6605,1.6581,1.652,1.6439,1.6463,1.6517,1.6524,1.6517,1.6517,1.6517,1.6524,1.6517,1.6524,1.6517,1.6524,1.6547,1.6567,1.653,1.6449,1.6341,1.6212,1.6178,1.6164,1.6096,1.6137,1.6144,1.6146,1.6133,1.6133,1.6133,1.6133,1.6133,1.6133,1.6133,1.6133,1.6133,1.6133,1.6133,1.6133,1.6133,1.6133,1.6133,1.6133,1.6133,1.6133,1.6133,1.6133,1.6133,1.6133,1.6092,3.4768,3.4214,3.3578,3.2704,3.1693,3.1041,2.9853,2.8393,2.807,2.7963,2.7866,2.747,2.89,3.1439,3.1643,3.0748,2.9393,2.9362,2.8518,2.7085,2.7025,2.7103,2.716,2.6494,2.6714,2.7229,2.6205,2.5623,2.5665,2.5648,2.5628,2.5628,2.5628,2.5628,2.548,2.3958,2.324,2.2998,2.147,2.0677,2.075,2.1865,2.2518,2.2235,2.0993,2.0171,1.9975,1.9894,1.9573,1.8952,1.887,1.8686,1.8231,1.8254,1.8277,1.81,1.7717,1.743,1.7282,1.6913,1.6686,1.6659,1.6702,1.6768,1.6693,1.6748,1.6809,1.675,1.6707,1.6653,1.6646,1.6646,1.6646,1.6646,1.6646,1.6646,1.6653,1.6646,1.6659,1.6659,1.6754,1.6702,1.6554,1.6469,1.6334,1.6198,1.6191,1.6178,1.6164,1.6185,1.6205,1.6157,1.6144,1.6123,1.6146,1.6133,1.6133,1.6133,1.6133,1.6133,1.6133,1.6133,1.6133,1.6133,1.6133,1.6133,1.6133,1.6133,1.6133,1.6133,1.6133,1.6133,1.6133,1.6133,1.6133,3.3909,3.1693,2.9543,2.9887,3.148,2.9339,2.8371,2.7843,2.8027,2.8006,2.7611,2.76,2.7715,2.7604,2.7358,2.7141,2.7071,2.7174,2.7064,2.6712,2.6954,2.728,2.7249,2.5312,2.543,2.6802,2.3673,2.1803,2.1641,2.1429,2.1169,2.1284,2.1568,2.1399,2.154,2.1574,2.127,2.1408,2.1184,2.1029,2.1021,2.1167,2.0939,2.0397,2.0188,1.9854,1.9249,1.9217,1.8916,1.8186,1.847,1.8559,1.8396,1.8626,1.8576,1.8273,1.8081,1.7738,1.7307,1.7187,1.7093,1.6985,1.6965,1.6965,1.6937,1.6944,1.6944,1.6965,1.6931,1.6924,1.6924,1.6904,1.6917,1.6924,1.6937,1.6937,1.6944,1.691,1.6951,1.6937,1.6937,1.6876,1.6696,1.6554,1.6463,1.6368,1.6408,1.6435,1.6341,1.6408,1.6408,1.6334,1.6286,1.6252,1.6173,1.6133,1.6133,1.6133,1.6133,1.6133,1.6133,1.6133,1.6133,1.6133,1.6133,1.6133,1.6133,1.6133,1.6133,1.6133,1.6133,1.6133,1.6133,1.6133,1.6133,3.1893,2.9659,2.8847,2.8227,2.7598,2.6784,2.556,2.4128,2.4074,2.3956,2.3765,2.3638,2.3484,2.3349,2.3131,2.3793,2.5052,2.5183,2.4476,2.3281,2.3185,2.3294,2.3251,2.2517,2.2613,2.3313,2.2042,2.1076,2.0795,2.1058,2.1034,2.0762,2.1026,2.1252,2.1205,2.1254,2.1295,2.1295,2.1287,2.1123,2.0748,2.0748,2.0403,1.97,2.0042,2.0062,1.9641,1.9318,1.885,1.8255,1.8371,1.8198,1.7699,1.7717,1.7797,1.7715,1.7633,1.7552,1.7338,1.7338,1.7317,1.7263,1.7168,1.7114,1.71,1.7032,1.6978,1.6978,1.6978,1.6978,1.6978,1.6978,1.6978,1.6978,1.6978,1.6978,1.6978,1.6978,1.6978,1.6978,1.6978,1.6917,1.6736,1.6648,1.656,1.6483,1.649,1.6497,1.6469,1.6497,1.6503,1.6469,1.6442,1.6429,1.6388,1.6185,1.6133,1.6133,1.6133,1.6133,1.6133,1.6133,1.6133,1.6133,1.6133,1.6133,1.6133,1.6133,1.6133,1.6133,1.6133,1.6133,1.6133,1.6133,1.6133,2.9535,2.8485,2.7059,2.6055,2.5356,2.4594,2.3358,2.1797,2.1684,2.1642,2.1449,2.1287,2.1213,2.1189,2.1075,2.1765,2.3144,2.3144,2.2323,2.1061,2.1113,2.1094,2.0933,2.0943,2.1053,2.1102,2.111,2.0804,2.0418,2.0647,2.0647,2.0362,2.0922,2.123,2.127,2.1452,2.1563,2.1563,2.1389,2.1064,2.0669,2.0401,2.0073,1.96,1.9679,1.9682,1.947,1.9033,1.8549,1.8112,1.8004,1.7768,1.7398,1.729,1.7358,1.7528,1.7521,1.7494,1.744,1.7494,1.7419,1.7419,1.7331,1.7256,1.7195,1.71,1.7039,1.6998,1.6978,1.6978,1.6978,1.6978,1.6978,1.6978,1.6978,1.6978,1.6978,1.6978,1.6978,1.6971,1.6924,1.6856,1.673,1.6702,1.6621,1.6544,1.6558,1.6592,1.6592,1.6592,1.654,1.6598,1.6592,1.6564,1.6503,1.6347,1.6225,1.6205,1.6173,1.616,1.6146,1.6146,1.6133,1.6133,1.6133,1.6133,1.6133,1.6133,1.6133,1.6133,1.6133,1.6133,1.6133,1.6133,1.6133,2.6692,2.7735,2.3876,2.3501,2.4704,2.3103,2.2009,2.1912,2.1749,2.1684,2.1525,2.141,2.1219,2.1274,2.114,2.1368,2.1437,2.1377,2.1195,2.1048,2.1355,2.1127,2.0505,2.0669,2.0677,2.0568,2.0529,2.029,1.9927,1.987,1.9855,2.0016,2.0492,2.0832,2.1004,2.1422,2.1727,2.1599,2.1189,2.0924,2.0883,2.0233,1.9756,1.9449,1.9048,1.8698,1.8399,1.8323,1.8114,1.7547,1.7514,1.7507,1.7595,1.7446,1.7548,1.7758,1.7717,1.7602,1.7595,1.7595,1.7589,1.7494,1.7433,1.7365,1.7243,1.7202,1.7134,1.7005,1.6992,1.7044,1.6985,1.6978,1.6978,1.6978,1.6978,1.6978,1.6978,1.6978,1.6978,1.6965,1.6876,1.6716,1.6702,1.6723,1.6675,1.6594,1.6621,1.6696,1.6754,1.6754,1.6696,1.6696,1.6696,1.672,1.6625,1.6517,1.6429,1.6347,1.6232,1.6164,1.6151,1.6144,1.6117,1.611,1.6133,1.6133,1.6133,1.6133,1.6133,1.6133,1.6133,1.6133,1.6133,1.6133,1.6133,2.3619,2.4118,2.2779,2.2578,2.3305,2.2588,2.2237,2.2099,2.1928,2.1623,2.1246,2.104,2.074,2.0463,2.0352,2.0399,2.0336,2.029,2.0434,2.0615,2.0618,2.0403,2.0006,2.0195,2.0301,2.0248,2.0248,1.9934,1.9578,1.9766,1.9773,1.9585,2.0042,2.029,2.0407,2.0568,2.0681,2.0625,2.0455,2.0173,1.9778,1.9565,1.9177,1.8748,1.8516,1.8405,1.8315,1.8212,1.795,1.7548,1.7772,1.786,1.7785,1.7656,1.767,1.7826,1.7826,1.7792,1.7792,1.7792,1.7772,1.7717,1.7636,1.7453,1.7378,1.7351,1.7243,1.7046,1.706,1.7093,1.7005,1.6978,1.6985,1.6978,1.6978,1.6978,1.6978,1.6978,1.6978,1.6978,1.6937,1.691,1.6904,1.6904,1.687,1.6829,1.6863,1.6897,1.6904,1.689,1.691,1.691,1.6904,1.6876,1.6795,1.6714,1.6588,1.6537,1.6415,1.6279,1.6252,1.6232,1.6191,1.6164,1.613,1.6167,1.616,1.6167,1.6137,1.6167,1.6173,1.616,1.6139,1.6146,1.6167,2.2294,2.2294,2.2294,2.2359,2.2464,2.2464,2.2292,2.1934,2.1766,2.1347,2.0799,2.0548,2.0304,2.0016,1.996,1.996,1.9968,1.9795,1.98,2.0031,2.0192,1.9945,1.9522,1.9676,1.9652,1.9561,1.9694,1.9475,1.8958,1.9249,1.9249,1.9064,1.9582,1.9903,1.9947,2.0189,2.0296,2.0246,2.0075,1.979,1.9434,1.9106,1.8737,1.8453,1.8396,1.8369,1.8328,1.8321,1.8179,1.7901,1.7948,1.8004,1.7915,1.7779,1.7765,1.7888,1.7915,1.7915,1.7915,1.7908,1.7915,1.7902,1.7779,1.7663,1.7487,1.7453,1.7392,1.7216,1.7222,1.7216,1.7093,1.706,1.7039,1.6978,1.6978,1.6978,1.6978,1.6978,1.6978,1.6978,1.6971,1.6978,1.6978,1.6978,1.6978,1.6978,1.6978,1.6978,1.6978,1.6971,1.6978,1.6978,1.6958,1.6951,1.6965,1.691,1.679,1.6734,1.6619,1.6483,1.6395,1.6388,1.6361,1.6341,1.6313,1.632,1.632,1.63,1.6307,1.6252,1.6212,1.6239,1.6252,1.6198,1.6191,2.2464,2.2464,2.2464,2.2456,2.2464,2.2464,2.2168,2.1568,2.1404,2.0934,2.034,2.0093,2.0019,1.9962,1.9793,1.9793,1.9928,1.9519,1.932,1.9448,1.9762,1.9748,1.9277,1.9206,1.9042,1.8797,1.9056,1.8943,1.8653,1.8614,1.8416,1.8703,1.9183,1.9526,1.9669,2.0189,2.0333,2.021,1.9828,1.9589,1.9532,1.8958,1.8545,1.8545,1.8545,1.8491,1.8437,1.8552,1.8498,1.8145,1.7982,1.7963,1.7922,1.7915,1.7908,1.7915,1.7915,1.7915,1.7915,1.7915,1.7915,1.7915,1.7902,1.7799,1.7602,1.7582,1.7575,1.7399,1.7412,1.7372,1.7243,1.7202,1.7148,1.7039,1.7005,1.6985,1.6978,1.6978,1.6978,1.6978,1.6978,1.6978,1.6978,1.6978,1.6978,1.6978,1.6978,1.6978,1.6985,1.6992,1.6992,1.6998,1.7019,1.706,1.708,1.7121,1.7053,1.6944,1.6829,1.6714,1.65,1.6517,1.6483,1.6469,1.6483,1.6503,1.649,1.6442,1.6435,1.6415,1.6408,1.6429,1.6402,1.6341,1.63,2.2464,2.2464,2.2464,2.2464,2.2464,2.2464,2.2118,2.1518,2.1305,2.0724,1.9965,1.9634,1.9391,1.8927,1.8984,1.8927,1.8941,1.8861,1.8898,1.9035,1.9193,1.9189,1.8928,1.8761,1.8724,1.8725,1.8871,1.884,1.8694,1.864,1.8654,1.8701,1.8861,1.8997,1.9103,1.9284,1.9284,1.9284,1.9168,1.9052,1.9045,1.8895,1.8759,1.8701,1.8694,1.8674,1.8633,1.8599,1.8504,1.828,1.8111,1.7975,1.7949,1.7936,1.7942,1.7929,1.7929,1.7922,1.7922,1.7922,1.7922,1.7915,1.7915,1.7806,1.7615,1.7751,1.7663,1.7514,1.7453,1.7473,1.7399,1.7351,1.7331,1.729,1.7127,1.6998,1.6992,1.6978,1.6978,1.6978,1.6978,1.6978,1.6978,1.6978,1.6978,1.6978,1.6978,1.6992,1.7012,1.7066,1.7093,1.7093,1.7121,1.7168,1.7216,1.7277,1.7256,1.7154,1.7053,1.6951,1.6768,1.6605,1.6558,1.651,1.6571,1.6605,1.6558,1.6459,1.6524,1.6632,1.6585,1.6592,1.6524,1.6469,1.6456,2.2464,2.2464,2.2464,2.2349,2.2118,2.206,2.1541,2.0833,2.0635,2.0174,1.9423,1.9194,1.8979,1.8626,1.8626,1.8626,1.8626,1.8626,1.8728,1.8922,1.9004,1.8983,1.8902,1.8755,1.8742,1.8807,1.882,1.8813,1.8813,1.882,1.882,1.8813,1.882,1.882,1.882,1.882,1.882,1.882,1.882,1.882,1.882,1.882,1.882,1.882,1.882,1.882,1.8742,1.8674,1.8559,1.8416,1.8267,1.8145,1.807,1.8057,1.803,1.8031,1.8072,1.8072,1.7956,1.797,1.7983,1.7936,1.7915,1.7826,1.7772,1.7874,1.7758,1.7663,1.7697,1.7656,1.7487,1.7406,1.7426,1.7385,1.7263,1.7134,1.708,1.7073,1.7039,1.7005,1.6978,1.6978,1.6978,1.6978,1.6978,1.6978,1.6978,1.7019,1.7066,1.7141,1.7209,1.7216,1.7249,1.7311,1.7338,1.7378,1.7399,1.7311,1.7236,1.7148,1.6978,1.6781,1.6761,1.6734,1.672,1.672,1.6741,1.6781,1.6897,1.6937,1.6836,1.6768,1.6734,1.6653,1.6632,2.2464,2.2472,2.2415,2.206,2.1541,2.1426,2.0782,1.9857,1.9849,1.9444,1.8929,1.882,1.8851,1.882,1.8735,1.8807,1.8813,1.8793,1.8827,1.8857,1.8952,1.902,1.9013,1.8993,1.8898,1.8854,1.8834,1.8834,1.8827,1.882,1.882,1.882,1.882,1.882,1.882,1.882,1.882,1.882,1.882,1.882,1.882,1.882,1.882,1.882,1.882,1.882,1.882,1.88,1.8687,1.8559,1.8423,1.8335,1.8314,1.8308,1.8253,1.8158,1.8199,1.8172,1.7996,1.8057,1.805,1.7997,1.7956,1.7929,1.7915,1.7908,1.7902,1.7868,1.7915,1.7785,1.769,1.7555,1.7514,1.7514,1.7473,1.7399,1.7277,1.7216,1.7148,1.7039,1.7019,1.6985,1.6998,1.6992,1.6978,1.6978,1.6985,1.7032,1.7121,1.7222,1.7297,1.7358,1.7405,1.7467,1.7473,1.748,1.748,1.7453,1.7385,1.7297,1.7175,1.7046,1.7039,1.7026,1.7019,1.706,1.7114,1.7188,1.7243,1.7209,1.7087,1.706,1.7039,1.691,1.6849,2.2464,2.2472,2.1945,2.1664,2.1426,2.1013,2.0377,1.969,1.969,1.937,1.8885,1.8827,1.8827,1.8827,1.8827,1.882,1.8834,1.8847,1.8881,1.8959,1.9088,1.9149,1.9149,1.9142,1.9013,1.8915,1.8891,1.8871,1.8847,1.882,1.882,1.882,1.882,1.882,1.882,1.882,1.882,1.882,1.882,1.882,1.882,1.882,1.882,1.882,1.882,1.882,1.882,1.882,1.88,1.8687,1.8572,1.845,1.8375,1.8342,1.8321,1.8301,1.8301,1.8294,1.824,1.8226,1.8206,1.8063,1.8023,1.7996,1.7929,1.7922,1.7922,1.7915,1.7915,1.784,1.7806,1.7785,1.7745,1.7738,1.7731,1.769,1.7548,1.7344,1.7256,1.7249,1.7127,1.7026,1.7121,1.7053,1.7026,1.6992,1.7019,1.7112,1.7175,1.7317,1.7405,1.75,1.7589,1.7643,1.7623,1.7623,1.7623,1.7609,1.7548,1.7507,1.7378,1.7311,1.7304,1.7311,1.7324,1.7358,1.7351,1.7372,1.7385,1.7358,1.7344,1.7297,1.7243,1.7134,1.7073,2.1887,2.1591,2.1245,2.0898,2.0624,2.0342,1.9906,1.9461,1.9465,1.9317,1.9069,1.8963,1.8871,1.8864,1.8803,1.8796,1.8877,1.8938,1.8972,1.9047,1.9183,1.9189,1.9074,1.9183,1.9162,1.8918,1.8922,1.8888,1.8834,1.882,1.882,1.882,1.882,1.882,1.882,1.882,1.882,1.882,1.882,1.882,1.882,1.882,1.882,1.882,1.882,1.882,1.882,1.882,1.882,1.88,1.8681,1.8613,1.8545,1.8525,1.8498,1.8437,1.8498,1.8437,1.8375,1.8319,1.8355,1.8206,1.8138,1.8057,1.7962,1.797,1.7922,1.7915,1.7915,1.7915,1.7929,1.7948,1.7941,1.7929,1.7915,1.7881,1.7731,1.7548,1.7392,1.7405,1.7283,1.7256,1.7243,1.7188,1.7188,1.7209,1.7222,1.7263,1.7392,1.7467,1.7582,1.767,1.7772,1.7812,1.7779,1.7772,1.7785,1.7765,1.7724,1.7697,1.765,1.7602,1.7575,1.7541,1.7487,1.7433,1.7487,1.7453,1.7555,1.7595,1.7589,1.7521,1.7379,1.7344,1.7304,2.1071,2.0609,2.0515,2.0175,1.9805,1.9772,1.949,1.9099,1.9149,1.9222,1.9169,1.9054,1.8966,1.8952,1.8823,1.8857,1.8986,1.9108,1.9122,1.9088,1.9203,1.9149,1.902,1.9108,1.9162,1.8986,1.8891,1.8875,1.8834,1.882,1.882,1.882,1.882,1.882,1.882,1.882,1.882,1.882,1.882,1.882,1.882,1.882,1.882,1.882,1.882,1.882,1.882,1.882,1.882,1.882,1.882,1.882,1.882,1.8813,1.8715,1.8572,1.8667,1.862,1.8484,1.8477,1.8464,1.8348,1.8219,1.8145,1.8097,1.8043,1.7996,1.8004,1.8004,1.7976,1.7963,1.8004,1.801,1.7949,1.7915,1.7915,1.7895,1.7751,1.7629,1.7528,1.7426,1.7372,1.7399,1.7385,1.7412,1.7426,1.7379,1.7426,1.7541,1.7622,1.7711,1.7751,1.7881,1.7915,1.7833,1.784,1.786,1.7874,1.7902,1.7902,1.784,1.7779,1.7704,1.765,1.7609,1.7623,1.765,1.7684,1.7745,1.7826,1.7765,1.7568,1.7507,1.7534,1.7521,2.0667,2.0558,2.0175,1.9941,1.9786,1.9456,1.9288,1.9169,1.921,1.9203,1.9196,1.9061,1.9,1.8959,1.883,1.8915,1.9006,1.9149,1.9196,1.9135,1.9169,1.9067,1.9067,1.8986,1.8952,1.8986,1.8945,1.8877,1.8841,1.882,1.882,1.882,1.882,1.882,1.882,1.882,1.882,1.882,1.882,1.882,1.882,1.882,1.882,1.882,1.882,1.882,1.882,1.882,1.882,1.882,1.882,1.882,1.882,1.882,1.88,1.8721,1.8735,1.8766,1.8654,1.8579,1.8538,1.8413,1.8362,1.8287,1.8274,1.8247,1.8186,1.8179,1.8118,1.8057,1.805,1.8016,1.7921,1.7936,1.7936,1.7942,1.7936,1.7853,1.7833,1.7785,1.7623,1.748,1.7534,1.7561,1.7541,1.7534,1.7534,1.7595,1.7656,1.7697,1.7758,1.7799,1.7908,1.7915,1.7908,1.7936,1.7901,1.7935,1.7983,1.7935,1.7914,1.7929,1.7874,1.7874,1.7846,1.7833,1.7853,1.786,1.7853,1.7929,1.7785,1.7649,1.769,1.7684,1.7697,2.0008,1.9866,1.9573,1.9445,1.9469,1.9376,1.9325,1.9332,1.94,1.944,1.9373,1.921,1.9094,1.904,1.8857,1.8884,1.9088,1.925,1.9271,1.921,1.921,1.9088,1.9033,1.8891,1.8871,1.8905,1.8932,1.8911,1.8776,1.882,1.882,1.882,1.882,1.882,1.882,1.882,1.882,1.882,1.882,1.8827,1.8827,1.8827,1.882,1.882,1.882,1.882,1.882,1.882,1.882,1.882,1.882,1.882,1.882,1.882,1.882,1.882,1.882,1.882,1.882,1.8687,1.866,1.8633,1.8511,1.8437,1.8409,1.8369,1.8335,1.8321,1.8369,1.8287,1.8219,1.8131,1.8111,1.8084,1.8036,1.8023,1.805,1.8016,1.8023,1.8085,1.786,1.7738,1.7717,1.7717,1.767,1.765,1.765,1.7738,1.7853,1.788,1.7901,1.7975,1.8085,1.8009,1.8009,1.8023,1.8023,1.8036,1.8043,1.8043,1.8057,1.805,1.8152,1.826,1.8199,1.805,1.7989,1.7975,1.7941,1.7983,1.7914,1.7894,1.7846,1.7826,1.7833,1.9435,1.9149,1.9101,1.9149,1.9264,1.9413,1.9474,1.9501,1.9596,1.9705,1.9684,1.9345,1.9196,1.9128,1.8986,1.8959,1.921,1.9332,1.9312,1.9284,1.9257,1.9115,1.8938,1.8864,1.8936,1.8816,1.8925,1.8905,1.8861,1.8868,1.8854,1.8827,1.882,1.882,1.882,1.882,1.882,1.8827,1.8803,1.8875,1.8902,1.8881,1.881,1.8796,1.8841,1.882,1.882,1.882,1.882,1.882,1.882,1.882,1.882,1.882,1.882,1.882,1.882,1.882,1.8813,1.8708,1.8687,1.8779,1.8606,1.8559,1.8559,1.8504,1.8437,1.843,1.8443,1.8413,1.8369,1.8328,1.8308,1.828,1.8206,1.8165,1.8219,1.8213,1.8186,1.8145,1.8036,1.8002,1.7989,1.7989,1.7962,1.7962,1.7955,1.7975,1.8077,1.8097,1.8131,1.8213,1.8247,1.8206,1.8199,1.8206,1.8206,1.8199,1.8206,1.8206,1.824,1.8267,1.8369,1.8416,1.8375,1.8233,1.8158,1.8111,1.8111,1.8111,1.8118,1.807,1.7989,1.7935,1.7914,1.916,1.904,1.9278,1.9326,1.936,1.9563,1.9691,1.9691,1.9711,1.9725,1.9684,1.9352,1.9196,1.9128,1.9033,1.9054,1.9162,1.923,1.9291,1.9312,1.9189,1.9061,1.8932,1.8881,1.8861,1.8776,1.8905,1.8891,1.8823,1.8884,1.8871,1.8847,1.882,1.882,1.882,1.882,1.882,1.8847,1.8898,1.902,1.9088,1.9013,1.8972,1.8918,1.8909,1.8827,1.8827,1.882,1.882,1.882,1.882,1.882,1.882,1.882,1.882,1.882,1.882,1.882,1.88,1.8681,1.866,1.8773,1.8633,1.8626,1.8654,1.8687,1.866,1.8708,1.862,1.8552,1.8498,1.8339,1.8342,1.8335,1.8328,1.8314,1.8342,1.8355,1.8335,1.8342,1.8267,1.8274,1.8274,1.8274,1.8267,1.8267,1.8267,1.8267,1.8294,1.8314,1.8294,1.8355,1.8416,1.8389,1.8362,1.8375,1.8403,1.8382,1.8382,1.8382,1.8409,1.8437,1.8375,1.8409,1.8403,1.845,1.8416,1.8375,1.8321,1.828,1.8253,1.8186,1.8097,1.805,1.8002,1.9345,1.9373,1.9413,1.9481,1.9563,1.9637,1.9725,1.9725,1.9725,1.961,1.9508,1.9305,1.9115,1.9006,1.8959,1.9027,1.9088,1.9162,1.923,1.9284,1.9156,1.902,1.8949,1.8864,1.8837,1.8749,1.8843,1.8898,1.8857,1.8891,1.8911,1.8841,1.882,1.882,1.8827,1.882,1.8881,1.8911,1.9027,1.9135,1.9169,1.9142,1.9074,1.9,1.8925,1.8857,1.8847,1.882,1.882,1.882,1.882,1.8868,1.8843,1.883,1.8847,1.8943,1.8861,1.8827,1.8807,1.8694,1.8708,1.8786,1.8701,1.8701,1.8807,1.882,1.882,1.8813,1.8701,1.866,1.8633,1.8525,1.8525,1.8511,1.8477,1.8504,1.8498,1.8457,1.8464,1.8477,1.8498,1.8491,1.8464,1.8409,1.8375,1.8362,1.8362,1.8369,1.845,1.8538,1.8498,1.845,1.8518,1.8565,1.8538,1.8538,1.8593,1.8599,1.8599,1.8599,1.8593,1.8586,1.8525,1.8538,1.8606,1.864,1.8647,1.8599,1.8518,1.845,1.8382,1.8321,1.8247,1.8111,1.8043,1.9461,1.9596,1.9522,1.9556,1.9718,1.9725,1.9637,1.9603,1.9596,1.9515,1.9379,1.925,1.9074,1.8938,1.9006,1.9067,1.9061,1.9122,1.9169,1.9183,1.9149,1.9047,1.8986,1.8986,1.8932,1.8643,1.9027,1.9013,1.8925,1.8945,1.8966,1.8834,1.882,1.882,1.8834,1.8888,1.8918,1.9122,1.921,1.9284,1.9325,1.9284,1.921,1.9128,1.9054,1.8972,1.8909,1.8881,1.8881,1.882,1.882,1.8868,1.8864,1.8871,1.8877,1.8952,1.8918,1.8884,1.8895,1.8847,1.8827,1.882,1.882,1.88,1.8813,1.882,1.882,1.882,1.8807,1.8807,1.8793,1.864,1.8647,1.8654,1.8647,1.8694,1.8708,1.8626,1.8593,1.8613,1.8633,1.8654,1.8613,1.8518,1.8477,1.845,1.8457,1.8477,1.8565,1.8681,1.8654,1.8579,1.8613,1.8667,1.866,1.8674,1.88,1.882,1.882,1.8807,1.8766,1.8708,1.8687,1.8786,1.882,1.88,1.8701,1.8708,1.8708,1.8626,1.8552,1.8491,1.8403,1.8247,1.8138,1.9305,1.9454,1.959,1.9705,1.9718,1.9657,1.9576,1.9447,1.9387,1.9366,1.925,1.9203,1.9183,1.9162,1.9156,1.9183,1.9176,1.9061,1.9128,1.9156,1.9088,1.9101,1.9108,1.9142,1.9156,1.9115,1.9217,1.9156,1.9061,1.9088,1.8993,1.8803,1.8834,1.882,1.8888,1.8945,1.9115,1.9298,1.9393,1.9481,1.9515,1.9481,1.9393,1.9352,1.925,1.9122,1.8986,1.8952,1.8884,1.8834,1.8847,1.8881,1.8891,1.8945,1.9,1.9054,1.9088,1.9047,1.8986,1.8943,1.8847,1.8827,1.882,1.882,1.882,1.882,1.882,1.882,1.882,1.882,1.8813,1.8807,1.8735,1.8728,1.8715,1.8728,1.88,1.88,1.8715,1.8807,1.8807,1.8735,1.8728,1.864,1.8613,1.8593,1.8599,1.862,1.8647,1.8735,1.88,1.8773,1.8779,1.88,1.88,1.882,1.882,1.882,1.882,1.882,1.8807,1.882,1.882,1.882,1.882,1.882,1.882,1.88,1.88,1.8807,1.8708,1.8613,1.8518,1.8382,1.8301,1.9237,1.9312,1.9616,1.961,1.9522,1.9522,1.9434,1.9305,1.9291,1.9264,1.9203,1.9203,1.9203,1.9223,1.9305,1.9284,1.9223,1.9264,1.9284,1.9312,1.9298,1.9244,1.9271,1.9271,1.9257,1.9169,1.9223,1.9264,1.9149,1.9196,1.9081,1.8997,1.8888,1.8902,1.8925,1.9108,1.9305,1.9406,1.9522,1.9617,1.9624,1.961,1.9522,1.942,1.94,1.921,1.9033,1.9,1.8956,1.8888,1.8915,1.8918,1.8986,1.9074,1.9156,1.921,1.9244,1.9189,1.9142,1.9054,1.9,1.8884,1.8823,1.8827,1.8834,1.882,1.882,1.882,1.882,1.882,1.882,1.882,1.8813,1.882,1.882,1.882,1.882,1.882,1.882,1.882,1.882,1.8813,1.8813,1.8807,1.88,1.88,1.8813,1.882,1.882,1.882,1.882,1.882,1.882,1.882,1.882,1.882,1.882,1.882,1.882,1.882,1.882,1.882,1.882,1.882,1.882,1.882,1.882,1.882,1.882,1.882,1.8793,1.8687,1.8593,1.8498,1.845,1.9162,1.923,1.9488,1.9529,1.944,1.9481,1.9359,1.9169,1.9189,1.9203,1.9203,1.9237,1.9305,1.9359,1.9434,1.9413,1.9339,1.9359,1.9406,1.9413,1.9393,1.9393,1.94,1.9413,1.942,1.9244,1.9264,1.9339,1.9271,1.9271,1.9149,1.9013,1.8938,1.8966,1.902,1.9271,1.9447,1.9522,1.959,1.9725,1.9725,1.9711,1.9684,1.9515,1.9501,1.9386,1.9203,1.9108,1.8993,1.8925,1.8932,1.9027,1.9122,1.9223,1.9318,1.9366,1.9379,1.9318,1.9278,1.921,1.9162,1.9054,1.8918,1.8915,1.8881,1.8847,1.882,1.882,1.882,1.882,1.882,1.882,1.882,1.882,1.882,1.882,1.882,1.882,1.882,1.882,1.8762,1.8762,1.8704,1.8704,1.8581,1.8639,1.882,1.882,1.882,1.882,1.882,1.882,1.882,1.882,1.882,1.8827,1.8834,1.882,1.882,1.882,1.882,1.8646,1.8704,1.882,1.882,1.882,1.882,1.882,1.882,1.882,1.8793,1.8715,1.8701,1.862,1.8586,1.9081,1.9217,1.9366,1.9434,1.9434,1.959,1.9386,1.904,1.9142,1.921,1.9244,1.9359,1.9495,1.965,1.9617,1.9542,1.9454,1.9447,1.9454,1.9468,1.9481,1.9522,1.9583,1.9671,1.9576,1.9705,1.965,1.9508,1.9427,1.9427,1.9271,1.9142,1.9122,1.9128,1.904,1.9291,1.9501,1.963,1.9657,1.9725,1.9725,1.9725,1.9698,1.9691,1.9677,1.9515,1.9359,1.925,1.9128,1.9027,1.9006,1.9047,1.9067,1.9291,1.94,1.942,1.9556,1.9549,1.944,1.9291,1.9237,1.9189,1.9067,1.8979,1.8945,1.8871,1.8827,1.8834,1.882,1.882,1.882,1.882,1.882,1.882,1.882,1.882,1.882,1.882,1.882,1.8465,1.8581,1.8704,1.8646,1.8588,1.8407,1.8465,1.8704,1.8762,1.8704,1.8762,1.8762,1.882,1.882,1.882,1.882,1.8841,1.8841,1.8769,1.868,1.8604,1.8241,1.7878,1.804,1.8543,1.8233,1.7762,1.8233,1.882,1.882,1.882,1.882,1.8807,1.88,1.8786,1.8681,1.9074,1.9203,1.9257,1.9278,1.9284,1.9332,1.9156,1.8925,1.9088,1.9257,1.9373,1.9515,1.9603,1.9718,1.9725,1.9691,1.9596,1.9583,1.9583,1.9583,1.9576,1.961,1.9718,1.9725,1.9725,1.9725,1.9718,1.9705,1.9583,1.9569,1.9474,1.9352,1.9298,1.9325,1.9345,1.9488,1.9684,1.9718,1.9725,1.9725,1.9725,1.9725,1.9725,1.9725,1.9725,1.959,1.9401,1.9366,1.9271,1.9156,1.9135,1.9128,1.9149,1.9345,1.9427,1.9461,1.9576,1.9637,1.959,1.9522,1.9461,1.9352,1.9223,1.9101,1.9,1.8952,1.8871,1.8854,1.8847,1.8841,1.882,1.882,1.882,1.882,1.882,1.882,1.882,1.882,1.8704,1.8117,1.7884,1.6734,1.6332,1.6291,1.6291,1.6758,1.6874,1.8014,1.8291,1.8588,1.8704,1.8762,1.882,1.882,1.8769,1.8227,1.7483,1.6951,1.7506,1.8078,1.7686,1.6836,1.7631,1.826,1.7451,1.6709,1.7878,1.882,1.882,1.882,1.882,1.882,1.8813,1.8807,1.88,1.9047,1.9122,1.9128,1.9128,1.9142,1.9237,1.9162,1.9047,1.9196,1.9345,1.9447,1.959,1.9725,1.9725,1.9725,1.9725,1.9725,1.9725,1.9725,1.9725,1.9725,1.9718,1.9718,1.9725,1.9725,1.9725,1.9725,1.9718,1.9711,1.9718,1.9596,1.9515,1.9461,1.9454,1.9508,1.9603,1.9718,1.9725,1.9725,1.9725,1.9725,1.9725,1.9725,1.9725,1.9711,1.9617,1.9529,1.9454,1.9326,1.9312,1.9278,1.925,1.9278,1.9373,1.9461,1.9495,1.9563,1.9644,1.9711,1.9711,1.9576,1.9515,1.9373,1.925,1.9142,1.9101,1.9033,1.8952,1.8929,1.885,1.8843,1.8837,1.8861,1.8861,1.8902,1.8909,1.8554,1.8502,1.7376,1.6889,1.5471,1.4409,1.3753,1.3748,1.3758,1.4345,1.4991,1.618,1.7135,1.7077,1.7245,1.7471,1.7471,1.7239,1.7108,1.7059,1.6244,1.5247,1.5624,1.6265,1.6041,1.5077,1.6526,1.7682,1.6895,1.6683,1.8078,1.882,1.8827,1.8827,1.882,1.882,1.882,1.882,1.882,1.8993,1.8993,1.8993,1.9,1.904,1.9264,1.9373,1.94,1.9346,1.9353,1.944,1.9596,1.9705,1.9705,1.9711,1.9725,1.9725,1.9725,1.9725,1.9725,1.9725,1.9725,1.9725,1.9725,1.9725,1.9725,1.9725,1.9725,1.9725,1.9725,1.9711,1.9617,1.9522,1.9549,1.961,1.9705,1.9725,1.9725,1.9725,1.9725,1.9725,1.9725,1.9725,1.9725,1.9718,1.9711,1.9596,1.9529,1.9474,1.9434,1.942,1.9339,1.9359,1.9495,1.9501,1.9529,1.9596,1.9698,1.9725,1.9725,1.9725,1.961,1.9515,1.9454,1.9373,1.9264,1.9183,1.9115,1.904,1.9013,1.8993,1.8938,1.8891,1.8932,1.8986,1.8687,1.8227,1.7351,1.5855,1.4477,1.2627,1.1545,1.1283,1.1211,1.11,1.1463,1.1983,1.251,1.3304,1.3479,1.3938,1.5015,1.5079,1.5201,1.5245,1.5418,1.4205,1.29,1.2874,1.3241,1.3089,1.3358,1.4469,1.534,1.5931,1.672,1.8287,1.8816,1.8847,1.8841,1.8827,1.882,1.882,1.882,1.882,1.8993,1.8993,1.8993,1.8993,1.9006,1.9081,1.9176,1.9264,1.9271,1.9318,1.944,1.959,1.9603,1.9515,1.961,1.9711,1.9725,1.9725,1.9725,1.9725,1.9725,1.9725,1.9725,1.9725,1.9725,1.9725,1.9725,1.9725,1.9725,1.9725,1.9725,1.9705,1.9664,1.9691,1.9705,1.9725,1.9725,1.9725,1.9725,1.9725,1.9725,1.9725,1.9732,1.9739,1.9725,1.9732,1.9711,1.9617,1.9576,1.9583,1.9481,1.9393,1.94,1.9461,1.9474,1.9664,1.9705,1.9725,1.9725,1.9664,1.9549,1.9367,1.9246,1.9535,1.9461,1.9273,1.9206,1.9264,1.9203,1.9156,1.9128,1.9081,1.9061,1.9101,1.8964,1.8411,1.7694,1.5967,1.4345,1.1395,0.9535,0.8686,0.8493,0.8391,0.8296,0.8546,0.8832,0.9265,0.969,0.9922,1.0899,1.2101,1.2866,1.3051,1.3416,1.3641,1.2016,1.0682,1.0517,1.0255,1.0047,1.0569,1.2014,1.3694,1.5309,1.6976,1.8666,1.8925,1.8911,1.8861,1.8834,1.8827,1.882,1.8827,1.882,1.8952,1.8905,1.8898,1.8898,1.8898,1.8898,1.8986,1.9108,1.9176,1.9291,1.9374,1.9522,1.9556,1.9556,1.9684,1.9725,1.9725,1.9725,1.9725,1.9725,1.9725,1.9725,1.9725,1.9725,1.9725,1.9725,1.9725,1.9725,1.9725,1.9725,1.9725,1.9725,1.9725,1.9725,1.9725,1.9725,1.9725,1.9725,1.9725,1.9725,1.9725,1.9732,1.9752,1.9786,1.9766,1.9759,1.9786,1.9766,1.9725,1.9725,1.9549,1.9488,1.9454,1.944,1.8529,1.8632,1.9225,1.9522,1.961,1.8453,1.8344,1.7923,1.7355,1.7101,1.8163,1.8602,1.9113,1.9427,1.9352,1.9291,1.9264,1.925,1.9264,1.9284,1.8694,1.8109,1.645,1.4662,1.1822,0.8559,0.6859,0.5826,0.5447,0.5481,0.5479,0.5629,0.5744,0.6005,0.6437,0.6868,0.8083,0.9517,1.0352,1.0958,1.1268,1.1233,1.0065,0.8619,0.7535,0.7314,0.7062,0.7864,0.9401,1.2352,1.5586,1.7197,1.8806,1.9022,1.9047,1.9004,1.8922,1.8864,1.8843,1.8789,1.8841,1.8905,1.8827,1.882,1.8834,1.882,1.8834,1.885,1.8979,1.9088,1.9257,1.9379,1.9367,1.9508,1.9569,1.9637,1.9725,1.9725,1.9725,1.9725,1.9725,1.9725,1.9725,1.9725,1.9725,1.9725,1.9725,1.9725,1.9725,1.9725,1.9725,1.9725,1.9725,1.9725,1.9725,1.9725,1.9725,1.9725,1.9725,1.9752,1.9766,1.9739,1.9745,1.9793,1.982,1.9793,1.9752,1.9868,1.9827,1.9732,1.9725,1.9637,1.9576,1.9515,1.8745,1.7538,1.6846,1.7441,1.7574,1.7433,1.63,1.5713,1.4786,1.3465,1.3985,1.5377,1.7417,1.8163,1.9368,1.9488,1.9454,1.9434,1.9413,1.9413,1.9454,1.9119,1.7393,1.4938,1.2243,0.8375,0.569,0.4646,0.3729,0.3546,0.3651,0.3825,0.3306,0.3476,0.3751,0.3976,0.4416,0.5575,0.72,0.8402,0.9015,0.8189,0.8139,0.7952,0.6789,0.5633,0.5407,0.5945,0.6403,0.6757,1.1363,1.6266,1.7409,1.8608,1.8939,1.9196,1.9122,1.9054,1.9006,1.8893,1.841,1.8635,1.8905,1.882,1.882,1.882,1.882,1.882,1.8841,1.8816,1.8909,1.9027,1.9244,1.9373,1.9454,1.9522,1.963,1.9725,1.9725,1.9725,1.9725,1.9725,1.9725,1.9725,1.9725,1.9725,1.9725,1.9725,1.9725,1.9725,1.9725,1.9725,1.9725,1.9725,1.9725,1.9725,1.9725,1.9725,1.9745,1.9759,1.9841,1.9773,1.978,1.9841,1.9847,1.9908,1.9902,1.9908,1.9922,1.9847,1.9814,1.9752,1.9732,1.9698,1.961,1.7702,1.6431,1.5656,1.4567,1.4628,1.4261,1.3597,1.3001,1.2788,1.2092,1.2298,1.3304,1.5398,1.7203,1.8604,1.9698,1.9617,1.9596,1.9576,1.9394,1.9448,1.9299,1.6344,1.3374,0.9202,0.5118,0.3758,0.2646,0.2216,0.1971,0.1907,0.2027,0.2385,0.2854,0.3082,0.297,0.3257,0.3896,0.5373,0.6995,0.7304,0.6221,0.5856,0.615,0.5681,0.469,0.4698,0.5063,0.6733,0.8546,1.3031,1.701,1.7906,1.8572,1.9033,1.9219,1.88,1.7948,1.7351,1.7189,1.6833,1.7623,1.8782,1.882,1.882,1.882,1.882,1.882,1.882,1.882,1.882,1.8932,1.9183,1.9298,1.94,1.9508,1.9691,1.9725,1.9725,1.9725,1.9725,1.9725,1.9725,1.9725,1.9725,1.9725,1.9725,1.9725,1.9725,1.9725,1.9725,1.9725,1.9725,1.9725,1.9725,1.9725,1.9732,1.9766,1.9807,1.9827,1.9956,1.9915,1.9847,1.9929,2.0024,2.0078,2.0071,2.0058,1.999,1.9915,1.9854,1.915,1.8556,1.677,1.6027,1.4613,1.333,1.2539,1.1878,1.1862,1.1443,1.0798,1.02,1.0116,0.8734,0.8201,0.9943,1.2009,1.4217,1.5871,1.9209,1.9685,1.9752,1.98,1.8567,1.8071,1.7161,1.5114,1.1149,0.6802,0.4137,0.2836,0.1911,0.1356,0.111,0.0863,0.1047,0.16,0.2075,0.2613,0.2495,0.2315,0.2907,0.35,0.5072,0.5665,0.4928,0.4808,0.5049,0.4457,0.3927,0.5017,0.6119,0.8221,1.0836,1.4349,1.6881,1.7836,1.846,1.8354,1.7871,1.7169,1.6238,1.5249,1.5211,1.5,1.4867,1.8633,1.8807,1.882,1.882,1.882,1.882,1.882,1.8827,1.8847,1.8945,1.9189,1.9237,1.9413,1.9637,1.9718,1.9725,1.9725,1.9725,1.9725,1.9725,1.9725,1.9725,1.9725,1.9725,1.9725,1.9725,1.9725,1.9725,1.9725,1.9725,1.9725,1.9725,1.9725,1.9725,1.9766,1.978,1.9854,1.9895,1.9997,2.0105,2.0126,2.0132,2.02,2.0227,2.0227,2.0146,2.0078,2.0003,1.9861,1.9202,1.8045,1.6261,1.4215,1.3047,1.082,0.9904,0.9351,0.9797,0.9878,0.8389,0.7882,0.7036,0.5001,0.5182,0.7194,0.9041,1.1222,1.3434,1.6788,1.8521,1.8521,1.8361,1.706,1.5805,1.4685,1.3452,0.9076,0.4969,0.3347,0.1981,0.1363,0.0743,0.0433,0.0124,0.0433,0.0927,0.1481,0.1966,0.2267,0.2082,0.226,0.2376,0.2984,0.334,0.3574,0.3936,0.4184,0.4251,0.4141,0.5598,0.7183,0.9171,1.1466,1.4359,1.6454,1.7063,1.6881,1.6486,1.5944,1.5168,1.4542,1.3559,1.288,1.2482,1.1472,1.8626,1.882,1.882,1.882,1.882,1.882,1.882,1.8841,1.8956,1.9047,1.9189,1.9345,1.9501,1.9718,1.9725,1.9725,1.9725,1.9725,1.9725,1.9725,1.9725,1.9725,1.9725,1.9725,1.9725,1.9725,1.9725,1.9725,1.9725,1.9725,1.9725,1.9725,1.9725,1.9732,1.9752,1.9854,1.9915,1.999,2.0146,2.0282,2.0282,2.0288,2.0295,2.0349,2.0354,2.0282,2.0193,2.0207,2.0064,1.9737,1.9023,1.7094,1.4899,1.2521,1.0167,0.8126,0.7511,0.6586,0.6259,0.5905,0.5572,0.5444,0.4155,0.4269,0.591,0.7087,0.8623,0.9232,1.1916,1.3508,1.3886,1.4226,1.3398,1.2383,1.1305,1.0077,0.7291,0.4521,0.2383,0.1567,0.1003,0.0626,0.0312,0.0187,0.0312,0.081,0.1243,0.1671,0.148,0.154,0.1785,0.166,0.1596,0.2152,0.2888,0.3248,0.3494,0.3682,0.4173,0.5334,0.7172,0.9938,1.2355,1.4132,1.5082,1.5667,1.53,1.4347,1.3263,1.2534,1.2491,1.1963,1.0981,0.9941,0.8882]},{"header":{"parameterUnit":"m.s-1","parameterCategory":1,"la1":31.0,"la2":29.5877,"lo1":-88.7671,"lo2":-86.6584,"dy":0.0162,"dx":0.0185,"nx":115,"ny":88,"refTime":"2023-04-10T12:00:00:Z","depth":0,"parameterNumber":3,"parameterNumberName":"V-component_of_WINDS"},"data":[0.0,0.0,0.0,0.0,0.0,0.0,0.0,0.0,0.0,0.0,0.0,0.0,0.0,0.0,0.0,0.0,0.0,0.0,0.0,0.0,0.0,0.0,0.0,0.0,0.0,0.0,0.0,0.0,0.0,0.0,0.0,0.0,0.0,0.0,0.0,0.0,0.0,0.0,0.0,0.0,0.0,0.0,0.0,0.0,0.0,0.0,0.0,0.0,0.0,0.0,0.0,0.0,0.0,0.0,0.0,0.0,0.0,0.0,0.0,0.0,0.0,0.0,0.0,0.0,0.0,0.0,0.0,0.0,0.0,0.0,0.0,0.0,0.0,0.0,0.0,0.0,0.0,0.0,0.0,0.0,0.0,0.0,0.0,0.0,0.0,0.0,0.0,0.0,0.0,0.0,0.0,0.0,0.0,0.0,0.0,0.0,0.0,0.0,0.0,0.0,0.0,0.0,0.0,0.0,0.0,0.0,0.0,0.0,0.0,0.0,0.0,0.0,0.0,0.0,0.0,0.0,0.0,0.0,0.0,0.0,0.0,0.0,0.0,0.0,0.0,0.0,0.0,0.0,0.0,0.0,0.0,0.0,0.0,0.0,0.0,0.0,0.0,0.0,0.0,0.0,0.0,0.0,0.0,0.0,0.0,0.0,0.0,0.0,0.0,0.0,0.0,0.0,0.0,0.0,0.0,0.0,0.0,0.0,0.0,0.0,0.0,0.0,0.0,0.0,0.0,0.0,0.0,0.0,0.0,0.0,0.0,0.0,0.0,0.0,0.0,0.0,0.0,0.0,0.0,0.0,0.0,0.0,0.0,0.0,0.0,0.0,0.0,0.0,0.0,0.0,0.0,0.0,0.0,0.0,0.0,0.0,0.0,0.0,0.0,0.0,0.0,0.0,0.0,0.0,0.0,0.0,0.0,0.0,0.0,0.0,0.0,0.0,0.0,0.0,0.0,0.0,0.0,0.0,0.0,0.0,0.0,0.0,0.0,0.0,0.0,0.0,0.0,0.0,0.0,0.0,0.0,0.0,0.0,0.0,0.0,0.0,0.0,0.0,0.0,0.0,0.0,0.0,0.0,0.0,0.0,0.0,0.0,0.0,0.0,0.0,0.0,0.0,0.0,0.0,0.0,0.0,0.0,0.0,0.0,0.0,0.0,0.0,0.0,0.0,0.0,0.0,0.0,0.0,0.0,0.0,0.0,0.0,0.0,0.0,0.0,0.0,0.0,0.0,0.0,0.0,0.0,0.0,0.0,0.0,0.0,0.0,0.0,0.0,0.0,0.0,0.0,0.0,0.0,0.0,0.0,0.0,0.0,0.0,0.0,0.0,0.0,0.0,0.0,0.0,0.0,0.0,0.0,0.0,0.0,0.0,0.0,0.0,0.0,0.0,0.0,0.0,0.0,0.0,0.0,0.0,0.0,0.0,0.0,0.0,0.0,0.0,0.0,0.0,0.0,0.0,0.0,0.0,0.0,0.0,0.0,0.0,0.0,0.0,0.0,0.0,0.0,0.0,0.0,0.0,0.0,0.0,0.0,0.0,0.0,0.0,0.0,0.0,0.0,0.0,0.0,0.0,0.0,0.0,0.0,0.0,0.0,0.0,0.0,0.0,0.0,0.0,0.0,0.0,0.0,0.0,0.0,0.0,0.0,0.0,0.0,0.0,0.0,0.0,0.0,0.0,0.0,0.0,0.0,0.0,0.0,0.0,0.0,0.0,0.0,0.0,0.0,0.0,0.0,0.0,0.0,0.0,0.0,0.0,0.0,0.0,0.0,0.0,0.0,0.0,0.0,0.0,0.0,0.0,0.0,0.0,0.0,0.0,0.0,0.0,0.0,0.0,0.0,0.0,0.0,0.0,0.0,0.0,0.0,0.0,0.0,0.0,0.0,0.0,0.0,0.0,0.0,0.0,0.0,0.0,0.0,0.0,0.0,0.0,0.0,0.0,0.0,0.0,0.0,0.0,0.0,0.0,0.0,0.0,0.0,0.0,0.0,0.0,0.0,0.0,0.0,0.0,0.0,0.0,0.0,0.0,0.0,0.0,0.0,0.0,0.0,0.0,0.0,0.0,0.0,0.0,0.0,0.0,0.0,0.0,0.0,0.0,0.0,0.0,0.0,0.0,0.0,0.0,0.0,0.0,0.0,0.0,0.0,0.0,0.0,0.0,0.0,0.0,0.0,0.0,0.0,0.0,0.0,0.0,0.0,0.0,0.0,0.0,0.0,0.0,0.0,0.0,0.0,0.0,0.0,0.0,0.0,0.0,0.0,0.0,0.0,0.0,0.0,0.0,0.0,0.0,0.0,0.0,0.0,0.0,0.0,0.0,0.0,0.0,0.0,0.0,0.0,0.0,0.0,0.0,0.0,0.0,0.0,0.0,0.0,0.0,0.0,0.0,0.0,0.0,0.0,0.0,0.0,0.0,0.0,0.0,0.0,0.0,0.0,0.0,0.0,0.0,0.0,0.0,0.0,0.0,0.0,0.0,0.0,0.0,0.0,0.0,0.0,0.0,0.0,0.0,0.0,0.0,0.0,0.0,0.0,0.0,0.0,0.0,0.0,0.0,0.0,0.0,0.0,0.0,0.0,0.0,0.0,0.0,0.0,0.0,0.0,0.0,0.0,0.0,0.0,0.0,0.0,0.0,0.0,0.0,0.0,0.0,0.0,0.0,0.0,0.0,0.0,0.0,0.0,0.0,0.0,0.0,0.0,0.0,0.0,0.0,0.0,0.0,0.0,0.0,0.0,0.0,0.0,0.0,0.0,0.0,0.0,0.0,0.0,0.0,0.0,0.0,0.0,0.0,0.0,0.0,0.0,0.0,0.0,0.0,0.0,0.0,0.0,0.0,0.0,0.0,0.0,0.0,0.0,0.0,0.0,0.0,0.0,0.0,0.0,0.0,0.0,0.0,0.0,0.0,0.0,0.0,0.0,0.0,0.0,0.0,0.0,0.0,0.0,0.0,0.0,0.0,0.0,0.0,0.0,0.0,0.0,0.0,0.0,0.0,0.0,0.0,0.0,0.0,0.0,0.0,0.0,0.0,0.0,0.0,0.0,0.0,0.0,0.0,0.0,0.0,0.0,0.0,0.0,0.0,0.0,0.0,0.0,0.0,0.0,0.0,0.0,0.0,0.0,0.0,0.0,0.0,0.0,0.0,0.0,0.0,0.0,0.0,0.0,0.0,0.0,0.0,0.0,0.0,0.0,0.0,0.0,0.0,0.0,0.0,0.0,0.0,0.0,0.0,0.0,0.0,0.0,0.0,0.0,0.0,0.0,0.0,0.0,0.0,0.0,0.0,0.0,0.0,0.0,0.0,0.0,0.0,0.0,0.0,0.0,0.0,0.0,0.0,0.0,0.0,0.0,0.0,0.0,0.0,0.0,0.0,0.0,0.0,0.0,0.0,0.0,0.0,0.0,0.0,0.0,0.0,0.0,0.0,0.0,0.0,0.0,0.0,0.0,0.0,0.0,0.0,0.0,0.0,0.0,0.0,0.0,0.0,0.0,0.0,0.0,0.0,0.0,0.0,0.0,0.0,0.0,0.0,0.0,0.0,0.0,0.0,0.0,0.0,0.0,0.0,0.0,0.0,0.0,0.0,0.0,0.0,0.0,0.0,0.0,0.0,0.0,0.0,0.0,0.0,0.0,0.0,0.0,0.0,0.0,0.0,0.0,0.0,0.0,0.0,0.0,0.0,0.0,0.0,0.0,0.0,0.0,0.0,0.0,0.0,0.0,0.0,0.0,0.0,0.0,0.0,0.0,0.0,0.0,0.0,0.0,0.0,0.0,0.0,0.0,0.0,0.0,0.0,0.0,0.0,0.0,0.0,0.0,0.0,0.0,0.0,0.0,0.0,0.0,0.0,0.0,0.0,0.0,0.0,0.0,0.0,0.0,0.0,0.0,0.0,0.0,0.0,0.0,0.0,0.0,0.0,0.0,0.0,0.0,0.0,0.0,0.0,0.0,0.0,0.0,0.0,0.0,0.0,0.0,0.0,0.0,0.0,0.0,0.0,0.0,0.0,0.0,0.0,0.0,0.0,0.0,0.0,0.0,0.0,0.0,0.0,0.0,0.0,0.0,0.0,0.0,0.0,0.0,0.0,0.0,0.0,0.0,0.0,0.0,0.0,0.0,0.0,0.0,0.0,0.0,0.0,0.0,0.0,0.0,0.0,0.0,0.0,0.0,0.0,0.0,0.0,0.0,0.0,0.0,0.0,0.0,0.0,0.0,0.0,0.0,0.0,0.0,0.0,0.0,0.0,0.0,0.0,2.7776,0.0,0.0,0.0,0.0,0.0,0.0,0.0,0.0,0.0,0.0,0.0,0.0,0.0,0.0,0.0,0.0,0.0,0.0,0.0,0.0,0.0,0.0,0.0,0.0,0.0,0.0,0.0,0.0,0.0,0.0,0.0,0.0,0.0,0.0,0.0,0.0,0.0,0.0,0.0,0.0,0.0,0.0,0.0,0.0,0.0,0.0,0.0,0.0,0.0,0.0,0.0,0.0,0.0,0.0,0.0,0.0,0.0,0.0,0.0,0.0,0.0,0.0,0.0,0.0,0.0,0.0,0.0,0.0,0.0,0.0,0.0,0.0,0.0,0.0,0.0,0.0,0.0,0.0,0.0,0.0,0.0,0.0,0.0,0.0,0.0,0.0,0.0,0.0,0.0,0.0,0.0,0.0,0.0,0.0,0.0,0.0,0.0,0.0,0.0,0.0,0.0,0.0,0.0,0.0,0.0,0.0,0.0,0.0,0.0,0.0,2.7297,2.7461,2.7618,2.7978,2.8567,0.0,0.0,0.0,0.0,0.0,0.0,0.0,0.0,0.0,0.0,0.0,0.0,0.0,0.0,0.0,0.0,0.0,0.0,0.0,0.0,0.0,0.0,0.0,0.0,0.0,0.0,0.0,0.0,0.0,0.0,0.0,0.0,0.0,0.0,0.0,0.0,0.0,0.0,0.0,0.0,0.0,0.0,0.0,0.0,0.0,0.0,0.0,0.0,0.0,0.0,0.0,0.0,0.0,0.0,0.0,0.0,0.0,0.0,0.0,0.0,0.0,0.0,0.0,0.0,0.0,0.0,0.0,0.0,0.0,0.0,0.0,0.0,0.0,0.0,0.0,0.0,0.0,0.0,0.0,0.0,0.0,0.0,0.0,0.0,0.0,0.0,0.0,0.0,0.0,0.0,0.0,0.0,0.0,0.0,0.0,0.0,0.0,0.0,0.0,0.0,0.0,0.0,0.0,0.0,0.0,0.0,0.0,0.0,0.0,0.0,0.0,0.0,2.8686,2.8924,2.9395,0.0,0.0,0.0,0.0,0.0,0.0,0.0,0.0,0.0,0.0,0.0,0.0,0.0,0.0,0.0,0.0,0.0,0.0,0.0,0.0,0.0,0.0,0.0,0.0,0.0,0.0,0.0,0.0,0.0,0.0,0.0,0.0,0.0,0.0,0.0,0.0,0.0,0.0,0.0,0.0,0.0,0.0,0.0,0.0,0.0,0.0,0.0,0.0,0.0,0.0,0.0,0.0,0.0,0.0,0.0,0.0,0.0,0.0,0.0,0.0,0.0,0.0,0.0,0.0,0.0,0.0,0.0,0.0,0.0,0.0,0.0,0.0,0.0,0.0,0.0,0.0,0.0,0.0,0.0,0.0,0.0,0.0,0.0,0.0,0.0,0.0,0.0,0.0,0.0,0.0,0.0,0.0,0.0,0.0,0.0,0.0,0.0,0.0,0.0,0.0,0.0,0.0,0.0,0.0,0.0,0.0,0.0,0.0,0.0,0.0,2.8539,2.8661,2.877,0.0,3.027,0.0,0.0,0.0,0.0,0.0,0.0,0.0,0.0,0.0,0.0,0.0,0.0,0.0,0.0,0.0,0.0,0.0,0.0,0.0,0.0,0.0,0.0,0.0,0.0,0.0,0.0,0.0,0.0,0.0,0.0,0.0,0.0,0.0,0.0,0.0,0.0,0.0,0.0,0.0,0.0,0.0,0.0,0.0,0.0,0.0,0.0,0.0,0.0,0.0,0.0,0.0,0.0,0.0,0.0,0.0,0.0,0.0,0.0,0.0,0.0,0.0,0.0,0.0,0.0,0.0,0.0,0.0,0.0,0.0,0.0,0.0,0.0,0.0,0.0,0.0,0.0,0.0,0.0,0.0,0.0,0.0,0.0,0.0,0.0,0.0,0.0,0.0,0.0,0.0,0.0,0.0,0.0,0.0,0.0,0.0,0.0,0.0,0.0,0.0,0.0,0.0,0.0,0.0,0.0,0.0,0.0,0.0,0.0,0.0,0.0,2.9869,2.9987,3.0248,3.0821,0.0,0.0,0.0,0.0,0.0,0.0,0.0,0.0,0.0,0.0,0.0,0.0,0.0,0.0,0.0,0.0,0.0,0.0,0.0,0.0,0.0,0.0,0.0,0.0,0.0,0.0,0.0,0.0,0.0,0.0,0.0,0.0,0.0,0.0,0.0,0.0,0.0,0.0,0.0,0.0,0.0,0.0,0.0,0.0,0.0,0.0,0.0,0.0,0.0,0.0,0.0,0.0,0.0,0.0,0.0,0.0,0.0,0.0,0.0,0.0,0.0,0.0,0.0,0.0,0.0,0.0,0.0,0.0,0.0,0.0,0.0,0.0,0.0,0.0,0.0,0.0,0.0,0.0,0.0,0.0,0.0,0.0,0.0,0.0,0.0,0.0,0.0,0.0,0.0,0.0,0.0,0.0,0.0,0.0,0.0,0.0,0.0,0.0,0.0,0.0,0.0,0.0,0.0,0.0,0.0,0.0,0.0,0.0,0.0,0.0,3.0708,3.0908,3.1295,3.1623,3.2071,3.2583,0.0,0.0,0.0,0.0,0.0,0.0,0.0,0.0,0.0,0.0,0.0,0.0,0.0,0.0,0.0,0.0,0.0,0.0,0.0,0.0,0.0,0.0,0.0,0.0,0.0,0.0,0.0,0.0,0.0,0.0,0.0,0.0,0.0,0.0,0.0,0.0,0.0,0.0,0.0,0.0,0.0,0.0,0.0,0.0,0.0,0.0,0.0,0.0,0.0,0.0,0.0,0.0,0.0,0.0,0.0,0.0,0.0,0.0,0.0,0.0,0.0,0.0,0.0,0.0,0.0,0.0,0.0,0.0,0.0,0.0,0.0,0.0,0.0,0.0,0.0,0.0,0.0,0.0,0.0,0.0,0.0,0.0,0.0,0.0,0.0,0.0,0.0,0.0,0.0,0.0,0.0,0.0,0.0,0.0,0.0,0.0,0.0,0.0,0.0,0.0,0.0,0.0,0.0,0.0,0.0,0.0,0.0,0.0,3.0675,3.0831,3.1328,3.2171,3.244,3.2539,0.0,0.0,0.0,0.0,0.0,0.0,0.0,0.0,0.0,0.0,0.0,0.0,0.0,0.0,0.0,0.0,0.0,0.0,0.0,0.0,0.0,0.0,0.0,0.0,0.0,0.0,0.0,0.0,0.0,0.0,0.0,0.0,0.0,0.0,0.0,0.0,0.0,0.0,0.0,0.0,0.0,0.0,0.0,0.0,0.0,0.0,0.0,0.0,0.0,0.0,0.0,0.0,0.0,0.0,0.0,0.0,0.0,0.0,0.0,0.0,0.0,0.0,0.0,0.0,0.0,0.0,0.0,0.0,0.0,0.0,0.0,0.0,0.0,0.0,0.0,0.0,0.0,0.0,0.0,0.0,0.0,0.0,0.0,0.0,0.0,0.0,0.0,0.0,0.0,0.0,0.0,0.0,0.0,0.0,0.0,0.0,0.0,0.0,0.0,0.0,0.0,0.0,0.0,0.0,0.0,0.0,0.0,0.0,0.0,3.0841,3.0922,3.1389,3.2259,3.2032,3.2105,0.0,0.0,0.0,0.0,0.0,0.0,0.0,0.0,0.0,0.0,0.0,0.0,0.0,0.0,0.0,0.0,0.0,0.0,0.0,0.0,0.0,0.0,0.0,0.0,0.0,0.0,0.0,0.0,0.0,0.0,0.0,0.0,0.0,0.0,0.0,0.0,0.0,0.0,0.0,0.0,0.0,0.0,0.0,0.0,0.0,0.0,0.0,0.0,0.0,0.0,0.0,0.0,0.0,0.0,0.0,0.0,0.0,0.0,0.0,0.0,0.0,0.0,0.0,0.0,0.0,0.0,0.0,0.0,0.0,0.0,0.0,0.0,0.0,0.0,0.0,0.0,0.0,0.0,0.0,0.0,0.0,0.0,0.0,0.0,0.0,0.0,0.0,0.0,0.0,0.0,0.0,0.0,0.0,0.0,0.0,0.0,0.0,0.0,0.0,0.0,0.0,0.0,0.0,0.0,0.0,0.0,0.0,0.0,0.0,3.1691,0.0,3.2458,3.3022,3.2767,3.2842,0.0,0.0,0.0,0.0,0.0,0.0,0.0,0.0,0.0,0.0,0.0,0.0,0.0,0.0,0.0,0.0,0.0,0.0,0.0,0.0,0.0,0.0,0.0,0.0,0.0,0.0,0.0,0.0,0.0,0.0,0.0,0.0,0.0,0.0,0.0,0.0,0.0,0.0,0.0,0.0,0.0,0.0,0.0,0.0,0.0,0.0,0.0,0.0,0.0,0.0,0.0,0.0,0.0,0.0,0.0,0.0,0.0,0.0,0.0,0.0,0.0,0.0,0.0,0.0,0.0,0.0,0.0,0.0,0.0,0.0,0.0,0.0,0.0,0.0,0.0,0.0,0.0,0.0,0.0,0.0,0.0,0.0,0.0,0.0,0.0,0.0,0.0,0.0,0.0,0.0,0.0,0.0,0.0,0.0,0.0,0.0,0.0,0.0,0.0,0.0,0.0,0.0,0.0,0.0,0.0,0.0,0.0,0.0,3.3201,3.3331,3.4012,3.4435,3.4689,3.4738,3.4887,0.0,0.0,0.0,0.0,0.0,0.0,0.0,0.0,0.0,0.0,0.0,0.0,0.0,0.0,0.0,0.0,0.0,0.0,0.0,0.0,0.0,0.0,0.0,0.0,0.0,0.0,0.0,0.0,0.0,0.0,0.0,0.0,0.0,0.0,0.0,0.0,0.0,0.0,0.0,0.0,0.0,0.0,0.0,0.0,0.0,0.0,0.0,0.0,0.0,0.0,0.0,0.0,0.0,0.0,0.0,0.0,0.0,0.0,0.0,0.0,0.0,0.0,0.0,0.0,0.0,0.0,0.0,0.0,0.0,0.0,0.0,0.0,0.0,0.0,0.0,0.0,0.0,0.0,0.0,0.0,0.0,0.0,0.0,0.0,0.0,0.0,0.0,0.0,0.0,0.0,0.0,0.0,0.0,0.0,0.0,0.0,0.0,0.0,0.0,0.0,0.0,0.0,0.0,0.0,0.0,0.0,0.0,0.0,0.0,3.4192,3.448,3.4646,3.4689,3.4914,3.4789,0.0,0.0,0.0,0.0,0.0,0.0,0.0,0.0,0.0,0.0,0.0,0.0,0.0,0.0,0.0,0.0,0.0,0.0,0.0,0.0,0.0,0.0,0.0,0.0,0.0,0.0,0.0,0.0,0.0,0.0,0.0,0.0,0.0,0.0,0.0,0.0,0.0,0.0,0.0,0.0,0.0,0.0,0.0,0.0,0.0,0.0,0.0,0.0,0.0,0.0,0.0,0.0,0.0,0.0,0.0,0.0,0.0,0.0,0.0,0.0,0.0,0.0,0.0,0.0,0.0,0.0,0.0,0.0,0.0,0.0,0.0,0.0,0.0,0.0,0.0,0.0,0.0,0.0,0.0,0.0,0.0,0.0,0.0,0.0,0.0,0.0,0.0,0.0,0.0,0.0,0.0,0.0,0.0,0.0,0.0,0.0,0.0,0.0,0.0,0.0,0.0,0.0,0.0,0.0,0.0,0.0,0.0,0.0,0.0,3.787,3.7113,3.6933,3.7319,3.726,3.6739,3.5852,0.0,0.0,0.0,0.0,0.0,0.0,0.0,0.0,0.0,0.0,0.0,0.0,0.0,0.0,0.0,0.0,0.0,0.0,0.0,0.0,0.0,0.0,0.0,0.0,0.0,0.0,0.0,0.0,0.0,0.0,0.0,0.0,0.0,0.0,0.0,0.0,0.0,0.0,0.0,0.0,0.0,0.0,0.0,0.0,0.0,0.0,0.0,0.0,0.0,0.0,0.0,0.0,0.0,0.0,0.0,0.0,0.0,0.0,0.0,0.0,0.0,0.0,0.0,0.0,0.0,0.0,0.0,0.0,0.0,0.0,0.0,0.0,0.0,0.0,0.0,0.0,0.0,0.0,0.0,0.0,0.0,0.0,0.0,0.0,0.0,0.0,0.0,0.0,0.0,0.0,0.0,0.0,0.0,0.0,0.0,0.0,0.0,0.0,0.0,0.0,0.0,0.0,0.0,0.0,0.0,0.0,0.0,0.0,4.381,4.1834,4.1226,4.2009,4.1348,4.0412,0.0,0.0,0.0,0.0,0.0,0.0,0.0,0.0,0.0,0.0,0.0,0.0,0.0,0.0,0.0,0.0,0.0,0.0,0.0,0.0,0.0,0.0,0.0,0.0,0.0,0.0,0.0,0.0,0.0,0.0,0.0,0.0,0.0,0.0,0.0,0.0,0.0,0.0,0.0,0.0,0.0,0.0,0.0,0.0,0.0,0.0,0.0,0.0,0.0,0.0,0.0,0.0,0.0,0.0,0.0,0.0,0.0,0.0,0.0,0.0,0.0,0.0,0.0,0.0,0.0,0.0,0.0,0.0,0.0,0.0,0.0,0.0,0.0,0.0,0.0,0.0,0.0,0.0,0.0,0.0,0.0,0.0,0.0,0.0,0.0,0.0,0.0,0.0,0.0,0.0,0.0,0.0,0.0,0.0,0.0,0.0,0.0,0.0,0.0,0.0,0.0,0.0,0.0,0.0,0.0,0.0,0.0,0.0,0.0,4.689,4.8481,4.8086,4.5653,4.4739,4.332,0.0,0.0,0.0,0.0,0.0,0.0,0.0,0.0,0.0,0.0,0.0,0.0,0.0,0.0,0.0,0.0,0.0,0.0,0.0,0.0,0.0,0.0,0.0,0.0,0.0,0.0,0.0,0.0,0.0,0.0,0.0,0.0,0.0,0.0,0.0,0.0,0.0,0.0,0.0,0.0,0.0,0.0,0.0,0.0,0.0,0.0,0.0,0.0,0.0,0.0,0.0,0.0,0.0,0.0,0.0,0.0,0.0,0.0,0.0,0.0,0.0,0.0,0.0,0.0,0.0,0.0,0.0,0.0,0.0,0.0,0.0,0.0,0.0,0.0,0.0,0.0,0.0,0.0,0.0,0.0,0.0,0.0,0.0,0.0,0.0,0.0,0.0,0.0,0.0,0.0,0.0,0.0,0.0,0.0,0.0,0.0,0.0,0.0,0.0,0.0,0.0,0.0,0.0,0.0,0.0,0.0,0.0,0.0,4.7985,5.0735,5.4437,5.5164,5.2639,4.9286,4.6234,0.0,0.0,0.0,0.0,0.0,0.0,0.0,0.0,0.0,0.0,0.0,0.0,0.0,0.0,0.0,0.0,0.0,0.0,0.0,0.0,0.0,0.0,0.0,0.0,0.0,0.0,0.0,0.0,0.0,0.0,0.0,0.0,0.0,0.0,0.0,0.0,0.0,0.0,0.0,0.0,0.0,0.0,0.0,0.0,0.0,0.0,0.0,0.0,0.0,0.0,0.0,0.0,0.0,0.0,0.0,0.0,0.0,0.0,0.0,0.0,0.0,0.0,0.0,0.0,0.0,0.0,0.0,0.0,0.0,0.0,0.0,0.0,0.0,0.0,0.0,0.0,0.0,0.0,0.0,0.0,0.0,0.0,0.0,0.0,0.0,0.0,0.0,0.0,0.0,0.0,0.0,0.0,0.0,0.0,0.0,0.0,0.0,0.0,0.0,0.0,0.0,0.0,0.0,0.0,0.0,0.0,0.0,0.0,5.256,5.4974,5.9707,6.1759,6.0747,5.433,4.9328,0.0,0.0,0.0,0.0,0.0,0.0,0.0,0.0,0.0,0.0,0.0,0.0,0.0,0.0,0.0,0.0,0.0,0.0,0.0,0.0,0.0,0.0,0.0,0.0,0.0,0.0,0.0,0.0,0.0,0.0,0.0,0.0,0.0,0.0,0.0,0.0,0.0,0.0,0.0,0.0,0.0,0.0,0.0,0.0,0.0,0.0,0.0,0.0,0.0,0.0,0.0,0.0,0.0,0.0,0.0,0.0,0.0,0.0,0.0,0.0,0.0,0.0,0.0,0.0,0.0,0.0,0.0,0.0,0.0,0.0,0.0,0.0,0.0,0.0,0.0,0.0,0.0,0.0,0.0,0.0,0.0,0.0,0.0,0.0,0.0,0.0,0.0,0.0,0.0,0.0,0.0,0.0,0.0,0.0,0.0,0.0,0.0,0.0,0.0,0.0,0.0,0.0,0.0,0.0,0.0,0.0,0.0,0.0,5.6112,5.9452,6.3357,6.5039,6.426,5.8249,5.3423,0.0,0.0,0.0,0.0,0.0,0.0,0.0,0.0,0.0,0.0,0.0,0.0,0.0,0.0,0.0,0.0,0.0,0.0,0.0,0.0,0.0,0.0,0.0,0.0,0.0,0.0,0.0,0.0,0.0,0.0,0.0,0.0,0.0,0.0,0.0,0.0,0.0,0.0,0.0,0.0,0.0,0.0,0.0,0.0,0.0,0.0,0.0,0.0,3.7005,0.0,0.0,0.0,0.0,0.0,0.0,0.0,0.0,0.0,0.0,0.0,0.0,0.0,0.0,0.0,0.0,0.0,0.0,0.0,0.0,0.0,0.0,0.0,0.0,0.0,0.0,0.0,0.0,0.0,0.0,0.0,0.0,0.0,0.0,0.0,0.0,0.0,0.0,0.0,0.0,0.0,0.0,0.0,0.0,0.0,0.0,0.0,0.0,0.0,0.0,0.0,0.0,0.0,0.0,0.0,0.0,0.0,0.0,0.0,5.928,6.318,6.6464,6.7572,6.6339,6.2175,5.7486,0.0,0.0,0.0,0.0,0.0,0.0,0.0,0.0,0.0,0.0,0.0,0.0,0.0,0.0,0.0,0.0,0.0,0.0,0.0,0.0,0.0,0.0,0.0,0.0,0.0,0.0,0.0,0.0,0.0,0.0,0.0,0.0,0.0,0.0,0.0,0.0,0.0,0.0,0.0,0.0,0.0,0.0,0.0,0.0,0.0,0.0,0.0,0.0,0.0,0.0,0.0,0.0,0.0,0.0,0.0,0.0,0.0,0.0,0.0,0.0,0.0,0.0,0.0,0.0,0.0,0.0,0.0,0.0,0.0,0.0,0.0,0.0,0.0,0.0,0.0,0.0,0.0,0.0,0.0,0.0,0.0,0.0,0.0,0.0,0.0,0.0,0.0,0.0,0.0,0.0,0.0,0.0,0.0,0.0,0.0,0.0,0.0,0.0,0.0,0.0,0.0,0.0,0.0,0.0,0.0,0.0,0.0,5.7687,6.2177,6.6431,6.9113,6.9669,6.8104,6.5477,6.1001,5.4411,0.0,0.0,0.0,0.0,0.0,0.0,0.0,0.0,0.0,0.0,0.0,0.0,0.0,0.0,0.0,0.0,0.0,0.0,0.0,0.0,0.0,0.0,0.0,0.0,0.0,0.0,0.0,0.0,0.0,0.0,0.0,0.0,0.0,0.0,0.0,0.0,0.0,0.0,3.7917,3.8353,0.0,0.0,0.0,0.0,0.0,0.0,0.0,0.0,3.8723,0.0,0.0,0.0,0.0,0.0,0.0,0.0,0.0,0.0,0.0,0.0,0.0,0.0,0.0,0.0,0.0,0.0,0.0,0.0,0.0,0.0,0.0,0.0,0.0,0.0,0.0,0.0,0.0,0.0,0.0,0.0,0.0,0.0,0.0,0.0,0.0,0.0,0.0,0.0,0.0,0.0,0.0,0.0,0.0,0.0,0.0,0.0,0.0,0.0,0.0,0.0,0.0,0.0,0.0,0.0,0.0,5.5084,6.0007,6.4743,6.9279,7.1183,7.1321,6.9706,6.6576,6.2354,5.7037,0.0,0.0,0.0,0.0,0.0,0.0,0.0,0.0,0.0,0.0,0.0,0.0,0.0,0.0,0.0,0.0,0.0,0.0,0.0,0.0,0.0,0.0,0.0,0.0,0.0,0.0,0.0,0.0,0.0,0.0,0.0,0.0,0.0,0.0,0.0,0.0,0.0,0.0,0.0,3.9239,3.9055,0.0,0.0,0.0,0.0,0.0,0.0,0.0,0.0,3.9934,0.0,0.0,0.0,0.0,0.0,0.0,0.0,0.0,0.0,0.0,0.0,0.0,0.0,0.0,0.0,0.0,0.0,0.0,0.0,0.0,0.0,0.0,0.0,0.0,0.0,0.0,0.0,0.0,0.0,0.0,0.0,0.0,0.0,0.0,0.0,0.0,0.0,0.0,0.0,0.0,0.0,0.0,0.0,0.0,0.0,0.0,0.0,0.0,0.0,0.0,0.0,0.0,0.0,0.0,0.0,5.8037,6.245,6.6837,7.116,7.2092,7.1541,6.9486,6.6613,6.2528,0.0,0.0,0.0,0.0,0.0,0.0,0.0,0.0,0.0,0.0,0.0,0.0,0.0,0.0,0.0,0.0,0.0,0.0,0.0,0.0,0.0,0.0,0.0,0.0,0.0,0.0,0.0,0.0,0.0,0.0,0.0,0.0,0.0,0.0,0.0,0.0,0.0,0.0,0.0,0.0,4.1267,4.1184,4.218,0.0,0.0,0.0,0.0,0.0,0.0,4.1778,4.1665,0.0,0.0,0.0,0.0,0.0,0.0,0.0,0.0,0.0,0.0,0.0,0.0,0.0,0.0,0.0,0.0,0.0,0.0,0.0,0.0,0.0,0.0,0.0,0.0,0.0,0.0,0.0,0.0,0.0,0.0,0.0,0.0,0.0,0.0,0.0,0.0,0.0,0.0,0.0,0.0,0.0,0.0,0.0,0.0,0.0,0.0,0.0,0.0,0.0,0.0,0.0,0.0,0.0,0.0,0.0,6.0431,6.4376,6.8334,7.2298,7.2349,7.1211,6.8921,6.6086,6.2016,0.0,0.0,0.0,0.0,0.0,0.0,0.0,0.0,0.0,0.0,0.0,0.0,0.0,0.0,0.0,0.0,0.0,0.0,0.0,0.0,0.0,0.0,0.0,0.0,0.0,0.0,0.0,0.0,0.0,0.0,0.0,0.0,0.0,0.0,0.0,0.0,0.0,0.0,0.0,0.0,0.0,4.3614,4.427,4.4295,0.0,0.0,0.0,0.0,4.4221,4.4325,0.0,0.0,0.0,0.0,0.0,0.0,0.0,0.0,0.0,0.0,0.0,0.0,0.0,0.0,0.0,0.0,0.0,0.0,0.0,0.0,0.0,0.0,0.0,0.0,0.0,0.0,0.0,0.0,0.0,0.0,0.0,0.0,0.0,0.0,0.0,0.0,0.0,0.0,0.0,0.0,0.0,0.0,0.0,0.0,0.0,0.0,0.0,0.0,0.0,0.0,0.0,0.0,0.0,0.0,0.0,0.0,6.0575,6.4949,6.8919,7.2261,7.1821,7.061,6.8885,6.4945,6.0832,0.0,0.0,0.0,0.0,0.0,0.0,0.0,0.0,0.0,0.0,0.0,0.0,0.0,0.0,0.0,0.0,0.0,0.0,0.0,0.0,0.0,0.0,0.0,0.0,0.0,0.0,0.0,0.0,0.0,0.0,0.0,0.0,0.0,0.0,0.0,0.0,0.0,0.0,0.0,0.0,0.0,4.5312,4.576,4.5472,4.5212,0.0,0.0,0.0,4.7768,4.8715,0.0,0.0,0.0,0.0,0.0,0.0,0.0,0.0,0.0,0.0,0.0,0.0,0.0,0.0,0.0,0.0,0.0,0.0,0.0,0.0,0.0,0.0,0.0,0.0,0.0,0.0,0.0,0.0,0.0,0.0,0.0,0.0,0.0,0.0,0.0,0.0,0.0,0.0,0.0,0.0,0.0,0.0,0.0,0.0,0.0,0.0,0.0,0.0,0.0,0.0,0.0,0.0,0.0,0.0,0.0,5.7457,6.2037,6.6559,7.0085,7.2371,7.1711,7.0536,6.8921,6.4749,6.06,0.0,0.0,0.0,0.0,0.0,0.0,0.0,0.0,0.0,0.0,0.0,0.0,0.0,0.0,0.0,0.0,0.0,0.0,0.0,0.0,0.0,0.0,0.0,0.0,0.0,0.0,0.0,0.0,0.0,0.0,0.0,0.0,0.0,0.0,0.0,0.0,0.0,0.0,0.0,0.0,0.0,0.0,4.7961,4.8335,0.0,0.0,0.0,5.0294,5.0828,0.0,0.0,0.0,0.0,0.0,0.0,0.0,0.0,0.0,0.0,0.0,0.0,0.0,0.0,0.0,0.0,0.0,0.0,0.0,0.0,0.0,0.0,0.0,0.0,0.0,0.0,0.0,0.0,0.0,0.0,0.0,0.0,0.0,0.0,0.0,0.0,0.0,0.0,0.0,0.0,0.0,0.0,0.0,0.0,0.0,0.0,0.0,0.0,0.0,0.0,0.0,0.0,0.0,0.0,0.0,0.0,0.0,6.344,6.7839,7.0991,7.2679,7.1821,7.0536,6.8885,6.4958,0.0,0.0,0.0,0.0,0.0,0.0,0.0,0.0,0.0,0.0,0.0,0.0,0.0,0.0,0.0,0.0,0.0,0.0,0.0,0.0,0.0,0.0,0.0,0.0,0.0,0.0,0.0,3.7285,0.0,0.0,0.0,0.0,0.0,0.0,0.0,0.0,0.0,0.0,0.0,0.0,0.0,0.0,4.9938,5.0419,5.1542,5.236,0.0,0.0,5.3369,5.3816,5.4186,5.3602,0.0,0.0,0.0,0.0,0.0,0.0,0.0,0.0,0.0,0.0,0.0,0.0,0.0,0.0,0.0,0.0,0.0,0.0,0.0,0.0,0.0,0.0,0.0,0.0,0.0,0.0,0.0,0.0,0.0,0.0,0.0,0.0,0.0,0.0,0.0,0.0,0.0,0.0,0.0,0.0,0.0,0.0,0.0,0.0,0.0,0.0,0.0,0.0,0.0,0.0,0.0,0.0,0.0,0.0,0.0,6.4341,6.8173,7.1262,7.3465,7.2078,7.0536,6.8885,6.5587,6.1795,0.0,0.0,0.0,0.0,0.0,0.0,0.0,0.0,0.0,0.0,0.0,0.0,0.0,0.0,0.0,0.0,0.0,0.0,0.0,0.0,0.0,0.0,0.0,0.0,0.0,0.0,0.0,0.0,0.0,0.0,0.0,0.0,0.0,0.0,0.0,0.0,0.0,0.0,0.0,0.0,0.0,5.3218,5.315,5.4674,5.6174,0.0,0.0,5.5966,5.6914,5.7911,5.6974,5.2238,0.0,0.0,0.0,0.0,0.0,0.0,0.0,0.0,0.0,0.0,0.0,0.0,0.0,0.0,0.0,0.0,0.0,0.0,0.0,0.0,0.0,0.0,0.0,0.0,0.0,0.0,0.0,0.0,0.0,0.0,0.0,0.0,0.0,0.0,0.0,0.0,0.0,0.0,0.0,0.0,0.0,0.0,0.0,0.0,0.0,0.0,0.0,0.0,0.0,0.0,0.0,0.0,0.0,6.0196,6.5176,6.8429,7.1284,7.3538,7.2129,7.0756,6.9669,6.6393,6.2881,0.0,0.0,0.0,0.0,0.0,0.0,0.0,0.0,0.0,0.0,0.0,0.0,0.0,0.0,0.0,0.0,0.0,0.0,0.0,0.0,0.0,0.0,0.0,0.0,0.0,0.0,0.0,0.0,4.0932,4.1973,4.3171,0.0,0.0,0.0,0.0,0.0,0.0,0.0,0.0,0.0,0.0,5.5815,5.7765,5.8325,0.0,0.0,5.9442,5.9184,5.9016,5.9079,5.7895,5.4294,5.1941,0.0,0.0,0.0,0.0,0.0,0.0,0.0,0.0,0.0,0.0,0.0,0.0,0.0,0.0,0.0,0.0,0.0,0.0,0.0,0.0,0.0,0.0,0.0,0.0,0.0,0.0,0.0,0.0,0.0,0.0,0.0,0.0,0.0,0.0,0.0,0.0,0.0,0.0,0.0,0.0,0.0,0.0,0.0,0.0,0.0,0.0,0.0,0.0,0.0,0.0,0.0,0.0,6.0978,6.596,6.8964,7.1505,7.367,7.2386,7.127,7.044,6.7702,6.4639,0.0,0.0,0.0,0.0,0.0,0.0,0.0,0.0,0.0,0.0,0.0,0.0,0.0,0.0,0.0,0.0,0.0,0.0,0.0,0.0,0.0,0.0,0.0,0.0,0.0,0.0,0.0,0.0,4.2835,4.3894,4.5125,0.0,0.0,0.0,0.0,0.0,0.0,0.0,0.0,0.0,0.0,5.8556,6.1016,6.124,6.1335,6.1847,6.1379,6.0845,6.0516,5.9566,5.8002,5.5564,0.0,0.0,0.0,0.0,0.0,0.0,0.0,0.0,0.0,0.0,0.0,0.0,0.0,0.0,0.0,0.0,0.0,0.0,0.0,0.0,0.0,0.0,0.0,0.0,0.0,0.0,0.0,0.0,0.0,0.0,0.0,0.0,0.0,0.0,0.0,0.0,0.0,0.0,0.0,0.0,0.0,0.0,0.0,0.0,0.0,0.0,0.0,0.0,0.0,0.0,0.0,0.0,0.0,0.0,6.6707,6.9718,7.2078,7.367,7.2899,7.2129,7.127,6.9655,6.7108,6.3443,0.0,0.0,0.0,0.0,0.0,0.0,0.0,0.0,0.0,0.0,0.0,0.0,0.0,0.0,0.0,0.0,0.0,0.0,0.0,0.0,0.0,0.0,0.0,0.0,0.0,0.0,4.4492,4.5523,4.6523,0.0,0.0,0.0,0.0,0.0,0.0,0.0,0.0,0.0,0.0,5.8851,6.1438,6.2264,6.3208,6.3763,6.3978,6.1923,6.0567,6.1423,5.9612,5.7448,0.0,0.0,0.0,0.0,0.0,0.0,0.0,0.0,0.0,0.0,0.0,0.0,0.0,0.0,0.0,0.0,0.0,0.0,0.0,0.0,0.0,0.0,0.0,0.0,0.0,0.0,0.0,4.0311,4.0357,0.0,0.0,0.0,0.0,0.0,0.0,0.0,0.0,0.0,0.0,0.0,5.1347,5.2994,0.0,0.0,0.0,0.0,0.0,0.0,0.0,0.0,0.0,0.0,0.0,0.0,6.306,6.7505,7.0573,7.3105,7.5175,7.4515,7.3435,7.2129,7.0513,6.7254,6.2083,0.0,0.0,0.0,0.0,0.0,0.0,0.0,0.0,0.0,0.0,0.0,0.0,0.0,0.0,0.0,0.0,0.0,0.0,0.0,0.0,0.0,0.0,0.0,0.0,0.0,4.6492,0.0,0.0,0.0,0.0,0.0,0.0,0.0,0.0,0.0,0.0,0.0,5.6031,5.9036,6.0575,6.2128,6.4059,6.4147,6.4235,0.0,0.0,0.0,0.0,0.0,0.0,0.0,0.0,0.0,0.0,0.0,0.0,0.0,0.0,5.5556,5.1629,5.15,5.212,5.2666,0.0,0.0,0.0,0.0,0.0,0.0,0.0,0.0,0.0,0.0,0.0,0.0,0.0,0.0,0.0,0.0,4.3842,0.0,0.0,0.0,0.0,0.0,0.0,0.0,0.0,5.448,5.6325,5.7243,5.8837,5.9688,0.0,5.8966,5.7675,0.0,0.0,0.0,0.0,0.0,0.0,0.0,0.0,6.478,6.8435,7.1685,7.4111,7.5579,7.516,7.4243,7.2936,7.0765,6.7657,6.3441,6.0653,5.7709,0.0,0.0,0.0,0.0,0.0,0.0,0.0,0.0,0.0,0.0,0.0,0.0,0.0,0.0,0.0,0.0,0.0,0.0,0.0,0.0,0.0,0.0,0.0,4.8739,0.0,0.0,0.0,0.0,0.0,0.0,0.0,0.0,0.0,5.5243,5.711,5.9468,6.1932,6.3057,6.4088,6.527,0.0,0.0,0.0,0.0,0.0,0.0,0.0,6.1269,6.0343,6.0614,6.0933,6.1116,6.1579,6.1762,6.12,0.0,0.0,5.6317,5.5889,5.6506,5.703,5.7798,5.8823,6.0396,6.1409,6.2412,0.0,0.0,0.0,0.0,0.0,0.0,0.0,0.0,4.7139,4.7124,0.0,4.7105,0.0,0.0,0.0,0.0,0.0,0.0,0.0,0.0,6.153,6.3409,6.3632,6.5335,6.615,6.615,6.6325,6.6425,6.6013,5.8759,0.0,0.0,0.0,0.0,0.0,0.0,6.6859,6.955,7.3119,7.4992,7.5087,7.5014,7.4588,7.3685,7.0584,6.8412,6.736,6.332,6.0547,5.9486,5.5476,0.0,0.0,0.0,0.0,0.0,0.0,0.0,0.0,0.0,0.0,0.0,0.0,0.0,0.0,0.0,0.0,0.0,0.0,0.0,0.0,5.1034,0.0,0.0,0.0,0.0,0.0,0.0,0.0,0.0,0.0,0.0,5.8458,6.0859,6.3181,6.4139,0.0,0.0,0.0,0.0,6.7412,6.6087,6.5164,6.4659,6.4721,6.391,6.3567,6.4303,0.0,0.0,6.5435,6.5582,6.5692,6.5582,6.6316,6.5495,6.1617,6.1948,6.278,6.2927,6.3563,6.4237,6.442,6.5215,6.5985,5.3196,0.0,0.0,0.0,0.0,4.9627,5.0964,5.3129,5.3162,5.2841,5.2384,5.2384,0.0,0.0,0.0,0.0,0.0,0.0,6.112,6.2632,6.6649,6.8687,6.9095,7.1302,7.2018,7.1434,7.0571,7.0021,6.9741,6.6533,6.3688,6.1286,0.0,0.0,0.0,0.0,6.8894,7.2097,7.4534,7.635,7.7524,7.6922,7.5674,7.3758,7.221,7.0195,6.7593,6.624,6.3957,6.0583,5.9233,0.0,0.0,0.0,0.0,0.0,0.0,0.0,0.0,0.0,0.0,0.0,0.0,0.0,0.0,0.0,0.0,0.0,0.0,0.0,5.3543,5.459,5.479,0.0,0.0,0.0,0.0,0.0,0.0,0.0,0.0,0.0,6.5613,6.5493,6.5936,0.0,0.0,6.7689,6.7288,6.7644,6.8147,6.8873,0.0,0.0,0.0,6.847,6.8212,6.7789,6.9017,7.0367,7.1174,7.1762,7.1967,7.1358,7.1931,7.2078,7.0912,6.8174,6.6709,6.7063,6.7797,6.8788,6.9853,7.0734,7.1468,6.0335,5.7295,5.4432,5.3805,5.4736,5.482,5.6218,5.837,5.8428,5.8218,5.7821,5.8165,5.7776,5.6905,5.7488,0.0,0.0,0.0,6.6647,6.8692,7.1921,7.3858,7.479,7.6825,7.7524,7.7032,7.6209,7.5588,7.5124,7.3599,7.1581,6.9026,0.0,0.0,6.6242,6.9104,7.1818,7.4293,7.6463,7.8075,7.9045,7.7913,7.6445,7.4698,7.3266,7.1389,6.9104,6.8023,6.624,6.3566,6.1755,5.9104,0.0,0.0,0.0,0.0,0.0,0.0,0.0,0.0,0.0,0.0,0.0,4.7243,0.0,0.0,0.0,0.0,5.4105,5.5316,5.7128,5.7491,0.0,0.0,0.0,0.0,0.0,0.0,0.0,6.3172,6.6035,6.8531,7.0059,6.9779,6.9623,7.0326,7.0294,6.9994,6.9476,0.0,7.0541,7.1245,7.0913,7.0766,7.1231,7.1627,7.1821,7.1889,7.3051,7.4287,7.5095,7.5691,7.5883,7.5595,7.6131,7.6792,7.6813,7.4731,7.2724,7.1948,7.2129,7.2826,7.378,7.4551,7.5359,6.7676,6.7251,6.161,5.9855,6.0762,6.1068,6.1832,6.2976,6.3189,6.3229,6.3264,6.4092,6.4361,6.4213,6.5684,0.0,0.0,7.0227,7.2455,7.5439,7.7174,7.8734,8.0131,8.1652,8.237,8.226,8.2296,8.1893,8.0975,7.958,7.8416,7.7411,7.2956,7.0471,7.0221,7.3133,7.5207,7.6224,7.8563,7.9779,7.9669,7.8222,7.6959,7.6019,7.3854,7.2261,7.1307,6.9068,6.7717,6.7396,6.3566,6.0639,5.9008,0.0,0.0,0.0,0.0,0.0,0.0,0.0,0.0,0.0,0.0,0.0,0.0,0.0,0.0,0.0,5.8624,0.0,6.0713,6.015,0.0,0.0,0.0,6.1068,6.4127,6.4653,6.5608,6.7737,0.0,0.0,0.0,0.0,7.3889,7.3414,7.366,7.3439,7.2235,7.3273,7.3997,7.3665,7.3508,7.3535,7.4,7.4413,7.518,7.6234,7.6692,7.7111,7.7753,7.8025,7.812,7.8103,7.9028,7.9789,7.9996,8.0416,8.0425,7.7133,7.6508,7.647,7.6484,7.702,7.7733,7.2743,7.2656,7.1164,6.9065,6.669,6.6704,6.7286,6.8117,6.8149,6.7844,6.7345,6.8179,6.8918,6.9586,7.2337,7.3823,7.438,7.7108,7.8766,7.9638,8.1232,8.2185,8.2574,8.3544,8.3691,8.3124,8.3141,8.27,8.1929,8.1525,8.1216,8.0927,7.9794,7.761,7.4543,7.5781,7.7265,7.8836,7.9507,7.9486,7.8919,7.8479,7.7304,7.5234,7.4647,7.3362,7.138,7.0765,6.9485,6.7593,6.6487,6.458,6.1602,5.8782,0.0,0.0,0.0,0.0,0.0,0.0,0.0,0.0,0.0,5.2247,5.3507,0.0,5.6949,0.0,6.2523,6.393,6.4127,6.3967,0.0,0.0,6.5154,6.6219,6.7614,6.9376,7.0513,7.0426,7.2371,7.4133,7.5139,7.6366,7.7529,7.8521,7.6796,7.5365,7.5283,7.6271,7.7267,7.7811,7.8133,7.8703,7.9229,7.9667,7.9817,8.0305,8.0393,8.0493,8.0681,8.0744,8.0756,8.0769,8.0981,8.1444,8.2033,8.1906,8.1693,8.1244,8.0498,7.9591,7.9206,7.9338,7.9688,7.6836,7.7268,7.7254,7.6276,7.4574,7.2712,7.2526,7.3511,7.3587,7.3593,7.3591,7.4485,7.5347,7.6259,7.8029,7.8993,7.9507,8.1216,8.226,8.2663,8.3911,8.4462,8.4499,8.5306,8.5436,8.4996,8.4996,8.4592,8.3838,8.3818,8.3618,8.3287,8.3251,8.2117,7.9872,7.9872,8.0418,8.1379,8.1415,8.1012,8.0204,7.9522,7.7965,7.5542,7.4735,7.323,7.0866,7.0073,6.8894,6.7139,6.6303,6.4844,6.2608,6.0402,5.8488,0.0,0.0,0.0,0.0,0.0,0.0,0.0,0.0,0.0,0.0,0.0,6.0272,0.0,6.5705,0.0,6.7393,6.7467,6.7724,6.8444,6.9302,7.044,7.1945,7.3834,7.4999,7.4911,7.6607,7.8109,7.8917,7.9379,8.0104,8.1374,7.9929,7.8754,7.8671,7.9177,7.9741,8.039,8.0656,8.0967,8.1579,8.1688,8.1812,8.2151,8.23,8.2487,8.2827,8.2987,8.306,8.3072,8.3161,8.3399,8.3899,8.378,8.365,8.3669,8.3328,8.2511,8.153,8.1946,8.2501,8.0406,8.12,8.1209,8.1778,8.2394,7.87,7.7676,7.8547,7.8734,7.9299,8.0215,8.1094,8.1966,8.281,8.281,8.3251,8.4005,8.4005,8.4445,8.5233,8.582,8.6131,8.6114,8.6811,8.7161,8.7124,8.7271,8.6958,8.6261,8.6151,8.5747,8.5086,8.4939,8.4903,8.4866,8.4298,8.3895,8.3711,8.3601,8.3124,8.2223,8.0624,7.8605,7.6203,7.4551,7.262,7.0367,6.8802,6.759,6.6659,6.5244,6.416,6.3426,6.1766,6.0552,0.0,5.9132,0.0,0.0,0.0,0.0,0.0,0.0,0.0,0.0,6.2989,6.4127,6.7173,6.8678,6.9889,7.077,7.0954,7.1621,7.3066,7.3433,7.4455,7.6671,7.8039,7.9115,7.9921,8.105,8.2084,8.2636,8.236,8.2335,8.3087,8.3275,8.2965,8.2416,8.2067,8.1851,8.2028,8.2088,8.246,8.2517,8.2403,8.2642,8.3225,8.3517,8.3809,8.4461,8.4718,8.4838,8.4871,8.502,8.5252,8.5465,8.5618,8.5627,8.5234,8.524,8.4832,8.3566,8.4016,8.5007,8.3678,8.3876,8.3848,8.4372,8.5049,8.4237,8.2944,8.141,8.1465,8.2284,8.3605,8.3821,8.4702,8.6077,8.6114,8.6554,8.7288,8.7288,8.7729,8.8482,8.7986,8.7729,8.7766,8.7912,8.7986,8.8023,8.8629,8.8849,8.8702,8.8059,8.7655,8.7509,8.6885,8.6537,8.6591,0.0,0.0,0.0,8.4719,8.3654,8.2223,8.0624,7.8626,7.6166,7.4529,0.0,7.116,7.0146,6.8972,6.759,6.777,0.0,0.0,0.0,0.0,0.0,0.0,0.0,0.0,0.0,0.0,0.0,6.7894,6.705,6.5999,6.8041,7.0257,7.2129,7.2606,7.3377,7.4808,7.5564,7.6265,7.7056,7.8299,7.9721,8.1257,8.1794,8.2348,8.31,8.3552,8.3788,8.4039,8.4726,8.5381,8.5609,8.6528,8.7178,8.6975,8.5196,8.4151,8.4312,8.477,8.514,8.5187,8.5186,8.5215,8.5497,8.5506,8.5604,8.5777,8.5834,8.5831,8.5852,8.5893,8.5958,8.5984,8.6018,8.6086,8.5928,8.6457,8.6422,8.4545,8.4507,8.4793,8.6628,0.0,8.6554,8.7068,0.0,8.7766,8.7105,8.6297,8.549,8.5857,8.6941,8.6978,8.7418,8.8189,8.8189,8.8189,8.8243,8.861,8.8776,8.8812,8.8793,8.8776,8.8793,8.8793,8.8793,8.8776,8.9216,8.94,8.9363,8.8959,8.8776,8.8776,8.7986,8.7582,8.7619,8.7986,8.7986,8.7582,8.6775,8.5416,8.3434,8.2186,8.0021,7.6812,0.0,0.0,0.0,0.0,0.0,0.0,0.0,0.0,0.0,0.0,0.0,6.8811,6.8426,6.8559,6.9398,7.0183,7.1505,7.3487,7.507,7.4228,7.0372,7.2918,7.5203,7.64,7.7126,7.8247,7.9809,8.0386,8.0776,8.111,8.2238,8.3333,8.3992,8.4727,8.5472,8.6251,8.6365,8.6567,8.7405,8.7271,8.7528,8.7872,8.8184,8.8468,8.8344,8.7348,8.6556,8.6728,8.7052,8.7333,8.7342,8.7329,8.7363,8.7363,8.7363,8.7401,8.7401,8.7401,8.7401,8.7363,8.7401,8.7363,8.7325,8.7055,8.6863,8.7248,8.7401,8.7337,8.6553,8.6284,8.5893,8.8812,8.9363,8.8867,8.9454,9.0776,9.0244,9.0501,9.1106,0.0,0.0,0.0,8.962,8.9693,8.9803,8.9693,8.9344,8.8904,8.9363,8.9326,8.8867,8.9363,8.9583,8.962,8.962,8.962,8.962,8.9767,8.984,8.9803,8.9693,8.962,8.9546,8.883,8.8426,8.839,8.8426,8.872,8.9326,8.861,8.7178,8.5086,8.3931,8.1656,7.8023,7.6885,7.494,7.2041,7.1174,7.0,6.8458,6.9119,6.9582,6.9779,7.066,7.1578,7.2481,7.2701,7.3508,7.5036,7.5802,7.6906,7.8625,8.1226,8.0642,7.5678,7.7742,7.9569,8.0393,8.1542,8.2812,8.4317,8.4682,8.4758,8.4731,8.5496,8.611,8.628,8.717,8.8144,8.8988,8.8959,8.9294,9.0263,8.9582,8.9025,8.9447,8.9311,8.898,8.8933,8.8619,8.8256,8.833,8.8371,8.8594,8.8679,8.8603,8.8679,8.8526,8.8603,8.8679,8.8679,8.8679,8.8679,8.8526,8.8679,8.8603,8.8603,8.8102,8.791,8.8564,8.8141,8.7825,8.8449,8.8132,8.7329,8.9326,8.9436,9.0024,9.0776,9.1693,9.2317,9.3051,9.3529,9.0537,8.9693,9.0445,9.0427,9.0812,9.1436,9.0739,9.0739,9.1216,9.0684,9.0739,0.0,9.0702,9.0445,9.0445,9.0445,9.0427,9.0482,9.1143,9.1473,9.14,9.0776,9.0427,9.0317,8.962,8.9216,8.9216,8.9253,8.929,8.9363,8.861,8.7692,8.6647,8.4519,8.25,8.0534,7.8332,7.6298,7.4463,7.3648,7.2459,7.0903,7.1527,7.2312,7.301,7.4471,7.5946,7.7451,7.8222,7.9234,8.0627,8.0897,8.1982,8.4141,8.5398,8.4757,8.1971,8.2623,8.3653,8.4544,8.4795,8.5298,8.6229,8.6946,8.727,8.708,8.7756,8.8445,8.8879,8.9238,8.9755,9.0561,9.0777,9.0503,9.0302,9.0542,9.0465,9.0119,9.0273,9.0722,9.0444,8.9568,8.8761,8.8654,8.8671,8.8679,8.8872,8.8718,8.8833,8.8679,8.8795,8.891,8.891,8.891,8.891,8.8756,8.8872,8.8833,8.8795,8.8641,8.8641,8.8833,8.8679,8.8594,8.8833,8.8679,8.8218,9.206,9.2097,9.2464,9.3088,9.3859,9.4226,9.4336,9.4116,9.2281,9.162,9.1877,9.1473,9.1473,9.1767,9.14,9.1216,9.1143,9.1216,9.1216,9.1143,9.1216,9.1253,9.1253,9.1253,9.1253,9.1289,9.162,9.1803,9.1767,9.14,9.1253,9.1179,9.0427,8.984,8.9454,8.9782,8.9895,8.9878,8.9206,8.8262,8.7031,8.6263,8.4849,8.2847,8.1933,8.0847,7.9274,7.8827,7.8058,7.688,7.7662,7.8245,7.8654,7.9758,8.0935,8.2112,8.2522,8.32,8.4319,8.4907,8.5586,8.6554,8.8206,8.8486,8.6784,8.6206,8.63,8.7205,8.7523,8.8058,8.8896,8.9359,8.9516,8.9396,8.9811,9.0148,9.0386,9.0535,9.087,9.1648,9.1876,9.1748,9.1364,9.1672,9.1556,9.0825,9.1018,9.1201,9.1201,9.0594,9.0017,9.0056,9.0056,9.0056,9.0017,9.0056,9.0056,9.0056,9.0056,9.0056,9.0056,9.0056,9.0017,9.0056,9.0056,9.0056,9.0017,8.9633,8.9594,8.9979,8.9633,8.9517,8.9825,8.971,8.9056,9.4299,9.4299,9.4483,9.5034,9.5768,9.5749,9.5401,9.4777,9.3969,9.3529,9.3235,9.2281,9.1803,9.1803,9.1803,9.1473,9.1033,9.151,9.1473,9.0996,9.151,9.1803,9.184,9.1929,9.2058,9.2151,9.2366,9.2435,9.233,9.2435,9.2394,9.221,9.1619,9.0918,9.0142,9.0817,9.105,9.0817,9.0354,8.933,8.7743,8.7963,8.7123,8.5259,8.5286,8.479,8.3425,8.35,8.3137,8.2185,8.3075,8.3639,8.3664,8.4553,8.5442,8.6181,8.6508,8.7005,8.784,8.8706,8.9105,8.895,9.0688,9.1528,9.0713,8.9609,8.9068,8.9607,8.9994,9.0551,9.1308,9.1567,9.1593,9.1641,9.1695,9.176,9.1778,9.1787,9.1979,9.2633,9.2787,9.2749,9.2749,9.2787,9.2402,9.171,9.1518,9.1441,9.1278,9.1325,9.1441,9.124,9.1201,9.1086,9.1201,9.1124,9.1095,9.1201,9.1124,9.1009,9.1047,9.1124,9.1163,9.1047,9.1124,9.1056,9.1095,9.0663,9.0509,9.0864,9.0556,9.0432,9.0902,9.0594,8.9932,9.4299,9.441,9.5107,9.5878,9.6577,9.6594,9.654,9.6376,9.5621,9.485,9.4135,9.2519,9.184,9.1803,9.1803,9.1748,9.1693,9.1785,9.1766,9.1711,9.1767,9.1822,9.1948,9.2473,9.2792,9.3122,9.411,9.4297,9.3829,9.436,9.4294,9.362,9.3432,9.3028,9.2398,9.3086,9.313,9.2417,9.2336,9.1452,8.982,8.9053,8.827,8.7336,8.6691,8.5867,8.537,8.5668,8.538,8.4064,8.5408,8.6185,8.6271,8.7574,8.8801,8.9591,9.0402,9.1266,9.2014,9.2738,9.2939,9.3119,9.3225,9.3398,9.3231,9.3118,9.283,9.2312,9.2195,9.2482,9.3337,9.3346,9.326,9.3183,9.3278,9.3489,9.3364,9.3441,9.3518,9.3557,9.3557,9.3557,9.3518,9.3441,9.3133,9.221,9.2056,9.1864,9.1402,9.171,9.1864,9.1355,9.1201,9.1201,9.1201,9.1201,9.1201,9.1201,9.1201,9.1201,9.1201,9.1201,9.1201,9.1201,9.1201,9.1201,9.1201,9.1086,9.1047,9.1086,9.1047,9.1047,9.1163,9.1047,9.0624,9.5731,9.5768,9.6098,9.6639,9.721,9.7283,9.7533,9.7783,9.7055,9.6497,9.5992,9.4428,9.3014,9.1822,9.1803,9.2001,9.2385,9.2402,9.2603,9.2891,9.2944,9.3184,9.3695,9.3955,9.4388,9.4924,9.5478,9.5585,9.5401,9.56,9.5517,9.5217,9.5179,9.4992,9.4773,9.5442,9.5396,9.4603,9.492,9.4553,9.3327,9.2177,9.1416,9.1204,9.1558,9.1691,9.1361,9.1247,9.0827,9.0262,9.0426,9.0536,9.0517,9.1202,9.1724,9.2055,9.2463,9.2881,9.3192,9.3496,9.3674,9.3672,9.4181,9.4258,9.3787,9.4172,9.4335,9.3989,9.3527,9.3364,9.3672,9.371,9.3672,9.3672,9.3672,9.371,9.3672,9.371,9.3672,9.371,9.4143,9.4258,9.3749,9.3287,9.2672,9.1941,9.1748,9.1672,9.1287,9.1518,9.1556,9.1278,9.1201,9.1201,9.1201,9.1201,9.1201,9.1201,9.1201,9.1201,9.1201,9.1201,9.1201,9.1201,9.1201,9.1201,9.1201,9.1201,9.1201,9.1201,9.1201,9.1201,9.1201,9.1201,9.097,9.6838,9.6952,9.7174,9.739,9.7723,9.7891,9.8219,9.8611,9.8094,9.7718,9.738,9.6194,9.4712,9.3117,9.2553,9.2566,9.3046,9.3301,9.3644,9.4069,9.4248,9.4714,9.5307,9.5535,9.592,9.6546,9.695,9.7106,9.7054,9.6776,9.67,9.67,9.67,9.67,9.678,9.7449,9.7503,9.6958,9.7348,9.728,9.6585,9.5658,9.4703,9.3968,9.4693,9.5151,9.4993,9.461,9.4358,9.4206,9.4063,9.3941,9.3791,9.4185,9.4578,9.4771,9.4724,9.4619,9.4686,9.4712,9.4634,9.448,9.5027,9.5095,9.4672,9.498,9.5326,9.5297,9.4749,9.4441,9.4403,9.4403,9.4403,9.4403,9.4403,9.4403,9.4441,9.4403,9.448,9.448,9.5018,9.5027,9.4181,9.3403,9.2633,9.1864,9.1825,9.1748,9.1672,9.1787,9.1902,9.1633,9.1556,9.1441,9.1278,9.1201,9.1201,9.1201,9.1201,9.1201,9.1201,9.1201,9.1201,9.1201,9.1201,9.1201,9.1201,9.1201,9.1201,9.1201,9.1201,9.1201,9.1201,9.1201,9.1201,9.7101,9.7723,9.8354,9.8332,9.7792,9.8456,9.8739,9.893,9.8756,9.8275,9.7696,9.7456,9.6855,9.5871,9.4437,9.3687,9.3829,9.4572,9.4969,9.5109,9.5771,9.6126,9.6216,9.6784,9.7237,9.7678,9.8604,9.9114,9.915,9.8437,9.8013,9.8028,9.8046,9.8043,9.8172,9.8845,9.927,9.9121,9.9129,9.9202,9.9163,9.9052,9.7463,9.4943,9.4468,9.4419,9.3827,9.4192,9.4293,9.3561,9.5018,9.5478,9.4913,9.6102,9.7265,9.7998,9.7557,9.7183,9.7221,9.7163,9.6942,9.6326,9.6211,9.6211,9.6057,9.6095,9.6095,9.6211,9.6019,9.598,9.598,9.5865,9.5942,9.598,9.6057,9.6057,9.6095,9.5903,9.6134,9.6057,9.6057,9.5711,9.4989,9.4181,9.3364,9.2826,9.3056,9.321,9.2672,9.3056,9.3056,9.2633,9.2364,9.2172,9.1432,9.1201,9.1201,9.1201,9.1201,9.1201,9.1201,9.1201,9.1201,9.1201,9.1201,9.1201,9.1201,9.1201,9.1201,9.1201,9.1201,9.1201,9.1201,9.1201,9.1201,9.8521,9.9135,9.9374,9.9877,10.0579,10.0839,10.0874,10.0744,10.0758,10.0264,9.9466,9.8934,9.8529,9.82,9.7047,9.6323,9.6004,9.6292,9.6595,9.6971,9.7275,9.7731,9.8263,9.8514,9.8933,9.9492,9.9942,10.023,10.0249,9.9874,9.976,9.9817,9.9721,9.9713,9.9763,9.9992,10.0183,10.0183,10.0145,10.018,10.0298,10.0298,9.9452,9.7921,9.7692,9.7249,9.6538,9.6842,9.6974,9.673,9.7344,9.7297,9.6674,9.7068,9.7808,9.8577,9.8433,9.8289,9.8327,9.8327,9.8211,9.7904,9.7365,9.7057,9.698,9.6596,9.6288,9.6288,9.6288,9.6288,9.6288,9.6288,9.6288,9.6288,9.6288,9.6288,9.6288,9.6288,9.6288,9.6288,9.6288,9.5942,9.522,9.472,9.422,9.348,9.3518,9.3557,9.3403,9.3557,9.3595,9.3403,9.3249,9.3172,9.2941,9.1787,9.1201,9.1201,9.1201,9.1201,9.1201,9.1201,9.1201,9.1201,9.1201,9.1201,9.1201,9.1201,9.1201,9.1201,9.1201,9.1201,9.1201,9.1201,9.1201,10.0109,10.0372,10.0766,10.1433,10.2174,10.244,10.2449,10.2273,10.2018,10.1547,10.0909,10.0145,9.9801,9.9687,9.9152,9.8683,9.8288,9.8048,9.8157,9.8556,9.9064,9.9507,9.9821,10.0138,10.0394,10.0623,10.0662,10.0845,10.1203,10.0917,10.0917,10.1214,10.114,10.1235,10.1426,10.1468,10.1444,10.1444,10.1441,10.1549,10.159,10.1405,10.0913,10.025,10.0075,9.9517,9.8444,9.849,9.8582,9.8624,9.8644,9.8567,9.8356,9.8057,9.8442,9.9404,9.9365,9.9211,9.9221,9.9211,9.9106,9.8788,9.8288,9.7865,9.7519,9.698,9.6634,9.6403,9.6288,9.6288,9.6288,9.6288,9.6288,9.6288,9.6288,9.6288,9.6288,9.6288,9.6288,9.6249,9.598,9.5595,9.5181,9.5027,9.4566,9.3826,9.3903,9.4095,9.4095,9.4095,9.4104,9.4134,9.4095,9.3941,9.3595,9.271,9.2018,9.1902,9.1432,9.1355,9.1278,9.1278,9.1201,9.1201,9.1201,9.1201,9.1201,9.1201,9.1201,9.1201,9.1201,9.1201,9.1201,9.1201,9.1201,10.1833,10.1513,10.265,10.2817,10.2655,10.3147,10.3266,10.3087,10.2323,10.2018,10.1812,10.0998,10.0639,10.0627,10.0536,10.0527,10.0313,9.9767,9.9446,9.9557,10.1009,10.1297,10.0787,10.159,10.1629,10.1093,10.0901,10.1428,10.2216,10.163,10.1554,10.2079,10.2144,10.2394,10.3236,10.2991,10.3047,10.2994,10.2999,10.3133,10.3221,10.2594,10.1931,10.1234,10.1231,10.0581,9.8968,9.8863,9.8941,9.8885,9.901,9.9288,9.9788,9.9259,9.9519,10.0712,10.0481,10.0144,10.0106,10.0106,9.975,9.9211,9.8865,9.8481,9.7788,9.7557,9.7173,9.6442,9.6365,9.6355,9.6326,9.6288,9.6288,9.6288,9.6288,9.6288,9.6288,9.6288,9.6288,9.6211,9.5711,9.5104,9.5027,9.5143,9.4874,9.4412,9.4566,9.4989,9.5018,9.5018,9.4989,9.4989,9.4989,9.4826,9.4287,9.3672,9.3172,9.271,9.2056,9.1672,9.1595,9.1556,9.1402,9.1364,9.1201,9.1201,9.1201,9.1201,9.1201,9.1201,9.1201,9.1201,9.1201,9.1201,9.1201,10.3591,10.3436,10.3819,10.4263,10.4583,10.486,10.4616,10.3966,10.3164,10.2829,10.2708,10.1993,10.1656,10.1712,10.1734,10.1685,10.1657,10.1428,10.1,10.0764,10.2198,10.2281,10.1444,10.2402,10.2939,10.2671,10.2671,10.2851,10.3119,10.2884,10.2922,10.3157,10.3109,10.318,10.3475,10.3404,10.3381,10.3392,10.3426,10.3481,10.3558,10.336,10.3154,10.3035,10.3037,10.2739,10.2239,10.1663,10.0836,9.9837,10.0789,10.1289,10.0866,10.0135,10.0212,10.1096,10.1096,10.0904,10.0904,10.0904,10.0789,10.0481,10.0019,9.9298,9.8557,9.8404,9.7788,9.6673,9.6749,9.6942,9.6442,9.6288,9.6326,9.6288,9.6288,9.6288,9.6288,9.6288,9.6288,9.6288,9.6057,9.5903,9.5865,9.5865,9.5672,9.5441,9.5634,9.5826,9.5865,9.5788,9.5903,9.5903,9.5865,9.5711,9.5249,9.4788,9.4373,9.3787,9.3095,9.2326,9.2172,9.2056,9.1825,9.1672,9.1479,9.1393,9.1355,9.1393,9.1518,9.1393,9.1432,9.1355,9.124,9.1278,9.1393,10.4883,10.4883,10.4883,10.5189,10.5686,10.5686,10.5442,10.4879,10.4076,10.3764,10.3676,10.3009,10.266,10.2676,10.2687,10.2687,10.2726,10.3037,10.2758,10.2156,10.3279,10.3207,10.2215,10.3021,10.382,10.3957,10.3733,10.3814,10.4188,10.3856,10.3856,10.4128,10.4072,10.421,10.444,10.4473,10.4413,10.4462,10.4495,10.4549,10.4537,10.4359,10.4267,10.4318,10.4328,10.4174,10.3943,10.3905,10.3097,10.152,10.1789,10.1779,10.1279,10.0827,10.075,10.1125,10.1279,10.1279,10.1279,10.1241,10.1279,10.1202,10.0827,10.0173,9.949,9.9298,9.8634,9.7634,9.7673,9.7634,9.6942,9.6749,9.6634,9.6288,9.6288,9.6288,9.6288,9.6288,9.6288,9.6288,9.6249,9.6288,9.6288,9.6288,9.6288,9.6288,9.6288,9.6288,9.6288,9.6249,9.6288,9.6288,9.6172,9.6134,9.6211,9.5903,9.5528,9.4903,9.4249,9.348,9.2979,9.2941,9.2787,9.2672,9.2518,9.2556,9.2556,9.2441,9.2479,9.2172,9.1941,9.2095,9.2172,9.1864,9.1825,10.5686,10.5686,10.5686,10.5647,10.5686,10.5686,10.5708,10.5713,10.4909,10.4645,10.4643,10.3975,10.3591,10.3602,10.3634,10.3634,10.3728,10.4362,10.4558,10.4296,10.4714,10.4637,10.401,10.3943,10.4331,10.4931,10.4408,10.4428,10.5115,10.4567,10.4443,10.5067,10.5099,10.5354,10.5804,10.6024,10.5838,10.5821,10.6013,10.6018,10.6028,10.5497,10.5174,10.5174,10.5174,10.4866,10.4559,10.5213,10.4905,10.2904,10.1981,10.1548,10.1317,10.1279,10.1241,10.1279,10.1279,10.1279,10.1279,10.1279,10.1279,10.1279,10.1202,10.0943,10.0144,10.0029,9.9673,9.8673,9.875,9.8519,9.7788,9.7557,9.725,9.6634,9.6442,9.6326,9.6288,9.6288,9.6288,9.6288,9.6288,9.6288,9.6288,9.6288,9.6288,9.6288,9.6288,9.6288,9.6326,9.6365,9.6365,9.6403,9.6519,9.6749,9.6865,9.7096,9.6711,9.6095,9.5441,9.4788,9.3873,9.3672,9.348,9.3403,9.348,9.3595,9.3518,9.3249,9.321,9.3095,9.3056,9.3172,9.3018,9.2672,9.2441,10.5686,10.5686,10.5686,10.5686,10.5686,10.5686,10.5758,10.5763,10.5009,10.5085,10.5471,10.4976,10.4624,10.4669,10.4659,10.4669,10.4746,10.4959,10.5826,10.6595,10.6805,10.6448,10.5661,10.5057,10.5182,10.5856,10.5672,10.5836,10.602,10.5713,10.579,10.6059,10.5951,10.6046,10.6305,10.6312,10.6312,10.6312,10.6333,10.6354,10.6315,10.6144,10.6049,10.6059,10.602,10.5905,10.5674,10.5482,10.4943,10.3674,10.2712,10.1943,10.1471,10.1394,10.1433,10.1356,10.1356,10.1317,10.1317,10.1317,10.1317,10.1279,10.1279,10.0981,10.0221,10.0673,10.0173,9.9327,9.9298,9.9413,9.8673,9.8404,9.8288,9.8057,9.7134,9.6403,9.6365,9.6288,9.6288,9.6288,9.6288,9.6288,9.6288,9.6288,9.6288,9.6288,9.6288,9.6365,9.648,9.6788,9.6942,9.6942,9.7096,9.7365,9.7634,9.798,9.7865,9.7288,9.6711,9.6134,9.5095,9.4172,9.3903,9.3633,9.398,9.4172,9.3903,9.3642,9.371,9.4326,9.4057,9.4095,9.371,9.3403,9.3326,10.5686,10.5686,10.5686,10.571,10.5758,10.5771,10.5878,10.594,10.5541,10.563,10.6088,10.5812,10.5613,10.5636,10.5636,10.5636,10.5636,10.5636,10.6213,10.6972,10.7433,10.7318,10.6856,10.6367,10.629,10.6318,10.6395,10.6356,10.6356,10.6395,10.6395,10.6356,10.6395,10.6395,10.6395,10.6395,10.6395,10.6395,10.6395,10.6395,10.6395,10.6395,10.6395,10.6395,10.6395,10.6395,10.629,10.5905,10.5251,10.4443,10.3597,10.2904,10.2481,10.2404,10.2251,10.1933,10.2164,10.2164,10.151,10.1587,10.1664,10.1394,10.1279,10.1096,10.0789,10.1048,10.0712,10.0173,10.0366,10.0135,9.949,9.9029,9.8827,9.8596,9.7904,9.7173,9.6865,9.6826,9.6634,9.6442,9.6288,9.6288,9.6288,9.6288,9.6288,9.6288,9.6288,9.6519,9.6788,9.7211,9.7596,9.7634,9.7827,9.8173,9.8327,9.8557,9.8673,9.8173,9.775,9.725,9.6288,9.5172,9.5057,9.4903,9.4826,9.4826,9.4941,9.5172,9.5826,9.6057,9.548,9.5095,9.4903,9.4441,9.4326,10.5686,10.5724,10.5736,10.5771,10.5878,10.5901,10.5989,10.6167,10.6128,10.6203,10.6336,10.6395,10.6231,10.6395,10.6251,10.6318,10.6356,10.6241,10.6433,10.6944,10.7482,10.7867,10.7829,10.7713,10.7175,10.6587,10.6472,10.6472,10.6433,10.6395,10.6395,10.6395,10.6395,10.6395,10.6395,10.6395,10.6395,10.6395,10.6395,10.6395,10.6395,10.6395,10.6395,10.6395,10.6395,10.6395,10.6395,10.628,10.5982,10.5251,10.4482,10.3982,10.3866,10.3828,10.352,10.2981,10.3212,10.3058,10.2058,10.2404,10.2366,10.1741,10.151,10.1356,10.1279,10.1241,10.1202,10.101,10.1279,10.0866,10.0327,9.9558,9.9327,9.9327,9.9096,9.8673,9.798,9.7634,9.725,9.6634,9.6519,9.6326,9.6403,9.6365,9.6288,9.6288,9.6326,9.6596,9.7096,9.7673,9.8096,9.8442,9.8711,9.9058,9.9096,9.9135,9.9135,9.8981,9.8596,9.8096,9.7403,9.6673,9.6634,9.6557,9.6519,9.6749,9.7057,9.748,9.7788,9.7596,9.6903,9.6749,9.6634,9.5903,9.5557,10.5686,10.5724,10.5795,10.5892,10.5901,10.5944,10.6068,10.6237,10.6237,10.6455,10.6423,10.6433,10.6433,10.6433,10.6433,10.6395,10.6472,10.6549,10.6741,10.7521,10.8252,10.8598,10.8598,10.8559,10.7829,10.6933,10.7136,10.7021,10.6549,10.6395,10.6395,10.6395,10.6395,10.6395,10.6395,10.6395,10.6395,10.6395,10.6395,10.6395,10.6395,10.6395,10.6395,10.6395,10.6395,10.6395,10.6395,10.6395,10.628,10.5982,10.5328,10.4636,10.4212,10.402,10.3905,10.3789,10.3789,10.3751,10.3443,10.3366,10.3251,10.2443,10.2212,10.2058,10.1356,10.1317,10.1317,10.1279,10.1279,10.1173,10.0981,10.0866,10.0635,10.0596,10.0558,10.0327,9.9519,9.8365,9.7865,9.7827,9.7134,9.6557,9.7096,9.6711,9.6557,9.6365,9.6519,9.674,9.7403,9.8211,9.8711,9.925,9.975,10.0058,9.9942,9.9942,9.9942,9.9865,9.9519,9.9288,9.8557,9.8173,9.8134,9.8173,9.825,9.8442,9.8404,9.8519,9.8596,9.8442,9.8365,9.8096,9.7788,9.7173,9.6826,10.5807,10.5828,10.5898,10.5967,10.61,10.6512,10.6753,10.6955,10.7311,10.7497,10.7462,10.7203,10.7021,10.6982,10.6636,10.6597,10.7059,10.7405,10.7598,10.8021,10.879,10.8829,10.8175,10.879,10.8675,10.729,10.6972,10.678,10.6472,10.6395,10.6395,10.6395,10.6395,10.6395,10.6395,10.6395,10.6395,10.6395,10.6395,10.6395,10.6395,10.6395,10.6395,10.6395,10.6395,10.6395,10.6395,10.6395,10.6395,10.628,10.5944,10.5559,10.5174,10.5059,10.4905,10.4559,10.4905,10.4559,10.4212,10.4222,10.4097,10.3251,10.2866,10.2404,10.1866,10.1587,10.1317,10.1279,10.1279,10.1279,10.1356,10.1789,10.175,10.1356,10.1279,10.1087,10.0558,9.9519,9.8634,9.8711,9.8019,9.7865,9.7788,9.748,9.748,9.7596,9.7673,9.7904,9.8634,9.9375,9.9712,10.0212,10.0789,10.1019,10.0827,10.0789,10.0866,10.075,10.0519,10.0366,10.0096,9.9827,9.9673,9.9481,9.9173,9.9183,9.9173,9.9298,9.9558,9.9788,9.975,9.9365,9.8875,9.8365,9.8134,10.5932,10.6023,10.6161,10.6266,10.6534,10.7334,10.7783,10.7972,10.8598,10.8664,10.8713,10.8059,10.7559,10.7482,10.6751,10.6944,10.7675,10.8367,10.8444,10.8252,10.8906,10.8598,10.7867,10.8367,10.8675,10.7675,10.7136,10.6703,10.6472,10.6395,10.6395,10.6395,10.6395,10.6395,10.6395,10.6395,10.6395,10.6395,10.6395,10.6395,10.6395,10.6395,10.6395,10.6395,10.6395,10.6395,10.6395,10.6395,10.6395,10.6395,10.6395,10.6395,10.6395,10.6356,10.6136,10.5328,10.5867,10.5597,10.4828,10.4789,10.4713,10.4059,10.3328,10.2904,10.2635,10.2327,10.2058,10.1779,10.1779,10.1625,10.1548,10.1779,10.1818,10.1471,10.1279,10.1279,10.1164,10.0673,9.9981,9.9404,9.8827,9.8519,9.8673,9.8596,9.875,9.8827,9.8875,9.9144,9.9798,10.026,10.0442,10.0673,10.1087,10.1279,10.1135,10.1173,10.1289,10.1366,10.1202,10.1202,10.1173,10.0827,10.0404,10.0096,9.9865,9.9942,10.0096,10.0289,10.0635,10.1096,10.075,9.9952,9.9606,9.9442,9.9365,10.6012,10.6073,10.6902,10.7264,10.7411,10.8266,10.8692,10.8713,10.8944,10.8906,10.8867,10.8098,10.7752,10.7521,10.679,10.6933,10.779,10.8598,10.8867,10.8521,10.8713,10.8136,10.8136,10.7675,10.7482,10.7675,10.7444,10.7059,10.651,10.6395,10.6395,10.6395,10.6395,10.6395,10.6395,10.6395,10.6395,10.6395,10.6395,10.6395,10.6395,10.6395,10.6395,10.6395,10.6395,10.6395,10.6395,10.6395,10.6395,10.6395,10.6395,10.6395,10.6395,10.6395,10.628,10.6174,10.6251,10.6087,10.579,10.5366,10.5136,10.4761,10.4135,10.3712,10.3635,10.3482,10.3135,10.3097,10.2751,10.2404,10.2366,10.2174,10.1635,10.1394,10.1394,10.1433,10.1394,10.125,10.1135,10.0866,9.9942,9.9135,9.9442,9.9596,9.9481,9.9442,9.9442,9.9788,10.0452,10.0683,10.0712,10.0943,10.1241,10.1279,10.1241,10.1394,10.152,10.1712,10.1664,10.1712,10.1597,10.1356,10.1048,10.1366,10.1212,10.1135,10.125,10.1289,10.125,10.1356,10.0866,10.0414,10.0327,10.0289,10.0366,10.6655,10.7516,10.7569,10.787,10.8342,10.9192,10.9598,10.9637,11.0021,11.0252,10.9867,10.8944,10.829,10.7982,10.6944,10.7098,10.8252,10.9175,10.929,10.8944,10.8944,10.8252,10.7944,10.7136,10.7021,10.7213,10.7367,10.7251,10.6482,10.6395,10.6395,10.6395,10.6395,10.6395,10.6395,10.6395,10.6395,10.6395,10.6395,10.6433,10.6433,10.6433,10.6395,10.6395,10.6395,10.6395,10.6395,10.6395,10.6395,10.6395,10.6395,10.6395,10.6395,10.6395,10.6395,10.6395,10.6395,10.6395,10.6395,10.5982,10.5828,10.5674,10.4982,10.4559,10.4405,10.4174,10.3982,10.3905,10.4174,10.3712,10.3328,10.2828,10.2712,10.2558,10.2289,10.2212,10.2366,10.2174,10.2212,10.2241,10.1289,10.0596,10.0481,10.0481,10.0212,10.0096,10.0096,10.0596,10.125,10.1404,10.152,10.1943,10.2241,10.2135,10.2135,10.2212,10.2212,10.2289,10.2327,10.2327,10.2404,10.2366,10.2943,10.3558,10.3212,10.2366,10.202,10.1943,10.175,10.1664,10.1597,10.1481,10.1212,10.1096,10.1135,10.7475,10.8598,10.8329,10.8598,10.9252,11.0098,11.0444,11.0598,11.1137,11.1395,11.128,10.9713,10.8867,10.8482,10.7675,10.7521,10.8944,10.9637,10.9521,10.9367,10.9213,10.8406,10.7405,10.6982,10.7049,10.6713,10.7328,10.7213,10.6626,10.6664,10.6587,10.6433,10.6395,10.6395,10.6395,10.6395,10.6395,10.6433,10.6636,10.6703,10.6856,10.6741,10.6674,10.6597,10.651,10.6395,10.6395,10.6395,10.6395,10.6395,10.6395,10.6395,10.6395,10.6395,10.6395,10.6395,10.6395,10.6395,10.6356,10.6097,10.5982,10.6164,10.552,10.5251,10.5251,10.4943,10.4559,10.452,10.4597,10.4761,10.4174,10.3943,10.3828,10.3674,10.3251,10.302,10.3328,10.3289,10.3135,10.2904,10.2289,10.2097,10.202,10.202,10.1866,10.1866,10.1827,10.1943,10.252,10.2635,10.2828,10.3289,10.3482,10.3251,10.3212,10.3251,10.3251,10.3212,10.3251,10.3251,10.3443,10.3597,10.4174,10.4443,10.4212,10.3405,10.2981,10.2712,10.2712,10.2712,10.2751,10.2481,10.202,10.1712,10.1597,10.8318,10.7982,10.9329,10.9955,11.0147,11.0944,11.1318,11.1318,11.1434,11.1511,11.128,10.9752,10.8867,10.8482,10.7944,10.8059,10.8675,10.906,10.9406,10.9521,10.8829,10.8098,10.7367,10.6741,10.6626,10.6482,10.7213,10.7136,10.6751,10.7098,10.7021,10.6549,10.6395,10.6395,10.6395,10.6395,10.6395,10.6549,10.7175,10.7867,10.8252,10.7829,10.7598,10.729,10.6895,10.6433,10.6433,10.6395,10.6395,10.6395,10.6395,10.6395,10.6395,10.6395,10.6395,10.6395,10.6395,10.6395,10.628,10.5944,10.5828,10.6126,10.5674,10.5636,10.579,10.5982,10.5828,10.6097,10.5597,10.5213,10.4905,10.4338,10.402,10.3982,10.3943,10.3866,10.402,10.4097,10.3982,10.402,10.3597,10.3635,10.3635,10.3635,10.3597,10.3597,10.3597,10.3597,10.3751,10.3866,10.3751,10.4097,10.4443,10.4289,10.4135,10.4212,10.4366,10.4251,10.4251,10.4251,10.4405,10.4559,10.4212,10.4405,10.4366,10.4636,10.4443,10.4212,10.3905,10.3674,10.352,10.3135,10.2635,10.2366,10.2097,10.9713,10.9867,11.0098,11.0483,11.0944,11.1368,11.1511,11.1511,11.1511,11.1214,11.0637,10.9483,10.8406,10.779,10.7521,10.7905,10.8252,10.8675,10.906,10.9367,10.8636,10.7867,10.7126,10.6982,10.6828,10.6328,10.6867,10.7175,10.6944,10.7136,10.7251,10.651,10.6395,10.6395,10.6433,10.6395,10.6741,10.7251,10.7905,10.8521,10.8713,10.8559,10.8175,10.7752,10.7328,10.6944,10.6549,10.6395,10.6395,10.6395,10.6395,10.6664,10.6867,10.679,10.6549,10.7087,10.6626,10.6433,10.6318,10.602,10.6097,10.6203,10.6059,10.6059,10.6318,10.6395,10.6395,10.6356,10.6059,10.5828,10.5674,10.5059,10.5059,10.4982,10.4789,10.4943,10.4905,10.4674,10.4713,10.4789,10.4905,10.4866,10.4713,10.4405,10.4212,10.4135,10.4135,10.4174,10.4636,10.5136,10.4905,10.4636,10.502,10.529,10.5136,10.5136,10.5443,10.5482,10.5482,10.5482,10.5443,10.5405,10.5059,10.5136,10.552,10.5713,10.5751,10.5482,10.502,10.4636,10.4251,10.3905,10.3482,10.2712,10.2327,11.0367,11.1137,11.0714,11.0906,11.1472,11.1511,11.1368,11.1175,11.1137,11.0675,10.9906,10.9175,10.8175,10.7405,10.779,10.8136,10.8098,10.8444,10.8713,10.879,10.8598,10.8021,10.7675,10.7675,10.7367,10.6069,10.7905,10.7829,10.7328,10.7444,10.7559,10.6472,10.6395,10.6395,10.6472,10.678,10.729,10.8444,10.8944,10.9367,10.9598,10.9367,10.8944,10.8482,10.8059,10.7598,10.6895,10.6741,10.6741,10.6395,10.6395,10.6664,10.6982,10.7021,10.7059,10.7482,10.729,10.7098,10.6818,10.6549,10.6433,10.6395,10.6395,10.628,10.6356,10.6395,10.6395,10.6395,10.6318,10.6318,10.6241,10.5713,10.5751,10.579,10.5751,10.602,10.6097,10.5636,10.5443,10.5559,10.5674,10.579,10.5559,10.502,10.4789,10.4636,10.4674,10.4789,10.529,10.5944,10.579,10.5366,10.5559,10.5867,10.5828,10.5905,10.628,10.6395,10.6395,10.6318,10.6087,10.6097,10.5982,10.6203,10.6395,10.628,10.6059,10.6097,10.6097,10.5636,10.5213,10.4866,10.4366,10.3482,10.2866,10.9483,11.0329,11.1098,11.1395,11.1472,11.1483,11.1021,11.0291,11.0301,10.9829,10.9175,10.8906,10.879,10.8675,10.8636,10.879,10.8752,10.8098,10.8482,10.8636,10.8252,10.8329,10.8367,10.8559,10.8636,10.8406,10.8983,10.8636,10.8098,10.8252,10.7713,10.6636,10.6472,10.6395,10.678,10.7444,10.8406,10.9444,10.9983,11.0483,11.0675,11.0483,10.9983,10.9752,10.9175,10.8444,10.7675,10.7482,10.7098,10.6472,10.6549,10.6741,10.7136,10.7444,10.7752,10.8059,10.8252,10.8021,10.7675,10.7087,10.6549,10.6433,10.6395,10.6395,10.6395,10.6395,10.6395,10.6395,10.6395,10.6395,10.6356,10.6318,10.6251,10.6213,10.6136,10.6213,10.628,10.628,10.6136,10.6318,10.6318,10.6251,10.6213,10.5713,10.5559,10.5443,10.5482,10.5597,10.5751,10.6251,10.628,10.6126,10.6164,10.628,10.628,10.6395,10.6395,10.6395,10.6395,10.6395,10.6318,10.6395,10.6395,10.6395,10.6395,10.6395,10.6395,10.628,10.628,10.6318,10.6097,10.5559,10.502,10.4251,10.3789,10.9098,10.9521,11.0895,11.1214,11.0714,11.0714,11.0214,10.9483,10.9406,10.9252,10.8906,10.8906,10.8906,10.9021,10.9483,10.9367,10.9021,10.9252,10.9367,10.9521,10.9444,10.9136,10.929,10.929,10.9213,10.8713,10.9021,10.9252,10.8598,10.8867,10.8213,10.7395,10.678,10.6856,10.7328,10.8367,10.9483,11.006,11.0714,11.1252,11.1291,11.1214,11.0714,11.0137,11.0021,10.8944,10.7944,10.7752,10.7164,10.678,10.6933,10.729,10.7675,10.8175,10.8636,10.8944,10.9136,10.8829,10.8559,10.8059,10.7752,10.7098,10.6751,10.6433,10.6472,10.6395,10.6395,10.6395,10.6395,10.6395,10.6395,10.6395,10.6356,10.6395,10.6395,10.6395,10.6395,10.6395,10.6395,10.6395,10.6395,10.6356,10.6356,10.6318,10.628,10.628,10.6356,10.6395,10.6395,10.6395,10.6395,10.6395,10.6395,10.6395,10.6395,10.6395,10.6395,10.6395,10.6395,10.6395,10.6395,10.6395,10.6395,10.6395,10.6395,10.6395,10.6395,10.6395,10.6395,10.6395,10.6241,10.5982,10.5443,10.4905,10.4636,10.8675,10.906,11.0521,11.0752,11.0252,11.0483,10.979,10.8713,10.8829,10.8906,10.8906,10.9098,10.9483,10.979,11.0214,11.0098,10.9675,10.979,11.006,11.0098,10.9983,10.9983,11.0021,11.0098,11.0137,10.9136,10.9252,10.9675,10.929,10.929,10.8598,10.7829,10.7405,10.7559,10.7867,10.929,11.0291,11.0714,11.1098,11.1511,11.1511,11.1434,11.128,11.0675,11.0598,10.9944,10.8906,10.8367,10.7713,10.7328,10.7367,10.7905,10.8444,10.9021,10.956,10.9829,10.9906,10.956,10.9329,10.8944,10.8675,10.8059,10.729,10.6933,10.6741,10.6549,10.6395,10.6395,10.6395,10.6395,10.6395,10.6395,10.6395,10.6395,10.6395,10.6395,10.6395,10.6395,10.6395,10.6395,10.6405,10.6405,10.6415,10.6415,10.6397,10.6387,10.6395,10.6395,10.6395,10.6395,10.6395,10.6395,10.6395,10.6395,10.6395,10.6433,10.6472,10.6395,10.6395,10.6395,10.6395,10.6426,10.6415,10.6395,10.6395,10.6395,10.6395,10.6395,10.6395,10.6395,10.6241,10.6136,10.6059,10.5597,10.5405,10.8213,10.8983,10.9829,11.0214,11.0214,11.1098,10.9944,10.7982,10.8559,10.8944,10.9136,10.979,11.056,11.1088,11.1252,11.0829,11.0329,11.0291,11.0329,11.0406,11.0483,11.0714,11.106,11.1203,11.1021,11.1395,11.1088,11.0637,11.0175,11.0175,10.929,10.8559,10.8444,10.8482,10.7982,10.9406,11.0598,11.1329,11.1483,11.1511,11.1511,11.1511,11.1357,11.1318,11.1242,11.0675,10.979,10.9175,10.8482,10.7905,10.779,10.8021,10.8136,10.9406,11.0021,11.0137,11.0906,11.0868,11.0252,10.9406,10.9098,10.8829,10.8136,10.7636,10.7444,10.7021,10.6433,10.6472,10.6395,10.6395,10.6395,10.6395,10.6395,10.6395,10.6395,10.6395,10.6395,10.6395,10.6395,10.6417,10.6397,10.6415,10.6426,10.6436,10.6427,10.6417,10.6415,10.6405,10.6415,10.6405,10.6405,10.6395,10.6395,10.6395,10.6395,10.651,10.651,10.6444,10.6618,10.6869,10.6852,10.6835,10.6728,10.6523,10.6457,10.6497,10.6457,10.6395,10.6395,10.6395,10.6395,10.6318,10.628,10.6203,10.5944,10.8175,10.8906,10.9213,10.9329,10.9367,10.9637,10.8636,10.7328,10.8252,10.9213,10.9867,11.0675,11.1175,11.1472,11.1511,11.1318,11.1137,11.106,11.106,11.106,11.1021,11.1214,11.1472,11.1511,11.1511,11.1511,11.1472,11.1395,11.106,11.0983,11.0444,10.9752,10.9444,10.9598,10.9713,11.0521,11.128,11.1472,11.1511,11.1511,11.1511,11.1511,11.1511,11.1511,11.1511,11.1098,11.0378,10.9829,10.929,10.8636,10.8521,10.8482,10.8598,10.9713,11.0175,11.0367,11.1021,11.1368,11.1098,11.0714,11.0367,10.9752,10.9021,10.8329,10.7752,10.7482,10.7021,10.6587,10.6549,10.651,10.6395,10.6395,10.6395,10.6395,10.6395,10.6395,10.6395,10.6395,10.6415,10.6477,10.6517,10.6782,10.6884,10.7009,10.7009,10.6937,10.6919,10.6574,10.6448,10.6436,10.6415,10.6405,10.6395,10.6395,10.6444,10.6775,10.6979,10.7025,10.749,10.8029,10.7856,10.7439,10.7153,10.6968,10.6786,10.6628,10.6478,10.6395,10.6395,10.6395,10.6395,10.6395,10.6356,10.6318,10.628,10.8021,10.8444,10.8482,10.8482,10.8559,10.9098,10.8675,10.8021,10.8867,10.9713,11.0291,11.1098,11.1511,11.1511,11.1511,11.1511,11.1511,11.1511,11.1511,11.1511,11.1511,11.1472,11.1472,11.1511,11.1511,11.1511,11.1511,11.1472,11.1434,11.1472,11.1137,11.0675,11.0367,11.0329,11.0637,11.1175,11.1472,11.1511,11.1511,11.1511,11.1511,11.1511,11.1511,11.1511,11.1434,11.1252,11.0752,11.0329,10.9955,10.9521,10.9329,10.9175,10.9329,10.9867,11.0367,11.056,11.0944,11.1406,11.1434,11.1434,11.1021,11.0675,10.9867,10.9175,10.8559,10.8329,10.7944,10.7482,10.701,10.6905,10.6867,10.6828,10.6626,10.6626,10.6856,10.6895,10.7274,10.7323,10.7432,10.7391,10.7525,10.7633,10.764,10.7602,10.7679,10.7602,10.7514,10.7065,10.6679,10.6689,10.6622,10.6546,10.6546,10.6583,10.6881,10.7324,10.749,10.7636,10.8174,10.883,10.8547,10.8133,10.7763,10.7461,10.7429,10.7225,10.6603,10.6395,10.6433,10.6433,10.6395,10.6395,10.6395,10.6395,10.6395,10.7713,10.7713,10.7713,10.7752,10.7982,10.9252,10.9867,11.0021,11.007,11.0109,11.0252,11.1137,11.1395,11.1395,11.1434,11.1511,11.1511,11.1511,11.1511,11.1511,11.1511,11.1511,11.1511,11.1511,11.1511,11.1511,11.1511,11.1511,11.1511,11.1511,11.1434,11.1252,11.0714,11.0868,11.1214,11.1395,11.1511,11.1511,11.1511,11.1511,11.1511,11.1511,11.1511,11.1511,11.1472,11.1434,11.1137,11.0752,11.0444,11.0214,11.0137,10.9675,10.979,11.056,11.0598,11.0752,11.1137,11.1357,11.1511,11.1511,11.1511,11.1214,11.0675,11.0329,10.9867,10.9252,10.879,10.8406,10.7982,10.7829,10.7713,10.7405,10.7136,10.7367,10.7675,10.8044,10.8558,10.8781,10.893,10.9043,10.9233,10.9274,10.9066,10.8956,10.8457,10.8497,10.8323,10.7713,10.7382,10.736,10.7223,10.684,10.6871,10.6893,10.7202,10.7572,10.7897,10.7982,10.8772,10.9318,10.9061,10.8792,10.8532,10.8294,10.8208,10.7852,10.7122,10.6713,10.6549,10.651,10.6433,10.6395,10.6395,10.6395,10.6395,10.7713,10.7713,10.7713,10.7713,10.779,10.8213,10.8752,10.9252,10.929,10.956,11.0252,11.1098,11.1175,11.0675,11.1214,11.1434,11.1511,11.1511,11.1511,11.1511,11.1511,11.1511,11.1511,11.1511,11.1511,11.1511,11.1511,11.1511,11.1511,11.1511,11.1511,11.1395,11.1165,11.1318,11.1395,11.1511,11.1511,11.1511,11.1511,11.1511,11.1511,11.1511,11.1549,11.1588,11.1511,11.1549,11.1434,11.1252,11.1021,11.106,11.0483,10.9983,11.0021,11.0367,11.0444,11.1165,11.1395,11.1511,11.1511,11.1522,11.1581,11.1613,11.1277,11.0791,11.0367,11.0004,10.9619,10.9252,10.8906,10.8636,10.8482,10.8213,10.8098,10.8329,10.8591,10.8924,10.9398,10.9703,10.9888,11.0154,11.037,11.0362,11.022,10.9679,10.9216,10.9354,10.9174,10.8629,10.8043,10.7982,10.7653,10.7249,10.7199,10.7256,10.7329,10.7694,10.8084,10.8459,10.9221,10.9638,10.9344,10.9138,10.9145,10.9065,10.8929,10.8326,10.7572,10.7328,10.7251,10.6626,10.6472,10.6433,10.6395,10.6433,10.6395,10.7482,10.7213,10.7175,10.7175,10.7175,10.7175,10.7675,10.8367,10.8752,10.9406,11.0224,11.0714,11.0906,11.0906,11.128,11.1511,11.1511,11.1511,11.1511,11.1511,11.1511,11.1511,11.1511,11.1511,11.1511,11.1511,11.1511,11.1511,11.1511,11.1511,11.1511,11.1511,11.1511,11.1511,11.1511,11.1511,11.1511,11.1511,11.1511,11.1511,11.1511,11.1549,11.1665,11.1857,11.1742,11.1703,11.1857,11.1742,11.1511,11.1511,11.0868,11.0521,11.0329,11.0252,11.0726,11.1342,11.1519,11.1784,11.1928,11.1768,11.1865,11.1973,11.1944,11.1509,11.1143,11.0793,11.0508,11.0175,10.9752,10.9406,10.9252,10.9175,10.9252,10.9367,10.9509,10.9687,11.0066,11.0437,11.0738,11.1077,11.1155,11.1175,11.0882,11.0332,11.0293,11.0873,11.0749,10.9992,10.9146,10.8415,10.7979,10.7431,10.751,10.7647,10.7772,10.8011,10.8244,10.876,10.9467,10.9756,10.9577,10.9875,11.0225,11.0012,10.96,10.8964,10.838,10.8224,10.8021,10.7433,10.6972,10.6982,10.6867,10.6559,10.651,10.7213,10.6433,10.6395,10.6472,10.6395,10.6472,10.6905,10.7636,10.8252,10.9213,10.9906,11.0186,11.0637,11.0983,11.1368,11.1511,11.1511,11.1511,11.1511,11.1511,11.1511,11.1511,11.1511,11.1511,11.1511,11.1511,11.1511,11.1511,11.1511,11.1511,11.1511,11.1511,11.1511,11.1511,11.1511,11.1511,11.1511,11.1511,11.1665,11.1742,11.1588,11.1626,11.1895,11.2406,11.2252,11.2022,11.2319,11.2088,11.1549,11.1511,11.1368,11.1021,11.0675,11.0531,11.1124,11.1468,11.1693,11.2147,11.2446,11.2418,11.2699,11.2785,11.2714,11.2375,11.2075,11.1539,11.1143,11.0899,11.0521,11.0329,11.0214,11.0098,11.0098,11.0329,11.0546,11.0989,11.1582,11.1792,11.1874,11.2082,11.2013,11.2047,11.2053,11.1542,11.1262,11.2217,11.1782,11.0874,11.0397,10.9364,10.8646,10.8041,10.8268,10.8493,10.8598,10.8719,10.8615,10.9046,10.9777,11.0062,10.9995,11.0635,11.1475,11.1021,11.0488,10.9919,10.9365,10.915,10.8867,10.8444,10.8059,10.779,10.7493,10.714,10.6705,10.7213,10.6395,10.6395,10.6395,10.6395,10.6395,10.651,10.6713,10.6895,10.7905,10.9136,10.9867,11.0329,11.0714,11.1329,11.1511,11.1511,11.1511,11.1511,11.1511,11.1511,11.1511,11.1511,11.1511,11.1511,11.1511,11.1511,11.1511,11.1511,11.1511,11.1511,11.1511,11.1511,11.1511,11.1511,11.1511,11.1626,11.1703,11.2165,11.2137,11.1819,11.2165,11.256,11.2906,11.2868,11.2906,11.2983,11.256,11.2011,11.1665,11.1549,11.1357,11.1214,11.1375,11.1609,11.1839,11.2065,11.253,11.3088,11.3288,11.3555,11.3893,11.3852,11.3437,11.293,11.223,11.177,11.1545,11.1357,11.1252,11.1137,11.1021,11.1053,11.1361,11.1585,11.2293,11.3,11.2985,11.297,11.2906,11.282,11.2869,11.2912,11.2796,11.2599,11.2084,11.1291,11.0777,11.1093,11.0538,10.9853,10.936,10.9464,10.96,10.955,10.9453,10.9358,10.954,11.0173,11.0369,11.0431,11.1085,11.1705,11.1664,11.1325,11.0709,11.0243,11.0046,10.9696,10.9412,10.908,10.8781,10.853,10.819,10.7471,10.6521,10.6395,10.6395,10.6395,10.6395,10.6395,10.6395,10.6395,10.6395,10.7367,10.879,10.9444,11.0021,11.0637,11.1318,11.1511,11.1511,11.1511,11.1511,11.1511,11.1511,11.1511,11.1511,11.1511,11.1511,11.1511,11.1511,11.1511,11.1511,11.1511,11.1511,11.1511,11.1511,11.1511,11.1549,11.1742,11.1972,11.2088,11.2819,11.2945,11.256,11.3022,11.356,11.3868,11.383,11.3753,11.3368,11.2945,11.2242,11.1809,11.1632,11.1796,11.1826,11.1941,11.2101,11.2231,11.2421,11.2855,11.3644,11.4099,11.4429,11.4907,11.4981,11.4589,11.4373,11.3664,11.274,11.2479,11.2156,11.1994,11.2022,11.1934,11.2462,11.2899,11.2724,11.2899,11.3202,11.3233,11.3166,11.3011,11.2991,11.3038,11.308,11.3043,11.2886,11.284,11.1895,11.1375,11.1573,11.1694,11.1016,11.0608,11.0626,11.0401,11.0124,11.0129,11.0118,11.0379,11.0711,11.0746,11.0964,11.1455,11.1898,11.1817,11.17,11.1433,11.1054,11.0794,11.0873,11.0747,11.0295,10.9805,10.9535,10.9327,10.8793,10.5674,10.6318,10.6395,10.6395,10.6395,10.6395,10.6395,10.6433,10.6549,10.7444,10.8829,10.9098,11.0098,11.1011,11.1472,11.1511,11.1511,11.1511,11.1511,11.1511,11.1511,11.1511,11.1511,11.1511,11.1511,11.1511,11.1511,11.1511,11.1511,11.1511,11.1511,11.1511,11.1511,11.1511,11.1742,11.2175,11.2599,11.2829,11.3407,11.4022,11.4137,11.4176,11.4561,11.4714,11.4714,11.4253,11.3868,11.3445,11.2637,11.2117,11.1953,11.2147,11.2228,11.2331,11.2371,11.2494,11.2542,11.3405,11.4339,11.4576,11.5434,11.6076,11.5986,11.5782,11.5557,11.4879,11.3941,11.3504,11.3175,11.2944,11.2944,11.3129,11.3727,11.4263,11.394,11.366,11.374,11.3798,11.3622,11.3498,11.3546,11.3591,11.3397,11.3398,11.3397,11.3355,11.3115,11.2639,11.2321,11.2285,11.1969,11.1693,11.164,11.1317,11.1036,11.0985,11.1132,11.1286,11.1603,11.1461,11.1448,11.1851,11.2032,11.1895,11.1764,11.1672,11.17,11.1562,11.168,11.1906,11.1398,11.0932,11.0895,11.0626,11.0303,10.5636,10.6395,10.6395,10.6395,10.6395,10.6395,10.6395,10.651,10.7164,10.8021,10.8829,10.9713,11.0598,11.1472,11.1511,11.1511,11.1511,11.1511,11.1511,11.1511,11.1511,11.1511,11.1511,11.1511,11.1511,11.1511,11.1511,11.1511,11.1511,11.1511,11.1511,11.1511,11.1511,11.1549,11.1665,11.2242,11.2945,11.3368,11.4253,11.5022,11.5022,11.5061,11.5099,11.5407,11.5803,11.5022,11.4522,11.4599,11.3791,11.3016,11.2544,11.2695,11.2691,11.2626,11.2667,11.2676,11.2718,11.3794,11.4634,11.5083,11.5999,11.7334,11.7153,11.6758,11.6412,11.5877,11.5185,11.4903,11.4577,11.4125,11.4119,11.4313,11.4807,11.5392,11.5424,11.5185,11.5082,11.5067,11.4975,11.4911,11.4956,11.4686,11.4257,11.4296,11.4335,11.4216,11.3938,11.3464,11.3037,11.2958,11.2837,11.2683,11.2527,11.2714,11.2619,11.2336,11.2367,11.2479,11.2461,11.2334,11.2232,11.2178,11.2251,11.2554,11.2194,11.1916,11.1967,11.229,11.2581,11.2743,11.2354,11.2058,11.212,11.2217,11.207]}]]